Wetterdaten: Dienstag, 24.05.2022
Datum Zeit Temp. 2m Temp +5 cm Feuchte A. Luftdruck Regen Wind Richtung Richtung Sonnenschein UV Solar Taupunkt Windchill Windben
24.05.2022 00:00 11,6 C 11,1 C 91 % 1003,8 hPa 0,0 l/m 11,3 km/h (2 Bft) S-SW 202 0 min 0,0 UV-I 0 W/m 10,2 C 8,7 C 17,7 km/h (3 Bft)
24.05.2022 00:01 11,6 C 11,1 C 91 % 1003,9 hPa 0,0 l/m 11,3 km/h (2 Bft) S-SW 202 0 min 0,0 UV-I 0 W/m 10,2 C 8,7 C 14,5 km/h (3 Bft)
24.05.2022 00:02 11,6 C 11,1 C 91 % 1003,9 hPa 0,0 l/m 8,0 km/h (2 Bft) S-SW 202 0 min 0,0 UV-I 0 W/m 10,2 C 10,5 C 14,5 km/h (3 Bft)
24.05.2022 00:03 11,6 C 11,1 C 91 % 1003,9 hPa 0,0 l/m 8,0 km/h (2 Bft) W-SW 247 0 min 0,0 UV-I 0 W/m 10,2 C 10,5 C 12,9 km/h (3 Bft)
24.05.2022 00:04 11,6 C 11,1 C 91 % 1003,8 hPa 0,0 l/m 11,3 km/h (2 Bft) S-SW 202 0 min 0,0 UV-I 0 W/m 10,2 C 8,7 C 16,1 km/h (3 Bft)
24.05.2022 00:05 11,6 C 11,1 C 91 % 1003,8 hPa 0,0 l/m 9,7 km/h (2 Bft) SW 225 0 min 0,0 UV-I 0 W/m 10,2 C 9,5 C 16,1 km/h (3 Bft)
24.05.2022 00:06 11,6 C 11,1 C 91 % 1003,8 hPa 0,0 l/m 11,3 km/h (2 Bft) S-SW 202 0 min 0,0 UV-I 0 W/m 10,2 C 8,7 C 14,5 km/h (3 Bft)
24.05.2022 00:07 11,6 C 11,1 C 91 % 1003,8 hPa 0,0 l/m 9,7 km/h (2 Bft) S-SW 202 0 min 0,0 UV-I 0 W/m 10,2 C 9,5 C 14,5 km/h (3 Bft)
24.05.2022 00:08 11,6 C 11,1 C 91 % 1003,8 hPa 0,0 l/m 9,7 km/h (2 Bft) S-SW 202 0 min 0,0 UV-I 0 W/m 10,2 C 9,5 C 14,5 km/h (3 Bft)
24.05.2022 00:09 11,6 C 11,1 C 91 % 1003,8 hPa 0,0 l/m 9,7 km/h (2 Bft) S-SW 202 0 min 0,0 UV-I 0 W/m 10,2 C 9,5 C 14,5 km/h (3 Bft)
24.05.2022 00:10 11,6 C 11,1 C 91 % 1003,9 hPa 0,0 l/m 9,7 km/h (2 Bft) S-SW 202 0 min 0,0 UV-I 0 W/m 10,2 C 9,5 C 12,9 km/h (3 Bft)
24.05.2022 00:11 11,6 C 11,1 C 91 % 1003,9 hPa 0,0 l/m 9,7 km/h (2 Bft) SW 225 0 min 0,0 UV-I 0 W/m 10,2 C 9,5 C 12,9 km/h (3 Bft)
24.05.2022 00:12 11,6 C 11,1 C 91 % 1003,8 hPa 0,0 l/m 11,3 km/h (2 Bft) S-SW 202 0 min 0,0 UV-I 0 W/m 10,2 C 8,7 C 16,1 km/h (3 Bft)
24.05.2022 00:13 11,6 C 11,1 C 91 % 1003,9 hPa 0,0 l/m 11,3 km/h (2 Bft) S-SW 202 0 min 0,0 UV-I 0 W/m 10,2 C 8,7 C 19,3 km/h (3 Bft)
24.05.2022 00:14 11,6 C 11,1 C 91 % 1003,9 hPa 0,0 l/m 11,3 km/h (2 Bft) S-SW 202 0 min 0,0 UV-I 0 W/m 10,2 C 8,7 C 19,3 km/h (3 Bft)
24.05.2022 00:15 11,6 C 11,1 C 91 % 1003,9 hPa 0,0 l/m 11,3 km/h (2 Bft) S-SW 202 0 min 0,0 UV-I 0 W/m 10,2 C 8,7 C 16,1 km/h (3 Bft)
24.05.2022 00:16 11,6 C 11,1 C 91 % 1004,0 hPa 0,0 l/m 9,7 km/h (2 Bft) S-SW 202 0 min 0,0 UV-I 0 W/m 10,2 C 9,5 C 12,9 km/h (3 Bft)
24.05.2022 00:17 11,6 C 11,1 C 91 % 1003,9 hPa 0,0 l/m 11,3 km/h (2 Bft) S-SW 202 0 min 0,0 UV-I 0 W/m 10,2 C 8,7 C 14,5 km/h (3 Bft)
24.05.2022 00:18 11,6 C 11,1 C 91 % 1004,0 hPa 0,0 l/m 11,3 km/h (2 Bft) S-SW 202 0 min 0,0 UV-I 0 W/m 10,2 C 8,7 C 17,7 km/h (3 Bft)
24.05.2022 00:19 11,6 C 11,1 C 91 % 1004,0 hPa 0,0 l/m 6,4 km/h (2 Bft) S-SW 202 0 min 0,0 UV-I 0 W/m 10,2 C 11,6 C 11,3 km/h (2 Bft)
24.05.2022 00:20 11,6 C 11,1 C 91 % 1003,9 hPa 0,0 l/m 11,3 km/h (2 Bft) S-SW 202 0 min 0,0 UV-I 0 W/m 10,2 C 8,7 C 14,5 km/h (3 Bft)
24.05.2022 00:21 11,6 C 11,1 C 91 % 1003,9 hPa 0,0 l/m 9,7 km/h (2 Bft) S-SW 202 0 min 0,0 UV-I 0 W/m 10,2 C 9,5 C 11,3 km/h (2 Bft)
24.05.2022 00:22 11,6 C 11,1 C 91 % 1004,0 hPa 0,0 l/m 8,0 km/h (2 Bft) S-SW 202 0 min 0,0 UV-I 0 W/m 10,2 C 10,5 C 11,3 km/h (2 Bft)
24.05.2022 00:23 11,6 C 11,1 C 91 % 1003,9 hPa 0,0 l/m 8,0 km/h (2 Bft) S 180 0 min 0,0 UV-I 0 W/m 10,2 C 10,5 C 9,7 km/h (2 Bft)
24.05.2022 00:24 11,6 C 11,1 C 91 % 1003,9 hPa 0,0 l/m 11,3 km/h (2 Bft) S-SW 202 0 min 0,0 UV-I 0 W/m 10,2 C 8,7 C 17,7 km/h (3 Bft)
24.05.2022 00:25 11,6 C 11,1 C 91 % 1003,9 hPa 0,0 l/m 8,0 km/h (2 Bft) S 180 0 min 0,0 UV-I 0 W/m 10,2 C 10,5 C 11,3 km/h (2 Bft)
24.05.2022 00:26 11,6 C 11,1 C 91 % 1004,2 hPa 0,0 l/m 11,3 km/h (2 Bft) S-SW 202 0 min 0,0 UV-I 0 W/m 10,2 C 8,7 C 16,1 km/h (3 Bft)
24.05.2022 00:27 11,6 C 11,1 C 91 % 1004,0 hPa 0,0 l/m 14,5 km/h (3 Bft) S-SW 202 0 min 0,0 UV-I 0 W/m 10,2 C 7,3 C 17,7 km/h (3 Bft)
24.05.2022 00:28 11,6 C 11,1 C 91 % 1004,0 hPa 0,0 l/m 12,9 km/h (3 Bft) S 180 0 min 0,0 UV-I 0 W/m 10,2 C 7,9 C 17,7 km/h (3 Bft)
24.05.2022 00:29 11,6 C 11,1 C 91 % 1004,0 hPa 0,0 l/m 12,9 km/h (3 Bft) S-SW 202 0 min 0,0 UV-I 0 W/m 10,2 C 7,9 C 17,7 km/h (3 Bft)
24.05.2022 00:30 11,6 C 11,1 C 91 % 1003,9 hPa 0,0 l/m 12,9 km/h (3 Bft) S-SW 202 0 min 0,0 UV-I 0 W/m 10,2 C 7,9 C 19,3 km/h (3 Bft)
24.05.2022 00:31 11,6 C 11,1 C 91 % 1003,9 hPa 0,0 l/m 11,3 km/h (2 Bft) S-SW 202 0 min 0,0 UV-I 0 W/m 10,2 C 8,7 C 16,1 km/h (3 Bft)
24.05.2022 00:32 11,6 C 11,1 C 92 % 1003,9 hPa 0,0 l/m 9,7 km/h (2 Bft) S 180 0 min 0,0 UV-I 0 W/m 10,3 C 9,5 C 12,9 km/h (3 Bft)
24.05.2022 00:33 11,6 C 11,1 C 92 % 1003,9 hPa 0,0 l/m 11,3 km/h (2 Bft) S-SW 202 0 min 0,0 UV-I 0 W/m 10,3 C 8,7 C 14,5 km/h (3 Bft)
24.05.2022 00:34 11,6 C 11,1 C 92 % 1004,0 hPa 0,0 l/m 9,7 km/h (2 Bft) S-SW 202 0 min 0,0 UV-I 0 W/m 10,3 C 9,5 C 12,9 km/h (3 Bft)
24.05.2022 00:35 11,6 C 11,1 C 92 % 1004,1 hPa 0,0 l/m 11,3 km/h (2 Bft) S-SW 202 0 min 0,0 UV-I 0 W/m 10,3 C 8,7 C 16,1 km/h (3 Bft)
24.05.2022 00:36 11,6 C 11,1 C 91 % 1004,1 hPa 0,0 l/m 11,3 km/h (2 Bft) S-SW 202 0 min 0,0 UV-I 0 W/m 10,2 C 8,7 C 19,3 km/h (3 Bft)
24.05.2022 00:37 11,6 C 11,1 C 92 % 1004,1 hPa 0,0 l/m 9,7 km/h (2 Bft) S-SW 202 0 min 0,0 UV-I 0 W/m 10,3 C 9,5 C 16,1 km/h (3 Bft)
24.05.2022 00:38 11,6 C 11,1 C 92 % 1004,1 hPa 0,0 l/m 8,0 km/h (2 Bft) S 180 0 min 0,0 UV-I 0 W/m 10,3 C 10,5 C 11,3 km/h (2 Bft)
24.05.2022 00:39 11,6 C 11,1 C 91 % 1004,1 hPa 0,0 l/m 12,9 km/h (3 Bft) S-SW 202 0 min 0,0 UV-I 0 W/m 10,2 C 7,9 C 17,7 km/h (3 Bft)
24.05.2022 00:40 11,6 C 11,1 C 92 % 1004,1 hPa 0,0 l/m 9,7 km/h (2 Bft) S 180 0 min 0,0 UV-I 0 W/m 10,3 C 9,5 C 12,9 km/h (3 Bft)
24.05.2022 00:41 11,6 C 11,1 C 91 % 1004,1 hPa 0,0 l/m 11,3 km/h (2 Bft) S 180 0 min 0,0 UV-I 0 W/m 10,2 C 8,7 C 17,7 km/h (3 Bft)
24.05.2022 00:42 11,6 C 11,1 C 91 % 1004,2 hPa 0,0 l/m 12,9 km/h (3 Bft) S 180 0 min 0,0 UV-I 0 W/m 10,2 C 7,9 C 19,3 km/h (3 Bft)
24.05.2022 00:43 11,6 C 11,1 C 92 % 1004,1 hPa 0,0 l/m 9,7 km/h (2 Bft) S 180 0 min 0,0 UV-I 0 W/m 10,3 C 9,5 C 16,1 km/h (3 Bft)
24.05.2022 00:44 11,6 C 11,1 C 91 % 1004,2 hPa 0,0 l/m 12,9 km/h (3 Bft) S-SW 202 0 min 0,0 UV-I 0 W/m 10,2 C 7,9 C 16,1 km/h (3 Bft)
24.05.2022 00:45 11,6 C 11,1 C 91 % 1004,2 hPa 0,0 l/m 11,3 km/h (2 Bft) S-SW 202 0 min 0,0 UV-I 0 W/m 10,2 C 8,7 C 16,1 km/h (3 Bft)
24.05.2022 00:46 11,6 C 11,1 C 91 % 1004,2 hPa 0,0 l/m 11,3 km/h (2 Bft) S 180 0 min 0,0 UV-I 0 W/m 10,2 C 8,7 C 24,1 km/h (4 Bft)
24.05.2022 00:47 11,6 C 11,1 C 91 % 1004,2 hPa 0,0 l/m 14,5 km/h (3 Bft) S 180 0 min 0,0 UV-I 0 W/m 10,2 C 7,3 C 20,9 km/h (4 Bft)
24.05.2022 00:48 11,6 C 11,1 C 91 % 1004,2 hPa 0,0 l/m 8,0 km/h (2 Bft) S 180 0 min 0,0 UV-I 0 W/m 10,2 C 10,5 C 14,5 km/h (3 Bft)
24.05.2022 00:49 11,6 C 11,1 C 91 % 1004,2 hPa 0,0 l/m 11,3 km/h (2 Bft) S-SW 202 0 min 0,0 UV-I 0 W/m 10,2 C 8,7 C 17,7 km/h (3 Bft)
24.05.2022 00:50 11,6 C 11,1 C 91 % 1004,3 hPa 0,0 l/m 6,4 km/h (2 Bft) S-SW 202 0 min 0,0 UV-I 0 W/m 10,2 C 11,6 C 11,3 km/h (2 Bft)
24.05.2022 00:51 11,6 C 11,1 C 91 % 1004,2 hPa 0,0 l/m 9,7 km/h (2 Bft) S-SW 202 0 min 0,0 UV-I 0 W/m 10,2 C 9,5 C 14,5 km/h (3 Bft)
24.05.2022 00:52 11,6 C 11,1 C 91 % 1004,2 hPa 0,0 l/m 9,7 km/h (2 Bft) S 180 0 min 0,0 UV-I 0 W/m 10,2 C 9,5 C 12,9 km/h (3 Bft)
24.05.2022 00:53 11,6 C 11,1 C 91 % 1004,2 hPa 0,0 l/m 11,3 km/h (2 Bft) S-SO 157 0 min 0,0 UV-I 0 W/m 10,2 C 8,7 C 16,1 km/h (3 Bft)
24.05.2022 00:54 11,6 C 11,1 C 91 % 1004,3 hPa 0,0 l/m 12,9 km/h (3 Bft) S-SW 202 0 min 0,0 UV-I 0 W/m 10,2 C 7,9 C 16,1 km/h (3 Bft)
24.05.2022 00:55 11,6 C 11,1 C 91 % 1004,3 hPa 0,0 l/m 9,7 km/h (2 Bft) S 180 0 min 0,0 UV-I 0 W/m 10,2 C 9,5 C 11,3 km/h (2 Bft)
24.05.2022 00:56 11,6 C 11,1 C 91 % 1004,2 hPa 0,0 l/m 8,0 km/h (2 Bft) S 180 0 min 0,0 UV-I 0 W/m 10,2 C 10,5 C 12,9 km/h (3 Bft)
24.05.2022 00:57 11,6 C 11,1 C 91 % 1004,3 hPa 0,0 l/m 9,7 km/h (2 Bft) SW 225 0 min 0,0 UV-I 0 W/m 10,2 C 9,5 C 12,9 km/h (3 Bft)
24.05.2022 00:58 11,7 C 11,1 C 91 % 1004,3 hPa 0,0 l/m 9,7 km/h (2 Bft) S 180 0 min 0,0 UV-I 0 W/m 10,3 C 9,6 C 12,9 km/h (3 Bft)
24.05.2022 00:59 11,6 C 11,1 C 91 % 1004,3 hPa 0,0 l/m 8,0 km/h (2 Bft) S 180 0 min 0,0 UV-I 0 W/m 10,2 C 10,5 C 12,9 km/h (3 Bft)
24.05.2022 01:00 11,7 C 11,1 C 91 % 1004,3 hPa 0,0 l/m 9,7 km/h (2 Bft) S 180 0 min 0,0 UV-I 0 W/m 10,3 C 9,6 C 16,1 km/h (3 Bft)
24.05.2022 01:01 11,6 C 11,1 C 91 % 1004,2 hPa 0,0 l/m 9,7 km/h (2 Bft) S 180 0 min 0,0 UV-I 0 W/m 10,2 C 9,5 C 12,9 km/h (3 Bft)
24.05.2022 01:02 11,7 C 11,1 C 91 % 1004,3 hPa 0,0 l/m 11,3 km/h (2 Bft) S-SW 202 0 min 0,0 UV-I 0 W/m 10,3 C 8,8 C 14,5 km/h (3 Bft)
24.05.2022 01:03 11,6 C 11,1 C 91 % 1004,2 hPa 0,0 l/m 9,7 km/h (2 Bft) S 180 0 min 0,0 UV-I 0 W/m 10,2 C 9,5 C 19,3 km/h (3 Bft)
24.05.2022 01:04 11,7 C 11,1 C 91 % 1004,3 hPa 0,0 l/m 6,4 km/h (2 Bft) S 180 0 min 0,0 UV-I 0 W/m 10,3 C 11,7 C 12,9 km/h (3 Bft)
24.05.2022 01:05 11,7 C 11,1 C 91 % 1004,4 hPa 0,0 l/m 11,3 km/h (2 Bft) S 180 0 min 0,0 UV-I 0 W/m 10,3 C 8,8 C 16,1 km/h (3 Bft)
24.05.2022 01:06 11,6 C 11,1 C 91 % 1004,3 hPa 0,0 l/m 12,9 km/h (3 Bft) S-SW 202 0 min 0,0 UV-I 0 W/m 10,2 C 7,9 C 19,3 km/h (3 Bft)
24.05.2022 01:07 11,7 C 11,1 C 91 % 1004,4 hPa 0,0 l/m 12,9 km/h (3 Bft) S 180 0 min 0,0 UV-I 0 W/m 10,3 C 8,1 C 22,5 km/h (4 Bft)
24.05.2022 01:08 11,7 C 11,1 C 91 % 1004,3 hPa 0,0 l/m 11,3 km/h (2 Bft) S-SW 202 0 min 0,0 UV-I 0 W/m 10,3 C 8,8 C 14,5 km/h (3 Bft)
24.05.2022 01:09 11,7 C 11,1 C 91 % 1004,3 hPa 0,0 l/m 12,9 km/h (3 Bft) S 180 0 min 0,0 UV-I 0 W/m 10,3 C 8,1 C 20,9 km/h (4 Bft)
24.05.2022 01:10 11,6 C 11,1 C 91 % 1004,4 hPa 0,0 l/m 9,7 km/h (2 Bft) S-SW 202 0 min 0,0 UV-I 0 W/m 10,2 C 9,5 C 14,5 km/h (3 Bft)
24.05.2022 01:11 11,7 C 11,1 C 91 % 1004,3 hPa 0,0 l/m 11,3 km/h (2 Bft) S-SW 202 0 min 0,0 UV-I 0 W/m 10,3 C 8,8 C 14,5 km/h (3 Bft)
24.05.2022 01:12 11,6 C 11,1 C 91 % 1004,3 hPa 0,0 l/m 11,3 km/h (2 Bft) S-SW 202 0 min 0,0 UV-I 0 W/m 10,2 C 8,7 C 17,7 km/h (3 Bft)
24.05.2022 01:13 11,6 C 11,1 C 91 % 1004,3 hPa 0,0 l/m 11,3 km/h (2 Bft) S 180 0 min 0,0 UV-I 0 W/m 10,2 C 8,7 C 14,5 km/h (3 Bft)
24.05.2022 01:14 11,7 C 11,1 C 91 % 1004,3 hPa 0,0 l/m 8,0 km/h (2 Bft) S 180 0 min 0,0 UV-I 0 W/m 10,3 C 10,6 C 14,5 km/h (3 Bft)
24.05.2022 01:15 11,6 C 11,1 C 91 % 1004,3 hPa 0,0 l/m 9,7 km/h (2 Bft) S 180 0 min 0,0 UV-I 0 W/m 10,2 C 9,5 C 12,9 km/h (3 Bft)
24.05.2022 01:16 11,6 C 11,1 C 91 % 1004,3 hPa 0,0 l/m 11,3 km/h (2 Bft) S-SW 202 0 min 0,0 UV-I 0 W/m 10,2 C 8,7 C 17,7 km/h (3 Bft)
24.05.2022 01:17 11,7 C 11,1 C 91 % 1004,3 hPa 0,0 l/m 11,3 km/h (2 Bft) S 180 0 min 0,0 UV-I 0 W/m 10,3 C 8,8 C 16,1 km/h (3 Bft)
24.05.2022 01:18 11,6 C 11,1 C 91 % 1004,2 hPa 0,0 l/m 12,9 km/h (3 Bft) S 180 0 min 0,0 UV-I 0 W/m 10,2 C 7,9 C 17,7 km/h (3 Bft)
24.05.2022 01:19 11,7 C 11,1 C 91 % 1004,4 hPa 0,0 l/m 11,3 km/h (2 Bft) S-SO 157 0 min 0,0 UV-I 0 W/m 10,3 C 8,8 C 19,3 km/h (3 Bft)
24.05.2022 01:20 11,7 C 11,1 C 91 % 1004,3 hPa 0,0 l/m 11,3 km/h (2 Bft) S-SW 202 0 min 0,0 UV-I 0 W/m 10,3 C 8,8 C 14,5 km/h (3 Bft)
24.05.2022 01:21 11,7 C 11,1 C 91 % 1004,3 hPa 0,0 l/m 9,7 km/h (2 Bft) S 180 0 min 0,0 UV-I 0 W/m 10,3 C 9,6 C 16,1 km/h (3 Bft)
24.05.2022 01:22 11,7 C 11,1 C 91 % 1004,3 hPa 0,0 l/m 14,5 km/h (3 Bft) S-SW 202 0 min 0,0 UV-I 0 W/m 10,3 C 7,4 C 19,3 km/h (3 Bft)
24.05.2022 01:23 11,7 C 11,1 C 91 % 1004,2 hPa 0,0 l/m 11,3 km/h (2 Bft) S-SW 202 0 min 0,0 UV-I 0 W/m 10,3 C 8,8 C 16,1 km/h (3 Bft)
24.05.2022 01:24 11,7 C 11,1 C 91 % 1004,3 hPa 0,0 l/m 12,9 km/h (3 Bft) S-SW 202 0 min 0,0 UV-I 0 W/m 10,3 C 8,1 C 19,3 km/h (3 Bft)
24.05.2022 01:25 11,7 C 11,1 C 91 % 1004,3 hPa 0,0 l/m 11,3 km/h (2 Bft) S 180 0 min 0,0 UV-I 0 W/m 10,3 C 8,8 C 16,1 km/h (3 Bft)
24.05.2022 01:26 11,7 C 11,1 C 91 % 1004,3 hPa 0,0 l/m 11,3 km/h (2 Bft) S 180 0 min 0,0 UV-I 0 W/m 10,3 C 8,8 C 12,9 km/h (3 Bft)
24.05.2022 01:27 11,7 C 11,1 C 91 % 1004,3 hPa 0,0 l/m 9,7 km/h (2 Bft) S-SW 202 0 min 0,0 UV-I 0 W/m 10,3 C 9,6 C 14,5 km/h (3 Bft)
24.05.2022 01:28 11,7 C 11,1 C 91 % 1004,4 hPa 0,0 l/m 11,3 km/h (2 Bft) S-SW 202 0 min 0,0 UV-I 0 W/m 10,3 C 8,8 C 16,1 km/h (3 Bft)
24.05.2022 01:29 11,7 C 11,1 C 91 % 1004,3 hPa 0,0 l/m 9,7 km/h (2 Bft) S-SW 202 0 min 0,0 UV-I 0 W/m 10,3 C 9,6 C 12,9 km/h (3 Bft)
24.05.2022 01:30 11,7 C 11,1 C 91 % 1004,2 hPa 0,0 l/m 12,9 km/h (3 Bft) S-SW 202 0 min 0,0 UV-I 0 W/m 10,3 C 8,1 C 16,1 km/h (3 Bft)
24.05.2022 01:31 11,7 C 11,1 C 91 % 1004,2 hPa 0,0 l/m 8,0 km/h (2 Bft) SW 225 0 min 0,0 UV-I 0 W/m 10,3 C 10,6 C 12,9 km/h (3 Bft)
24.05.2022 01:32 11,7 C 11,1 C 91 % 1004,2 hPa 0,0 l/m 8,0 km/h (2 Bft) SW 225 0 min 0,0 UV-I 0 W/m 10,3 C 10,6 C 16,1 km/h (3 Bft)
24.05.2022 01:33 11,7 C 11,1 C 91 % 1004,2 hPa 0,0 l/m 9,7 km/h (2 Bft) S-SW 202 0 min 0,0 UV-I 0 W/m 10,3 C 9,6 C 12,9 km/h (3 Bft)
24.05.2022 01:34 11,7 C 11,1 C 91 % 1004,2 hPa 0,0 l/m 8,0 km/h (2 Bft) S-SW 202 0 min 0,0 UV-I 0 W/m 10,3 C 10,6 C 11,3 km/h (2 Bft)
24.05.2022 01:35 11,7 C 11,1 C 91 % 1004,2 hPa 0,0 l/m 9,7 km/h (2 Bft) S-SW 202 0 min 0,0 UV-I 0 W/m 10,3 C 9,6 C 16,1 km/h (3 Bft)
24.05.2022 01:36 11,7 C 11,1 C 91 % 1004,1 hPa 0,0 l/m 9,7 km/h (2 Bft) S-SW 202 0 min 0,0 UV-I 0 W/m 10,3 C 9,6 C 12,9 km/h (3 Bft)
24.05.2022 01:37 11,7 C 10,6 C 91 % 1004,1 hPa 0,0 l/m 9,7 km/h (2 Bft) S-SW 202 0 min 0,0 UV-I 0 W/m 10,3 C 9,6 C 12,9 km/h (3 Bft)
24.05.2022 01:38 11,6 C 10,6 C 91 % 1004,0 hPa 0,0 l/m 11,3 km/h (2 Bft) S 180 0 min 0,0 UV-I 0 W/m 10,2 C 8,7 C 14,5 km/h (3 Bft)
24.05.2022 01:39 11,6 C 10,6 C 91 % 1004,1 hPa 0,0 l/m 6,4 km/h (2 Bft) S-SW 202 0 min 0,0 UV-I 0 W/m 10,2 C 11,6 C 8,0 km/h (2 Bft)
24.05.2022 01:40 11,6 C 10,6 C 91 % 1004,1 hPa 0,0 l/m 11,3 km/h (2 Bft) S 180 0 min 0,0 UV-I 0 W/m 10,2 C 8,7 C 14,5 km/h (3 Bft)
24.05.2022 01:41 11,6 C 10,6 C 91 % 1004,0 hPa 0,0 l/m 8,0 km/h (2 Bft) S-SW 202 0 min 0,0 UV-I 0 W/m 10,2 C 10,5 C 11,3 km/h (2 Bft)
24.05.2022 01:42 11,6 C 10,6 C 91 % 1004,1 hPa 0,0 l/m 6,4 km/h (2 Bft) S-SW 202 0 min 0,0 UV-I 0 W/m 10,2 C 11,6 C 11,3 km/h (2 Bft)
24.05.2022 01:43 11,6 C 10,6 C 91 % 1004,1 hPa 0,0 l/m 8,0 km/h (2 Bft) S 180 0 min 0,0 UV-I 0 W/m 10,2 C 10,5 C 16,1 km/h (3 Bft)
24.05.2022 01:44 11,5 C 10,6 C 91 % 1004,1 hPa 0,0 l/m 12,9 km/h (3 Bft) S-SW 202 0 min 0,0 UV-I 0 W/m 10,1 C 7,8 C 16,1 km/h (3 Bft)
24.05.2022 01:45 11,5 C 10,6 C 91 % 1004,1 hPa 0,0 l/m 9,7 km/h (2 Bft) S 180 0 min 0,0 UV-I 0 W/m 10,1 C 9,4 C 12,9 km/h (3 Bft)
24.05.2022 01:46 11,4 C 10,6 C 91 % 1004,1 hPa 0,0 l/m 9,7 km/h (2 Bft) SW 225 0 min 0,0 UV-I 0 W/m 10,0 C 9,3 C 11,3 km/h (2 Bft)
24.05.2022 01:47 11,4 C 10,6 C 91 % 1003,9 hPa 0,0 l/m 9,7 km/h (2 Bft) S-SW 202 0 min 0,0 UV-I 0 W/m 10,0 C 9,3 C 12,9 km/h (3 Bft)
24.05.2022 01:48 11,4 C 10,6 C 91 % 1004,0 hPa 0,0 l/m 8,0 km/h (2 Bft) S 180 0 min 0,0 UV-I 0 W/m 10,0 C 10,3 C 14,5 km/h (3 Bft)
24.05.2022 01:49 11,4 C 10,6 C 91 % 1004,0 hPa 0,0 l/m 11,3 km/h (2 Bft) S-SW 202 0 min 0,0 UV-I 0 W/m 10,0 C 8,5 C 12,9 km/h (3 Bft)
24.05.2022 01:50 11,4 C 10,6 C 91 % 1004,0 hPa 0,0 l/m 9,7 km/h (2 Bft) S-SW 202 0 min 0,0 UV-I 0 W/m 10,0 C 9,3 C 12,9 km/h (3 Bft)
24.05.2022 01:51 11,4 C 10,6 C 91 % 1003,9 hPa 0,0 l/m 9,7 km/h (2 Bft) S 180 0 min 0,0 UV-I 0 W/m 10,0 C 9,3 C 14,5 km/h (3 Bft)
24.05.2022 01:52 11,4 C 10,6 C 91 % 1004,0 hPa 0,0 l/m 11,3 km/h (2 Bft) S-SW 202 0 min 0,0 UV-I 0 W/m 10,0 C 8,5 C 12,9 km/h (3 Bft)
24.05.2022 01:53 11,4 C 10,6 C 91 % 1004,1 hPa 0,0 l/m 9,7 km/h (2 Bft) S-SW 202 0 min 0,0 UV-I 0 W/m 10,0 C 9,3 C 11,3 km/h (2 Bft)
24.05.2022 01:54 11,4 C 10,6 C 91 % 1004,0 hPa 0,0 l/m 9,7 km/h (2 Bft) S-SW 202 0 min 0,0 UV-I 0 W/m 10,0 C 9,3 C 12,9 km/h (3 Bft)
24.05.2022 01:55 11,4 C 10,6 C 91 % 1004,0 hPa 0,0 l/m 11,3 km/h (2 Bft) S-SW 202 0 min 0,0 UV-I 0 W/m 10,0 C 8,5 C 14,5 km/h (3 Bft)
24.05.2022 01:56 11,4 C 10,6 C 91 % 1004,0 hPa 0,0 l/m 11,3 km/h (2 Bft) S 180 0 min 0,0 UV-I 0 W/m 10,0 C 8,5 C 16,1 km/h (3 Bft)
24.05.2022 01:57 11,4 C 10,6 C 91 % 1004,0 hPa 0,0 l/m 11,3 km/h (2 Bft) S-SW 202 0 min 0,0 UV-I 0 W/m 10,0 C 8,5 C 16,1 km/h (3 Bft)
24.05.2022 01:58 11,4 C 10,6 C 91 % 1004,0 hPa 0,0 l/m 11,3 km/h (2 Bft) S-SW 202 0 min 0,0 UV-I 0 W/m 10,0 C 8,5 C 16,1 km/h (3 Bft)
24.05.2022 01:59 11,4 C 10,6 C 91 % 1003,9 hPa 0,0 l/m 11,3 km/h (2 Bft) S 180 0 min 0,0 UV-I 0 W/m 10,0 C 8,5 C 16,1 km/h (3 Bft)
24.05.2022 02:00 11,4 C 11,1 C 91 % 1004,0 hPa 0,0 l/m 11,3 km/h (2 Bft) S 180 0 min 0,0 UV-I 0 W/m 10,0 C 8,5 C 20,9 km/h (4 Bft)
24.05.2022 02:01 11,4 C 11,1 C 91 % 1004,0 hPa 0,0 l/m 11,3 km/h (2 Bft) S 180 0 min 0,0 UV-I 0 W/m 10,0 C 8,5 C 16,1 km/h (3 Bft)
24.05.2022 02:02 11,4 C 11,1 C 91 % 1003,9 hPa 0,0 l/m 8,0 km/h (2 Bft) S 180 0 min 0,0 UV-I 0 W/m 10,0 C 10,3 C 14,5 km/h (3 Bft)
24.05.2022 02:03 11,4 C 11,1 C 91 % 1003,9 hPa 0,0 l/m 12,9 km/h (3 Bft) S 180 0 min 0,0 UV-I 0 W/m 10,0 C 7,7 C 19,3 km/h (3 Bft)
24.05.2022 02:04 11,4 C 11,1 C 91 % 1003,9 hPa 0,0 l/m 12,9 km/h (3 Bft) S-SW 202 0 min 0,0 UV-I 0 W/m 10,0 C 7,7 C 16,1 km/h (3 Bft)
24.05.2022 02:05 11,4 C 11,1 C 91 % 1003,9 hPa 0,0 l/m 9,7 km/h (2 Bft) S 180 0 min 0,0 UV-I 0 W/m 10,0 C 9,3 C 14,5 km/h (3 Bft)
24.05.2022 02:06 11,5 C 11,1 C 91 % 1003,9 hPa 0,0 l/m 9,7 km/h (2 Bft) S 180 0 min 0,0 UV-I 0 W/m 10,1 C 9,4 C 14,5 km/h (3 Bft)
24.05.2022 02:07 11,4 C 11,1 C 91 % 1003,9 hPa 0,0 l/m 16,1 km/h (3 Bft) S 180 0 min 0,0 UV-I 0 W/m 10,0 C 6,4 C 22,5 km/h (4 Bft)
24.05.2022 02:08 11,5 C 11,1 C 91 % 1003,8 hPa 0,0 l/m 11,3 km/h (2 Bft) S-SW 202 0 min 0,0 UV-I 0 W/m 10,1 C 8,6 C 16,1 km/h (3 Bft)
24.05.2022 02:09 11,5 C 11,1 C 91 % 1003,8 hPa 0,0 l/m 9,7 km/h (2 Bft) S-SW 202 0 min 0,0 UV-I 0 W/m 10,1 C 9,4 C 11,3 km/h (2 Bft)
24.05.2022 02:10 11,5 C 11,1 C 91 % 1003,7 hPa 0,0 l/m 9,7 km/h (2 Bft) S-SW 202 0 min 0,0 UV-I 0 W/m 10,1 C 9,4 C 12,9 km/h (3 Bft)
24.05.2022 02:11 11,5 C 11,1 C 91 % 1003,7 hPa 0,0 l/m 8,0 km/h (2 Bft) S-SW 202 0 min 0,0 UV-I 0 W/m 10,1 C 10,4 C 12,9 km/h (3 Bft)
24.05.2022 02:12 11,5 C 11,1 C 91 % 1003,7 hPa 0,0 l/m 11,3 km/h (2 Bft) S-SW 202 0 min 0,0 UV-I 0 W/m 10,1 C 8,6 C 14,5 km/h (3 Bft)
24.05.2022 02:13 11,5 C 11,1 C 91 % 1003,7 hPa 0,0 l/m 11,3 km/h (2 Bft) S-SW 202 0 min 0,0 UV-I 0 W/m 10,1 C 8,6 C 12,9 km/h (3 Bft)
24.05.2022 02:14 11,5 C 11,1 C 91 % 1003,8 hPa 0,0 l/m 8,0 km/h (2 Bft) S 180 0 min 0,0 UV-I 0 W/m 10,1 C 10,4 C 9,7 km/h (2 Bft)
24.05.2022 02:15 11,5 C 11,1 C 91 % 1003,8 hPa 0,0 l/m 8,0 km/h (2 Bft) S-SW 202 0 min 0,0 UV-I 0 W/m 10,1 C 10,4 C 11,3 km/h (2 Bft)
24.05.2022 02:16 11,5 C 11,1 C 91 % 1003,8 hPa 0,0 l/m 9,7 km/h (2 Bft) S-SW 202 0 min 0,0 UV-I 0 W/m 10,1 C 9,4 C 14,5 km/h (3 Bft)
24.05.2022 02:17 11,5 C 11,1 C 91 % 1003,7 hPa 0,0 l/m 9,7 km/h (2 Bft) SW 225 0 min 0,0 UV-I 0 W/m 10,1 C 9,4 C 14,5 km/h (3 Bft)
24.05.2022 02:18 11,5 C 11,1 C 91 % 1003,8 hPa 0,0 l/m 12,9 km/h (3 Bft) S-SW 202 0 min 0,0 UV-I 0 W/m 10,1 C 7,8 C 16,1 km/h (3 Bft)
24.05.2022 02:19 11,5 C 11,1 C 91 % 1003,8 hPa 0,0 l/m 12,9 km/h (3 Bft) S-SW 202 0 min 0,0 UV-I 0 W/m 10,1 C 7,8 C 17,7 km/h (3 Bft)
24.05.2022 02:20 11,6 C 11,1 C 91 % 1003,8 hPa 0,0 l/m 8,0 km/h (2 Bft) S 180 0 min 0,0 UV-I 0 W/m 10,2 C 10,5 C 12,9 km/h (3 Bft)
24.05.2022 02:21 11,5 C 11,1 C 91 % 1003,7 hPa 0,0 l/m 9,7 km/h (2 Bft) S-SW 202 0 min 0,0 UV-I 0 W/m 10,1 C 9,4 C 12,9 km/h (3 Bft)
24.05.2022 02:22 11,5 C 11,1 C 91 % 1003,7 hPa 0,0 l/m 8,0 km/h (2 Bft) S-SO 157 0 min 0,0 UV-I 0 W/m 10,1 C 10,4 C 11,3 km/h (2 Bft)
24.05.2022 02:23 11,5 C 10,6 C 91 % 1003,6 hPa 0,0 l/m 8,0 km/h (2 Bft) S 180 0 min 0,0 UV-I 0 W/m 10,1 C 10,4 C 9,7 km/h (2 Bft)
24.05.2022 02:24 11,5 C 10,6 C 91 % 1003,7 hPa 0,0 l/m 8,0 km/h (2 Bft) S-SW 202 0 min 0,0 UV-I 0 W/m 10,1 C 10,4 C 9,7 km/h (2 Bft)
24.05.2022 02:25 11,5 C 10,6 C 91 % 1003,7 hPa 0,0 l/m 8,0 km/h (2 Bft) S 180 0 min 0,0 UV-I 0 W/m 10,1 C 10,4 C 11,3 km/h (2 Bft)
24.05.2022 02:26 11,5 C 10,6 C 91 % 1003,7 hPa 0,0 l/m 6,4 km/h (2 Bft) S-SW 202 0 min 0,0 UV-I 0 W/m 10,1 C 11,5 C 11,3 km/h (2 Bft)
24.05.2022 02:27 11,5 C 11,1 C 91 % 1003,6 hPa 0,0 l/m 9,7 km/h (2 Bft) S 180 0 min 0,0 UV-I 0 W/m 10,1 C 9,4 C 12,9 km/h (3 Bft)
24.05.2022 02:28 11,5 C 11,1 C 91 % 1003,6 hPa 0,0 l/m 9,7 km/h (2 Bft) S 180 0 min 0,0 UV-I 0 W/m 10,1 C 9,4 C 16,1 km/h (3 Bft)
24.05.2022 02:29 11,5 C 11,1 C 91 % 1003,7 hPa 0,0 l/m 12,9 km/h (3 Bft) S-SW 202 0 min 0,0 UV-I 0 W/m 10,1 C 7,8 C 16,1 km/h (3 Bft)
24.05.2022 02:30 11,5 C 11,1 C 91 % 1003,7 hPa 0,0 l/m 9,7 km/h (2 Bft) S-SW 202 0 min 0,0 UV-I 0 W/m 10,1 C 9,4 C 20,9 km/h (4 Bft)
24.05.2022 02:31 11,5 C 11,1 C 91 % 1003,7 hPa 0,0 l/m 9,7 km/h (2 Bft) S 180 0 min 0,0 UV-I 0 W/m 10,1 C 9,4 C 14,5 km/h (3 Bft)
24.05.2022 02:32 11,5 C 11,1 C 91 % 1003,7 hPa 0,0 l/m 9,7 km/h (2 Bft) S 180 0 min 0,0 UV-I 0 W/m 10,1 C 9,4 C 16,1 km/h (3 Bft)
24.05.2022 02:33 11,5 C 11,1 C 91 % 1003,6 hPa 0,0 l/m 9,7 km/h (2 Bft) S-SW 202 0 min 0,0 UV-I 0 W/m 10,1 C 9,4 C 14,5 km/h (3 Bft)
24.05.2022 02:34 11,6 C 11,1 C 91 % 1003,6 hPa 0,0 l/m 11,3 km/h (2 Bft) S-SW 202 0 min 0,0 UV-I 0 W/m 10,2 C 8,7 C 16,1 km/h (3 Bft)
24.05.2022 02:35 11,6 C 11,1 C 91 % 1003,5 hPa 0,0 l/m 11,3 km/h (2 Bft) S 180 0 min 0,0 UV-I 0 W/m 10,2 C 8,7 C 12,9 km/h (3 Bft)
24.05.2022 02:36 11,6 C 11,1 C 91 % 1003,6 hPa 0,0 l/m 8,0 km/h (2 Bft) S 180 0 min 0,0 UV-I 0 W/m 10,2 C 10,5 C 9,7 km/h (2 Bft)
24.05.2022 02:37 11,6 C 11,1 C 91 % 1003,6 hPa 0,0 l/m 8,0 km/h (2 Bft) S 180 0 min 0,0 UV-I 0 W/m 10,2 C 10,5 C 17,7 km/h (3 Bft)
24.05.2022 02:38 11,6 C 11,1 C 91 % 1003,6 hPa 0,0 l/m 6,4 km/h (2 Bft) S 180 0 min 0,0 UV-I 0 W/m 10,2 C 11,6 C 11,3 km/h (2 Bft)
24.05.2022 02:39 11,6 C 11,1 C 91 % 1003,6 hPa 0,0 l/m 11,3 km/h (2 Bft) S 180 0 min 0,0 UV-I 0 W/m 10,2 C 8,7 C 16,1 km/h (3 Bft)
24.05.2022 02:40 11,6 C 11,1 C 91 % 1003,6 hPa 0,0 l/m 11,3 km/h (2 Bft) S 180 0 min 0,0 UV-I 0 W/m 10,2 C 8,7 C 14,5 km/h (3 Bft)
24.05.2022 02:41 11,6 C 11,1 C 91 % 1003,6 hPa 0,0 l/m 6,4 km/h (2 Bft) S 180 0 min 0,0 UV-I 0 W/m 10,2 C 11,6 C 9,7 km/h (2 Bft)
24.05.2022 02:42 11,6 C 11,1 C 91 % 1003,6 hPa 0,0 l/m 9,7 km/h (2 Bft) S 180 0 min 0,0 UV-I 0 W/m 10,2 C 9,5 C 16,1 km/h (3 Bft)
24.05.2022 02:43 11,6 C 11,1 C 91 % 1003,6 hPa 0,0 l/m 14,5 km/h (3 Bft) S-SW 202 0 min 0,0 UV-I 0 W/m 10,2 C 7,3 C 20,9 km/h (4 Bft)
24.05.2022 02:44 11,6 C 11,1 C 91 % 1003,6 hPa 0,0 l/m 11,3 km/h (2 Bft) S 180 0 min 0,0 UV-I 0 W/m 10,2 C 8,7 C 16,1 km/h (3 Bft)
24.05.2022 02:45 11,6 C 11,1 C 91 % 1003,6 hPa 0,0 l/m 9,7 km/h (2 Bft) S-SW 202 0 min 0,0 UV-I 0 W/m 10,2 C 9,5 C 12,9 km/h (3 Bft)
24.05.2022 02:46 11,6 C 11,1 C 91 % 1003,6 hPa 0,0 l/m 11,3 km/h (2 Bft) S-SW 202 0 min 0,0 UV-I 0 W/m 10,2 C 8,7 C 22,5 km/h (4 Bft)
24.05.2022 02:47 11,6 C 11,1 C 91 % 1003,6 hPa 0,0 l/m 8,0 km/h (2 Bft) S 180 0 min 0,0 UV-I 0 W/m 10,2 C 10,5 C 11,3 km/h (2 Bft)
24.05.2022 02:48 11,6 C 11,1 C 91 % 1003,6 hPa 0,0 l/m 9,7 km/h (2 Bft) S 180 0 min 0,0 UV-I 0 W/m 10,2 C 9,5 C 17,7 km/h (3 Bft)
24.05.2022 02:49 11,6 C 11,1 C 91 % 1003,6 hPa 0,0 l/m 8,0 km/h (2 Bft) S 180 0 min 0,0 UV-I 0 W/m 10,2 C 10,5 C 12,9 km/h (3 Bft)
24.05.2022 02:50 11,6 C 11,1 C 91 % 1003,7 hPa 0,0 l/m 12,9 km/h (3 Bft) S 180 0 min 0,0 UV-I 0 W/m 10,2 C 7,9 C 16,1 km/h (3 Bft)
24.05.2022 02:51 11,6 C 11,1 C 91 % 1003,6 hPa 0,0 l/m 12,9 km/h (3 Bft) S-SW 202 0 min 0,0 UV-I 0 W/m 10,2 C 7,9 C 16,1 km/h (3 Bft)
24.05.2022 02:52 11,6 C 11,1 C 91 % 1003,5 hPa 0,0 l/m 11,3 km/h (2 Bft) S-SW 202 0 min 0,0 UV-I 0 W/m 10,2 C 8,7 C 14,5 km/h (3 Bft)
24.05.2022 02:53 11,6 C 11,1 C 91 % 1003,6 hPa 0,0 l/m 11,3 km/h (2 Bft) S 180 0 min 0,0 UV-I 0 W/m 10,2 C 8,7 C 19,3 km/h (3 Bft)
24.05.2022 02:54 11,6 C 11,1 C 91 % 1003,6 hPa 0,0 l/m 12,9 km/h (3 Bft) S-SW 202 0 min 0,0 UV-I 0 W/m 10,2 C 7,9 C 19,3 km/h (3 Bft)
24.05.2022 02:55 11,6 C 11,1 C 91 % 1003,6 hPa 0,0 l/m 11,3 km/h (2 Bft) S-SW 202 0 min 0,0 UV-I 0 W/m 10,2 C 8,7 C 17,7 km/h (3 Bft)
24.05.2022 02:56 11,6 C 11,1 C 91 % 1003,6 hPa 0,0 l/m 14,5 km/h (3 Bft) S 180 0 min 0,0 UV-I 0 W/m 10,2 C 7,3 C 19,3 km/h (3 Bft)
24.05.2022 02:57 11,6 C 11,1 C 91 % 1003,5 hPa 0,0 l/m 12,9 km/h (3 Bft) S 180 0 min 0,0 UV-I 0 W/m 10,2 C 7,9 C 17,7 km/h (3 Bft)
24.05.2022 02:58 11,6 C 11,1 C 91 % 1003,5 hPa 0,0 l/m 8,0 km/h (2 Bft) S 180 0 min 0,0 UV-I 0 W/m 10,2 C 10,5 C 12,9 km/h (3 Bft)
24.05.2022 02:59 11,6 C 11,1 C 91 % 1003,5 hPa 0,0 l/m 9,7 km/h (2 Bft) S-SW 202 0 min 0,0 UV-I 0 W/m 10,2 C 9,5 C 14,5 km/h (3 Bft)
24.05.2022 03:00 11,6 C 11,1 C 91 % 1003,5 hPa 0,0 l/m 11,3 km/h (2 Bft) S-SW 202 0 min 0,0 UV-I 0 W/m 10,2 C 8,7 C 14,5 km/h (3 Bft)
24.05.2022 03:01 11,6 C 11,1 C 91 % 1003,5 hPa 0,0 l/m 8,0 km/h (2 Bft) S 180 0 min 0,0 UV-I 0 W/m 10,2 C 10,5 C 12,9 km/h (3 Bft)
24.05.2022 03:02 11,6 C 11,1 C 91 % 1003,5 hPa 0,0 l/m 11,3 km/h (2 Bft) S 180 0 min 0,0 UV-I 0 W/m 10,2 C 8,7 C 14,5 km/h (3 Bft)
24.05.2022 03:03 11,6 C 11,1 C 91 % 1003,6 hPa 0,0 l/m 8,0 km/h (2 Bft) S 180 0 min 0,0 UV-I 0 W/m 10,2 C 10,5 C 12,9 km/h (3 Bft)
24.05.2022 03:04 11,6 C 11,1 C 91 % 1003,6 hPa 0,0 l/m 8,0 km/h (2 Bft) S 180 0 min 0,0 UV-I 0 W/m 10,2 C 10,5 C 11,3 km/h (2 Bft)
24.05.2022 03:05 11,6 C 11,1 C 91 % 1003,6 hPa 0,0 l/m 8,0 km/h (2 Bft) S-SW 202 0 min 0,0 UV-I 0 W/m 10,2 C 10,5 C 14,5 km/h (3 Bft)
24.05.2022 03:06 11,6 C 11,1 C 91 % 1003,6 hPa 0,0 l/m 6,4 km/h (2 Bft) S-SW 202 0 min 0,0 UV-I 0 W/m 10,2 C 11,6 C 9,7 km/h (2 Bft)
24.05.2022 03:07 11,6 C 11,1 C 91 % 1003,6 hPa 0,0 l/m 11,3 km/h (2 Bft) S 180 0 min 0,0 UV-I 0 W/m 10,2 C 8,7 C 16,1 km/h (3 Bft)
24.05.2022 03:08 11,6 C 11,1 C 91 % 1003,6 hPa 0,0 l/m 11,3 km/h (2 Bft) S-SW 202 0 min 0,0 UV-I 0 W/m 10,2 C 8,7 C 14,5 km/h (3 Bft)
24.05.2022 03:09 11,6 C 11,1 C 91 % 1003,6 hPa 0,0 l/m 11,3 km/h (2 Bft) S 180 0 min 0,0 UV-I 0 W/m 10,2 C 8,7 C 20,9 km/h (4 Bft)
24.05.2022 03:10 11,6 C 11,1 C 91 % 1003,6 hPa 0,0 l/m 12,9 km/h (3 Bft) S 180 0 min 0,0 UV-I 0 W/m 10,2 C 7,9 C 17,7 km/h (3 Bft)
24.05.2022 03:11 11,6 C 11,1 C 91 % 1003,6 hPa 0,0 l/m 12,9 km/h (3 Bft) S-SW 202 0 min 0,0 UV-I 0 W/m 10,2 C 7,9 C 16,1 km/h (3 Bft)
24.05.2022 03:12 11,6 C 11,1 C 91 % 1003,7 hPa 0,0 l/m 9,7 km/h (2 Bft) S 180 0 min 0,0 UV-I 0 W/m 10,2 C 9,5 C 12,9 km/h (3 Bft)
24.05.2022 03:13 11,7 C 11,1 C 91 % 1003,6 hPa 0,2 l/m 8,0 km/h (2 Bft) S 180 0 min 0,0 UV-I 0 W/m 10,3 C 10,6 C 11,3 km/h (2 Bft)
24.05.2022 03:14 11,6 C 11,1 C 91 % 1003,7 hPa 0,0 l/m 6,4 km/h (2 Bft) S 180 0 min 0,0 UV-I 0 W/m 10,2 C 11,6 C 9,7 km/h (2 Bft)
24.05.2022 03:15 11,7 C 11,1 C 91 % 1003,7 hPa 0,0 l/m 9,7 km/h (2 Bft) S-SW 202 0 min 0,0 UV-I 0 W/m 10,3 C 9,6 C 14,5 km/h (3 Bft)
24.05.2022 03:16 11,6 C 11,1 C 91 % 1003,5 hPa 0,0 l/m 8,0 km/h (2 Bft) S 180 0 min 0,0 UV-I 0 W/m 10,2 C 10,5 C 16,1 km/h (3 Bft)
24.05.2022 03:17 11,7 C 11,1 C 91 % 1003,5 hPa 0,0 l/m 11,3 km/h (2 Bft) S 180 0 min 0,0 UV-I 0 W/m 10,3 C 8,8 C 16,1 km/h (3 Bft)
24.05.2022 03:18 11,6 C 11,1 C 91 % 1003,5 hPa 0,0 l/m 6,4 km/h (2 Bft) S 180 0 min 0,0 UV-I 0 W/m 10,2 C 11,6 C 11,3 km/h (2 Bft)
24.05.2022 03:19 11,6 C 11,1 C 91 % 1003,6 hPa 0,0 l/m 11,3 km/h (2 Bft) S 180 0 min 0,0 UV-I 0 W/m 10,2 C 8,7 C 20,9 km/h (4 Bft)
24.05.2022 03:20 11,6 C 11,1 C 91 % 1003,6 hPa 0,0 l/m 12,9 km/h (3 Bft) S-SO 157 0 min 0,0 UV-I 0 W/m 10,2 C 7,9 C 19,3 km/h (3 Bft)
24.05.2022 03:21 11,6 C 11,1 C 91 % 1003,5 hPa 0,0 l/m 8,0 km/h (2 Bft) S-SO 157 0 min 0,0 UV-I 0 W/m 10,2 C 10,5 C 11,3 km/h (2 Bft)
24.05.2022 03:22 11,6 C 11,1 C 91 % 1003,7 hPa 0,2 l/m 8,0 km/h (2 Bft) S 180 0 min 0,0 UV-I 0 W/m 10,2 C 10,5 C 11,3 km/h (2 Bft)
24.05.2022 03:23 11,6 C 11,1 C 91 % 1003,7 hPa 0,0 l/m 11,3 km/h (2 Bft) S 180 0 min 0,0 UV-I 0 W/m 10,2 C 8,7 C 20,9 km/h (4 Bft)
24.05.2022 03:24 11,6 C 11,1 C 91 % 1003,6 hPa 0,0 l/m 9,7 km/h (2 Bft) S-SW 202 0 min 0,0 UV-I 0 W/m 10,2 C 9,5 C 12,9 km/h (3 Bft)
24.05.2022 03:25 11,6 C 11,1 C 91 % 1003,6 hPa 0,2 l/m 9,7 km/h (2 Bft) S 180 0 min 0,0 UV-I 0 W/m 10,2 C 9,5 C 14,5 km/h (3 Bft)
24.05.2022 03:26 11,6 C 11,1 C 91 % 1003,6 hPa 0,0 l/m 8,0 km/h (2 Bft) S-SW 202 0 min 0,0 UV-I 0 W/m 10,2 C 10,5 C 11,3 km/h (2 Bft)
24.05.2022 03:27 11,6 C 11,1 C 91 % 1003,6 hPa 0,0 l/m 6,4 km/h (2 Bft) S 180 0 min 0,0 UV-I 0 W/m 10,2 C 11,6 C 9,7 km/h (2 Bft)
24.05.2022 03:28 11,6 C 11,1 C 91 % 1003,5 hPa 0,0 l/m 8,0 km/h (2 Bft) S 180 0 min 0,0 UV-I 0 W/m 10,2 C 10,5 C 11,3 km/h (2 Bft)
24.05.2022 03:29 11,6 C 11,1 C 92 % 1003,5 hPa 0,0 l/m 8,0 km/h (2 Bft) S 180 0 min 0,0 UV-I 0 W/m 10,3 C 10,5 C 9,7 km/h (2 Bft)
24.05.2022 03:30 11,6 C 11,1 C 92 % 1003,5 hPa 0,0 l/m 8,0 km/h (2 Bft) S 180 0 min 0,0 UV-I 0 W/m 10,3 C 10,5 C 12,9 km/h (3 Bft)
24.05.2022 03:31 11,6 C 11,1 C 92 % 1003,6 hPa 0,0 l/m 8,0 km/h (2 Bft) S 180 0 min 0,0 UV-I 0 W/m 10,3 C 10,5 C 12,9 km/h (3 Bft)
24.05.2022 03:32 11,6 C 11,1 C 92 % 1003,6 hPa 0,0 l/m 8,0 km/h (2 Bft) S 180 0 min 0,0 UV-I 0 W/m 10,3 C 10,5 C 11,3 km/h (2 Bft)
24.05.2022 03:33 11,6 C 11,1 C 92 % 1003,6 hPa 0,0 l/m 14,5 km/h (3 Bft) S-SW 202 0 min 0,0 UV-I 0 W/m 10,3 C 7,3 C 17,7 km/h (3 Bft)
24.05.2022 03:34 11,7 C 11,1 C 92 % 1003,6 hPa 0,0 l/m 11,3 km/h (2 Bft) S 180 0 min 0,0 UV-I 0 W/m 10,4 C 8,8 C 17,7 km/h (3 Bft)
24.05.2022 03:35 11,6 C 11,1 C 92 % 1003,5 hPa 0,0 l/m 8,0 km/h (2 Bft) S 180 0 min 0,0 UV-I 0 W/m 10,3 C 10,5 C 17,7 km/h (3 Bft)
24.05.2022 03:36 11,7 C 11,1 C 92 % 1003,5 hPa 0,0 l/m 9,7 km/h (2 Bft) S-SW 202 0 min 0,0 UV-I 0 W/m 10,4 C 9,6 C 16,1 km/h (3 Bft)
24.05.2022 03:37 11,7 C 11,1 C 92 % 1003,6 hPa 0,0 l/m 12,9 km/h (3 Bft) S-SW 202 0 min 0,0 UV-I 0 W/m 10,4 C 8,1 C 16,1 km/h (3 Bft)
24.05.2022 03:38 11,7 C 11,1 C 92 % 1003,5 hPa 0,0 l/m 8,0 km/h (2 Bft) S 180 0 min 0,0 UV-I 0 W/m 10,4 C 10,6 C 11,3 km/h (2 Bft)
24.05.2022 03:39 11,7 C 11,1 C 92 % 1003,6 hPa 0,0 l/m 9,7 km/h (2 Bft) S 180 0 min 0,0 UV-I 0 W/m 10,4 C 9,6 C 12,9 km/h (3 Bft)
24.05.2022 03:40 11,7 C 11,1 C 92 % 1003,6 hPa 0,0 l/m 17,7 km/h (3 Bft) S 180 0 min 0,0 UV-I 0 W/m 10,4 C 6,2 C 20,9 km/h (4 Bft)
24.05.2022 03:41 11,7 C 11,1 C 92 % 1003,5 hPa 0,0 l/m 14,5 km/h (3 Bft) S 180 0 min 0,0 UV-I 0 W/m 10,4 C 7,4 C 22,5 km/h (4 Bft)
24.05.2022 03:42 11,7 C 11,1 C 92 % 1003,5 hPa 0,0 l/m 12,9 km/h (3 Bft) S 180 0 min 0,0 UV-I 0 W/m 10,4 C 8,1 C 19,3 km/h (3 Bft)
24.05.2022 03:43 11,7 C 11,1 C 92 % 1003,5 hPa 0,0 l/m 9,7 km/h (2 Bft) S 180 0 min 0,0 UV-I 0 W/m 10,4 C 9,6 C 16,1 km/h (3 Bft)
24.05.2022 03:44 11,7 C 11,1 C 91 % 1003,5 hPa 0,0 l/m 11,3 km/h (2 Bft) S 180 0 min 0,0 UV-I 0 W/m 10,3 C 8,8 C 16,1 km/h (3 Bft)
24.05.2022 03:45 11,7 C 11,1 C 91 % 1003,5 hPa 0,0 l/m 9,7 km/h (2 Bft) S 180 0 min 0,0 UV-I 0 W/m 10,3 C 9,6 C 14,5 km/h (3 Bft)
24.05.2022 03:46 11,7 C 11,1 C 91 % 1003,6 hPa 0,0 l/m 9,7 km/h (2 Bft) S 180 0 min 0,0 UV-I 0 W/m 10,3 C 9,6 C 16,1 km/h (3 Bft)
24.05.2022 03:47 11,7 C 11,1 C 91 % 1003,5 hPa 0,0 l/m 9,7 km/h (2 Bft) S 180 0 min 0,0 UV-I 0 W/m 10,3 C 9,6 C 16,1 km/h (3 Bft)
24.05.2022 03:48 11,8 C 11,1 C 91 % 1003,5 hPa 0,0 l/m 9,7 km/h (2 Bft) S 180 0 min 0,0 UV-I 0 W/m 10,4 C 9,7 C 14,5 km/h (3 Bft)
24.05.2022 03:49 11,7 C 11,1 C 91 % 1003,6 hPa 0,0 l/m 11,3 km/h (2 Bft) S 180 0 min 0,0 UV-I 0 W/m 10,3 C 8,8 C 14,5 km/h (3 Bft)
24.05.2022 03:50 11,8 C 11,1 C 91 % 1003,4 hPa 0,0 l/m 8,0 km/h (2 Bft) S 180 0 min 0,0 UV-I 0 W/m 10,4 C 10,7 C 11,3 km/h (2 Bft)
24.05.2022 03:51 11,7 C 11,1 C 91 % 1003,5 hPa 0,0 l/m 9,7 km/h (2 Bft) S 180 0 min 0,0 UV-I 0 W/m 10,3 C 9,6 C 17,7 km/h (3 Bft)
24.05.2022 03:52 11,8 C 11,1 C 91 % 1003,5 hPa 0,0 l/m 14,5 km/h (3 Bft) S 180 0 min 0,0 UV-I 0 W/m 10,4 C 7,5 C 17,7 km/h (3 Bft)
24.05.2022 03:53 11,8 C 11,1 C 91 % 1003,4 hPa 0,0 l/m 19,3 km/h (3 Bft) S-SO 157 0 min 0,0 UV-I 0 W/m 10,4 C 5,8 C 27,4 km/h (4 Bft)
24.05.2022 03:54 11,7 C 11,1 C 91 % 1003,4 hPa 0,0 l/m 16,1 km/h (3 Bft) S-SO 157 0 min 0,0 UV-I 0 W/m 10,3 C 6,8 C 25,7 km/h (4 Bft)
24.05.2022 03:55 11,8 C 11,1 C 91 % 1003,4 hPa 0,0 l/m 12,9 km/h (3 Bft) SW 225 0 min 0,0 UV-I 0 W/m 10,4 C 8,2 C 19,3 km/h (3 Bft)
24.05.2022 03:56 11,8 C 11,1 C 91 % 1003,3 hPa 0,0 l/m 14,5 km/h (3 Bft) S 180 0 min 0,0 UV-I 0 W/m 10,4 C 7,5 C 19,3 km/h (3 Bft)
24.05.2022 03:57 11,8 C 11,1 C 91 % 1003,3 hPa 0,0 l/m 8,0 km/h (2 Bft) SW 225 0 min 0,0 UV-I 0 W/m 10,4 C 10,7 C 11,3 km/h (2 Bft)
24.05.2022 03:58 11,8 C 11,1 C 91 % 1003,4 hPa 0,0 l/m 8,0 km/h (2 Bft) S 180 0 min 0,0 UV-I 0 W/m 10,4 C 10,7 C 12,9 km/h (3 Bft)
24.05.2022 03:59 11,8 C 11,1 C 91 % 1003,3 hPa 0,0 l/m 6,4 km/h (2 Bft) S-SW 202 0 min 0,0 UV-I 0 W/m 10,4 C 11,8 C 9,7 km/h (2 Bft)
24.05.2022 04:00 11,8 C 11,1 C 91 % 1003,4 hPa 0,0 l/m 8,0 km/h (2 Bft) S-SW 202 0 min 0,0 UV-I 0 W/m 10,4 C 10,7 C 11,3 km/h (2 Bft)
24.05.2022 04:01 11,8 C 11,1 C 91 % 1003,4 hPa 0,0 l/m 6,4 km/h (2 Bft) S-SW 202 0 min 0,0 UV-I 0 W/m 10,4 C 11,8 C 9,7 km/h (2 Bft)
24.05.2022 04:02 11,8 C 11,1 C 91 % 1003,4 hPa 0,0 l/m 8,0 km/h (2 Bft) S-SW 202 0 min 0,0 UV-I 0 W/m 10,4 C 10,7 C 14,5 km/h (3 Bft)
24.05.2022 04:03 11,8 C 11,1 C 91 % 1003,3 hPa 0,0 l/m 8,0 km/h (2 Bft) SW 225 0 min 0,0 UV-I 0 W/m 10,4 C 10,7 C 11,3 km/h (2 Bft)
24.05.2022 04:04 11,8 C 11,1 C 91 % 1003,3 hPa 0,0 l/m 8,0 km/h (2 Bft) S 180 0 min 0,0 UV-I 0 W/m 10,4 C 10,7 C 9,7 km/h (2 Bft)
24.05.2022 04:05 11,8 C 11,1 C 91 % 1003,4 hPa 0,0 l/m 6,4 km/h (2 Bft) S 180 0 min 0,0 UV-I 0 W/m 10,4 C 11,8 C 11,3 km/h (2 Bft)
24.05.2022 04:06 11,8 C 11,1 C 91 % 1003,4 hPa 0,0 l/m 8,0 km/h (2 Bft) S-SW 202 0 min 0,0 UV-I 0 W/m 10,4 C 10,7 C 11,3 km/h (2 Bft)
24.05.2022 04:07 11,8 C 11,1 C 91 % 1003,3 hPa 0,0 l/m 8,0 km/h (2 Bft) S 180 0 min 0,0 UV-I 0 W/m 10,4 C 10,7 C 14,5 km/h (3 Bft)
24.05.2022 04:08 11,8 C 11,1 C 91 % 1003,4 hPa 0,0 l/m 11,3 km/h (2 Bft) SW 225 0 min 0,0 UV-I 0 W/m 10,4 C 8,9 C 16,1 km/h (3 Bft)
24.05.2022 04:09 11,8 C 11,1 C 91 % 1003,4 hPa 0,0 l/m 12,9 km/h (3 Bft) SW 225 0 min 0,0 UV-I 0 W/m 10,4 C 8,2 C 25,7 km/h (4 Bft)
24.05.2022 04:10 11,8 C 11,1 C 91 % 1003,4 hPa 0,0 l/m 11,3 km/h (2 Bft) SW 225 0 min 0,0 UV-I 0 W/m 10,4 C 8,9 C 20,9 km/h (4 Bft)
24.05.2022 04:11 11,7 C 11,1 C 91 % 1003,4 hPa 0,2 l/m 9,7 km/h (2 Bft) SW 225 0 min 0,0 UV-I 0 W/m 10,3 C 9,6 C 12,9 km/h (3 Bft)
24.05.2022 04:12 11,6 C 10,6 C 91 % 1003,4 hPa 0,0 l/m 9,7 km/h (2 Bft) S-SW 202 0 min 0,0 UV-I 0 W/m 10,2 C 9,5 C 12,9 km/h (3 Bft)
24.05.2022 04:13 11,5 C 10,6 C 91 % 1003,4 hPa 0,0 l/m 8,0 km/h (2 Bft) SW 225 0 min 0,0 UV-I 0 W/m 10,1 C 10,4 C 12,9 km/h (3 Bft)
24.05.2022 04:14 11,4 C 10,6 C 91 % 1003,4 hPa 0,0 l/m 6,4 km/h (2 Bft) SW 225 0 min 0,0 UV-I 0 W/m 10,0 C 11,4 C 9,7 km/h (2 Bft)
24.05.2022 04:15 11,3 C 10,6 C 91 % 1003,4 hPa 0,0 l/m 9,7 km/h (2 Bft) SW 225 0 min 0,0 UV-I 0 W/m 9,9 C 9,2 C 14,5 km/h (3 Bft)
24.05.2022 04:16 11,3 C 10,6 C 91 % 1003,4 hPa 0,0 l/m 8,0 km/h (2 Bft) W-SW 247 0 min 0,0 UV-I 0 W/m 9,9 C 10,2 C 9,7 km/h (2 Bft)
24.05.2022 04:17 11,3 C 10,6 C 91 % 1003,4 hPa 0,0 l/m 4,8 km/h (1 Bft) W-SW 247 0 min 0,0 UV-I 0 W/m 9,9 C 11,3 C 12,9 km/h (3 Bft)
24.05.2022 04:18 11,2 C 10,6 C 91 % 1003,3 hPa 0,0 l/m 8,0 km/h (2 Bft) SW 225 0 min 0,0 UV-I 0 W/m 9,8 C 10,1 C 14,5 km/h (3 Bft)
24.05.2022 04:19 11,2 C 10,6 C 91 % 1003,3 hPa 0,0 l/m 9,7 km/h (2 Bft) SW 225 0 min 0,0 UV-I 0 W/m 9,8 C 9,1 C 12,9 km/h (3 Bft)
24.05.2022 04:20 11,2 C 10,6 C 91 % 1003,4 hPa 0,0 l/m 6,4 km/h (2 Bft) SW 225 0 min 0,0 UV-I 0 W/m 9,8 C 11,2 C 9,7 km/h (2 Bft)
24.05.2022 04:21 11,2 C 10,6 C 91 % 1003,4 hPa 0,0 l/m 6,4 km/h (2 Bft) SW 225 0 min 0,0 UV-I 0 W/m 9,8 C 11,2 C 12,9 km/h (3 Bft)
24.05.2022 04:22 11,1 C 10,6 C 91 % 1003,3 hPa 0,0 l/m 8,0 km/h (2 Bft) W-SW 247 0 min 0,0 UV-I 0 W/m 9,7 C 10,0 C 14,5 km/h (3 Bft)
24.05.2022 04:23 11,1 C 10,6 C 91 % 1003,3 hPa 0,0 l/m 8,0 km/h (2 Bft) SW 225 0 min 0,0 UV-I 0 W/m 9,7 C 10,0 C 12,9 km/h (3 Bft)
24.05.2022 04:24 11,1 C 10,6 C 91 % 1003,2 hPa 0,0 l/m 6,4 km/h (2 Bft) W-SW 247 0 min 0,0 UV-I 0 W/m 9,7 C 11,1 C 8,0 km/h (2 Bft)
24.05.2022 04:25 11,0 C 10,0 C 91 % 1003,3 hPa 0,0 l/m 6,4 km/h (2 Bft) SW 225 0 min 0,0 UV-I 0 W/m 9,6 C 11,0 C 12,9 km/h (3 Bft)
24.05.2022 04:26 10,9 C 10,0 C 91 % 1003,3 hPa 0,0 l/m 9,7 km/h (2 Bft) W-SW 247 0 min 0,0 UV-I 0 W/m 9,5 C 8,8 C 17,7 km/h (3 Bft)
24.05.2022 04:27 10,9 C 10,0 C 91 % 1003,2 hPa 0,0 l/m 11,3 km/h (2 Bft) SW 225 0 min 0,0 UV-I 0 W/m 9,5 C 7,9 C 16,1 km/h (3 Bft)
24.05.2022 04:28 10,8 C 10,0 C 91 % 1003,2 hPa 0,0 l/m 11,3 km/h (2 Bft) W-SW 247 0 min 0,0 UV-I 0 W/m 9,4 C 7,8 C 16,1 km/h (3 Bft)
24.05.2022 04:29 10,8 C 10,0 C 91 % 1003,2 hPa 0,0 l/m 8,0 km/h (2 Bft) W-SW 247 0 min 0,0 UV-I 0 W/m 9,4 C 9,7 C 12,9 km/h (3 Bft)
24.05.2022 04:30 10,8 C 10,0 C 91 % 1003,3 hPa 0,0 l/m 11,3 km/h (2 Bft) SW 225 0 min 0,0 UV-I 0 W/m 9,4 C 7,8 C 16,1 km/h (3 Bft)
24.05.2022 04:31 10,7 C 10,0 C 91 % 1003,3 hPa 0,0 l/m 9,7 km/h (2 Bft) W-SW 247 0 min 0,0 UV-I 0 W/m 9,3 C 8,5 C 16,1 km/h (3 Bft)
24.05.2022 04:32 10,7 C 10,0 C 91 % 1003,3 hPa 0,0 l/m 8,0 km/h (2 Bft) W-SW 247 0 min 0,0 UV-I 0 W/m 9,3 C 9,6 C 12,9 km/h (3 Bft)
24.05.2022 04:33 10,7 C 10,0 C 91 % 1003,3 hPa 0,0 l/m 8,0 km/h (2 Bft) W-SW 247 0 min 0,0 UV-I 0 W/m 9,3 C 9,6 C 14,5 km/h (3 Bft)
24.05.2022 04:34 10,7 C 10,0 C 91 % 1003,3 hPa 0,0 l/m 6,4 km/h (2 Bft) W-SW 247 0 min 0,0 UV-I 0 W/m 9,3 C 10,7 C 9,7 km/h (2 Bft)
24.05.2022 04:35 10,6 C 10,0 C 91 % 1003,3 hPa 0,0 l/m 11,3 km/h (2 Bft) W-SW 247 0 min 0,0 UV-I 0 W/m 9,2 C 7,6 C 17,7 km/h (3 Bft)
24.05.2022 04:36 10,6 C 10,0 C 91 % 1003,1 hPa 0,0 l/m 9,7 km/h (2 Bft) W 270 0 min 0,0 UV-I 0 W/m 9,2 C 8,4 C 14,5 km/h (3 Bft)
24.05.2022 04:37 10,5 C 9,4 C 90 % 1003,1 hPa 0,0 l/m 4,8 km/h (1 Bft) W-SW 247 0 min 0,0 UV-I 0 W/m 8,9 C 10,5 C 6,4 km/h (2 Bft)
24.05.2022 04:38 10,4 C 9,4 C 91 % 1003,2 hPa 0,0 l/m 6,4 km/h (2 Bft) SW 225 0 min 0,0 UV-I 0 W/m 9,0 C 10,4 C 9,7 km/h (2 Bft)
24.05.2022 04:39 10,4 C 9,4 C 91 % 1003,2 hPa 0,0 l/m 4,8 km/h (1 Bft) SW 225 0 min 0,0 UV-I 0 W/m 9,0 C 10,4 C 6,4 km/h (2 Bft)
24.05.2022 04:40 10,4 C 9,4 C 91 % 1003,3 hPa 0,0 l/m 4,8 km/h (1 Bft) SW 225 0 min 0,0 UV-I 0 W/m 9,0 C 10,4 C 9,7 km/h (2 Bft)
24.05.2022 04:41 10,4 C 9,4 C 91 % 1003,3 hPa 0,0 l/m 6,4 km/h (2 Bft) W-SW 247 0 min 0,0 UV-I 0 W/m 9,0 C 10,4 C 11,3 km/h (2 Bft)
24.05.2022 04:42 10,4 C 9,4 C 91 % 1003,3 hPa 0,0 l/m 8,0 km/h (2 Bft) W 270 0 min 0,0 UV-I 0 W/m 9,0 C 9,3 C 12,9 km/h (3 Bft)
24.05.2022 04:43 10,3 C 9,4 C 91 % 1003,4 hPa 0,0 l/m 6,4 km/h (2 Bft) S-SW 202 0 min 0,0 UV-I 0 W/m 8,9 C 10,3 C 12,9 km/h (3 Bft)
24.05.2022 04:44 10,3 C 9,4 C 91 % 1003,3 hPa 0,0 l/m 6,4 km/h (2 Bft) W 270 0 min 0,0 UV-I 0 W/m 8,9 C 10,3 C 11,3 km/h (2 Bft)
24.05.2022 04:45 10,3 C 9,4 C 91 % 1003,3 hPa 0,0 l/m 6,4 km/h (2 Bft) SW 225 0 min 0,0 UV-I 0 W/m 8,9 C 10,3 C 11,3 km/h (2 Bft)
24.05.2022 04:46 10,2 C 9,4 C 91 % 1003,4 hPa 0,0 l/m 4,8 km/h (1 Bft) W-SW 247 0 min 0,0 UV-I 0 W/m 8,8 C 10,2 C 11,3 km/h (2 Bft)
24.05.2022 04:47 10,2 C 9,4 C 91 % 1003,4 hPa 0,0 l/m 8,0 km/h (2 Bft) SW 225 0 min 0,0 UV-I 0 W/m 8,8 C 9,1 C 14,5 km/h (3 Bft)
24.05.2022 04:48 10,2 C 9,4 C 90 % 1003,4 hPa 0,0 l/m 4,8 km/h (1 Bft) W-SW 247 0 min 0,0 UV-I 0 W/m 8,6 C 10,2 C 8,0 km/h (2 Bft)
24.05.2022 04:49 10,2 C 9,4 C 90 % 1003,4 hPa 0,0 l/m 6,4 km/h (2 Bft) SW 225 0 min 0,0 UV-I 0 W/m 8,6 C 10,2 C 11,3 km/h (2 Bft)
24.05.2022 04:50 10,2 C 9,4 C 90 % 1003,4 hPa 0,0 l/m 8,0 km/h (2 Bft) SW 225 0 min 0,0 UV-I 0 W/m 8,6 C 9,1 C 14,5 km/h (3 Bft)
24.05.2022 04:51 10,1 C 9,4 C 90 % 1003,3 hPa 0,0 l/m 6,4 km/h (2 Bft) W-SW 247 0 min 0,0 UV-I 0 W/m 8,5 C 10,1 C 11,3 km/h (2 Bft)
24.05.2022 04:52 10,1 C 9,4 C 90 % 1003,2 hPa 0,0 l/m 8,0 km/h (2 Bft) SW 225 0 min 0,0 UV-I 0 W/m 8,5 C 9,0 C 11,3 km/h (2 Bft)
24.05.2022 04:53 10,1 C 9,4 C 90 % 1003,2 hPa 0,0 l/m 8,0 km/h (2 Bft) SW 225 0 min 0,0 UV-I 0 W/m 8,5 C 9,0 C 14,5 km/h (3 Bft)
24.05.2022 04:54 10,1 C 9,4 C 90 % 1003,2 hPa 0,0 l/m 8,0 km/h (2 Bft) W-SW 247 0 min 0,0 UV-I 0 W/m 8,5 C 9,0 C 14,5 km/h (3 Bft)
24.05.2022 04:55 10,1 C 9,4 C 90 % 1003,3 hPa 0,0 l/m 6,4 km/h (2 Bft) W-NW 292 0 min 0,0 UV-I 0 W/m 8,5 C 10,1 C 11,3 km/h (2 Bft)
24.05.2022 04:56 10,1 C 9,4 C 90 % 1003,3 hPa 0,0 l/m 4,8 km/h (1 Bft) W 270 0 min 0,0 UV-I 0 W/m 8,5 C 10,1 C 9,7 km/h (2 Bft)
24.05.2022 04:57 10,1 C 9,4 C 90 % 1003,3 hPa 0,0 l/m 6,4 km/h (2 Bft) W-SW 247 0 min 0,0 UV-I 0 W/m 8,5 C 10,1 C 9,7 km/h (2 Bft)
24.05.2022 04:58 10,1 C 8,9 C 90 % 1003,3 hPa 0,0 l/m 4,8 km/h (1 Bft) SW 225 0 min 0,0 UV-I 0 W/m 8,5 C 10,1 C 6,4 km/h (2 Bft)
24.05.2022 04:59 10,0 C 9,4 C 90 % 1003,3 hPa 0,0 l/m 3,2 km/h (1 Bft) SW 225 0 min 0,0 UV-I 0 W/m 8,4 C 10,0 C 4,8 km/h (1 Bft)
24.05.2022 05:00 10,1 C 9,4 C 90 % 1003,2 hPa 0,0 l/m 3,2 km/h (1 Bft) SW 225 0 min 0,0 UV-I 0 W/m 8,5 C 10,1 C 6,4 km/h (2 Bft)
24.05.2022 05:01 10,1 C 9,4 C 90 % 1003,3 hPa 0,0 l/m 4,8 km/h (1 Bft) SW 225 0 min 0,0 UV-I 0 W/m 8,5 C 10,1 C 6,4 km/h (2 Bft)
24.05.2022 05:02 10,1 C 9,4 C 90 % 1003,3 hPa 0,0 l/m 3,2 km/h (1 Bft) SW 225 0 min 0,0 UV-I 0 W/m 8,5 C 10,1 C 4,8 km/h (1 Bft)
24.05.2022 05:03 10,1 C 9,4 C 90 % 1003,3 hPa 0,0 l/m 4,8 km/h (1 Bft) S 180 0 min 0,0 UV-I 0 W/m 8,5 C 10,1 C 8,0 km/h (2 Bft)
24.05.2022 05:04 10,1 C 9,4 C 90 % 1003,3 hPa 0,0 l/m 4,8 km/h (1 Bft) S-SW 202 0 min 0,0 UV-I 0 W/m 8,5 C 10,1 C 8,0 km/h (2 Bft)
24.05.2022 05:05 9,9 C 9,4 C 90 % 1003,2 hPa 0,0 l/m 6,4 km/h (2 Bft) S-SW 202 0 min 0,0 UV-I 0 W/m 8,3 C 9,9 C 8,0 km/h (2 Bft)
24.05.2022 05:06 9,9 C 9,4 C 90 % 1003,2 hPa 0,0 l/m 4,8 km/h (1 Bft) S-SW 202 0 min 0,0 UV-I 0 W/m 8,3 C 9,9 C 8,0 km/h (2 Bft)
24.05.2022 05:07 9,9 C 9,4 C 90 % 1003,3 hPa 0,0 l/m 6,4 km/h (2 Bft) SW 225 0 min 0,0 UV-I 0 W/m 8,3 C 9,9 C 11,3 km/h (2 Bft)
24.05.2022 05:08 9,9 C 9,4 C 90 % 1003,3 hPa 0,0 l/m 3,2 km/h (1 Bft) SW 225 0 min 0,0 UV-I 0 W/m 8,3 C 9,9 C 4,8 km/h (1 Bft)
24.05.2022 05:09 9,9 C 9,4 C 90 % 1003,3 hPa 0,0 l/m 4,8 km/h (1 Bft) SW 225 0 min 0,0 UV-I 0 W/m 8,3 C 9,9 C 8,0 km/h (2 Bft)
24.05.2022 05:10 9,9 C 9,4 C 90 % 1003,2 hPa 0,0 l/m 4,8 km/h (1 Bft) SW 225 0 min 0,0 UV-I 0 W/m 8,3 C 9,9 C 6,4 km/h (2 Bft)
24.05.2022 05:11 9,9 C 8,9 C 90 % 1003,3 hPa 0,2 l/m 4,8 km/h (1 Bft) SW 225 0 min 0,0 UV-I 0 W/m 8,3 C 9,9 C 8,0 km/h (2 Bft)
24.05.2022 05:12 9,9 C 8,9 C 90 % 1003,3 hPa 0,0 l/m 6,4 km/h (2 Bft) S-SW 202 0 min 0,0 UV-I 0 W/m 8,3 C 9,9 C 8,0 km/h (2 Bft)
24.05.2022 05:13 9,9 C 8,9 C 90 % 1003,3 hPa 0,0 l/m 4,8 km/h (1 Bft) SW 225 0 min 0,0 UV-I 0 W/m 8,3 C 9,9 C 6,4 km/h (2 Bft)
24.05.2022 05:14 9,9 C 8,9 C 90 % 1003,3 hPa 0,0 l/m 6,4 km/h (2 Bft) S-SW 202 0 min 0,0 UV-I 0 W/m 8,3 C 9,9 C 8,0 km/h (2 Bft)
24.05.2022 05:15 9,8 C 8,9 C 90 % 1003,3 hPa 0,0 l/m 4,8 km/h (1 Bft) SW 225 0 min 0,0 UV-I 0 W/m 8,2 C 9,8 C 8,0 km/h (2 Bft)
24.05.2022 05:16 9,9 C 8,9 C 91 % 1003,3 hPa 0,0 l/m 6,4 km/h (2 Bft) SW 225 0 min 0,0 UV-I 0 W/m 8,5 C 9,9 C 9,7 km/h (2 Bft)
24.05.2022 05:17 9,9 C 8,9 C 91 % 1003,4 hPa 0,0 l/m 3,2 km/h (1 Bft) SW 225 0 min 0,0 UV-I 0 W/m 8,5 C 9,9 C 6,4 km/h (2 Bft)
24.05.2022 05:18 9,8 C 8,9 C 91 % 1003,3 hPa 0,0 l/m 4,8 km/h (1 Bft) SW 225 0 min 0,0 UV-I 0 W/m 8,4 C 9,8 C 6,4 km/h (2 Bft)
24.05.2022 05:19 9,8 C 8,9 C 91 % 1003,4 hPa 0,0 l/m 4,8 km/h (1 Bft) SW 225 0 min 0,0 UV-I 0 W/m 8,4 C 9,8 C 6,4 km/h (2 Bft)
24.05.2022 05:20 9,9 C 9,4 C 91 % 1003,5 hPa 0,0 l/m 3,2 km/h (1 Bft) W-SW 247 0 min 0,0 UV-I 0 W/m 8,5 C 9,9 C 6,4 km/h (2 Bft)
24.05.2022 05:21 9,9 C 9,4 C 91 % 1003,5 hPa 0,0 l/m 4,8 km/h (1 Bft) W-SW 247 0 min 0,0 UV-I 0 W/m 8,5 C 9,9 C 8,0 km/h (2 Bft)
24.05.2022 05:22 9,9 C 8,9 C 91 % 1003,5 hPa 0,0 l/m 4,8 km/h (1 Bft) S-SW 202 0 min 0,0 UV-I 0 W/m 8,5 C 9,9 C 9,7 km/h (2 Bft)
24.05.2022 05:23 9,9 C 8,9 C 90 % 1003,6 hPa 0,0 l/m 6,4 km/h (2 Bft) S-SW 202 0 min 0,0 UV-I 0 W/m 8,3 C 9,9 C 9,7 km/h (2 Bft)
24.05.2022 05:24 9,9 C 9,4 C 91 % 1003,6 hPa 0,0 l/m 4,8 km/h (1 Bft) SW 225 0 min 0,0 UV-I 0 W/m 8,5 C 9,9 C 6,4 km/h (2 Bft)
24.05.2022 05:25 9,9 C 8,9 C 91 % 1003,5 hPa 0,0 l/m 4,8 km/h (1 Bft) SW 225 0 min 0,0 UV-I 0 W/m 8,5 C 9,9 C 8,0 km/h (2 Bft)
24.05.2022 05:26 9,9 C 8,9 C 91 % 1003,5 hPa 0,0 l/m 3,2 km/h (1 Bft) W-SW 247 0 min 0,0 UV-I 0 W/m 8,5 C 9,9 C 6,4 km/h (2 Bft)
24.05.2022 05:27 9,9 C 8,9 C 91 % 1003,5 hPa 0,0 l/m 3,2 km/h (1 Bft) W-SW 247 0 min 0,0 UV-I 0 W/m 8,5 C 9,9 C 4,8 km/h (1 Bft)
24.05.2022 05:28 9,9 C 9,4 C 91 % 1003,6 hPa 0,0 l/m 4,8 km/h (1 Bft) W-SW 247 0 min 0,0 UV-I 0 W/m 8,5 C 9,9 C 9,7 km/h (2 Bft)
24.05.2022 05:29 9,8 C 9,4 C 91 % 1003,5 hPa 0,0 l/m 4,8 km/h (1 Bft) W-SW 247 0 min 0,0 UV-I 0 W/m 8,4 C 9,8 C 8,0 km/h (2 Bft)
24.05.2022 05:30 9,8 C 9,4 C 91 % 1003,6 hPa 0,0 l/m 8,0 km/h (2 Bft) SW 225 0 min 0,0 UV-I 0 W/m 8,4 C 8,6 C 16,1 km/h (3 Bft)
24.05.2022 05:31 9,8 C 9,4 C 91 % 1003,6 hPa 0,0 l/m 4,8 km/h (1 Bft) SW 225 0 min 0,0 UV-I 0 W/m 8,4 C 9,8 C 9,7 km/h (2 Bft)
24.05.2022 05:32 9,8 C 8,9 C 91 % 1003,6 hPa 0,0 l/m 8,0 km/h (2 Bft) W-SW 247 0 min 0,0 UV-I 0 W/m 8,4 C 8,6 C 14,5 km/h (3 Bft)
24.05.2022 05:33 9,8 C 8,9 C 91 % 1003,6 hPa 0,0 l/m 6,4 km/h (2 Bft) S-SW 202 0 min 0,0 UV-I 0 W/m 8,4 C 9,8 C 8,0 km/h (2 Bft)
24.05.2022 05:34 9,8 C 9,4 C 91 % 1003,6 hPa 0,0 l/m 4,8 km/h (1 Bft) S-SW 202 0 min 0,0 UV-I 0 W/m 8,4 C 9,8 C 8,0 km/h (2 Bft)
24.05.2022 05:35 9,8 C 9,4 C 91 % 1003,7 hPa 0,0 l/m 6,4 km/h (2 Bft) SW 225 0 min 0,0 UV-I 0 W/m 8,4 C 9,8 C 11,3 km/h (2 Bft)
24.05.2022 05:36 9,8 C 9,4 C 91 % 1003,8 hPa 0,2 l/m 8,0 km/h (2 Bft) SW 225 0 min 0,0 UV-I 0 W/m 8,4 C 8,6 C 12,9 km/h (3 Bft)
24.05.2022 05:37 9,8 C 9,4 C 91 % 1003,8 hPa 0,0 l/m 6,4 km/h (2 Bft) SW 225 0 min 0,0 UV-I 0 W/m 8,4 C 9,8 C 11,3 km/h (2 Bft)
24.05.2022 05:38 9,8 C 9,4 C 91 % 1003,8 hPa 0,0 l/m 6,4 km/h (2 Bft) W-SW 247 0 min 0,0 UV-I 0 W/m 8,4 C 9,8 C 11,3 km/h (2 Bft)
24.05.2022 05:39 9,8 C 9,4 C 91 % 1003,8 hPa 0,0 l/m 6,4 km/h (2 Bft) SW 225 0 min 0,0 UV-I 0 W/m 8,4 C 9,8 C 11,3 km/h (2 Bft)
24.05.2022 05:40 9,8 C 8,9 C 91 % 1003,9 hPa 0,0 l/m 6,4 km/h (2 Bft) S-SW 202 0 min 0,0 UV-I 0 W/m 8,4 C 9,8 C 12,9 km/h (3 Bft)
24.05.2022 05:41 9,8 C 8,9 C 91 % 1003,9 hPa 0,0 l/m 6,4 km/h (2 Bft) SW 225 0 min 0,0 UV-I 0 W/m 8,4 C 9,8 C 11,3 km/h (2 Bft)
24.05.2022 05:42 9,8 C 9,4 C 91 % 1003,9 hPa 0,2 l/m 4,8 km/h (1 Bft) SW 225 0 min 0,0 UV-I 0 W/m 8,4 C 9,8 C 6,4 km/h (2 Bft)
24.05.2022 05:43 9,8 C 8,9 C 91 % 1003,9 hPa 0,0 l/m 6,4 km/h (2 Bft) S-SW 202 0 min 0,0 UV-I 0 W/m 8,4 C 9,8 C 14,5 km/h (3 Bft)
24.05.2022 05:44 9,8 C 8,9 C 91 % 1003,9 hPa 0,0 l/m 9,7 km/h (2 Bft) SW 225 0 min 0,0 UV-I 0 W/m 8,4 C 7,6 C 12,9 km/h (3 Bft)
24.05.2022 05:45 9,8 C 8,9 C 91 % 1003,9 hPa 0,0 l/m 9,7 km/h (2 Bft) SW 225 0 min 0,0 UV-I 0 W/m 8,4 C 7,6 C 16,1 km/h (3 Bft)
24.05.2022 05:46 9,8 C 8,9 C 91 % 1004,0 hPa 0,0 l/m 8,0 km/h (2 Bft) W-SW 247 0 min 0,0 UV-I 0 W/m 8,4 C 8,6 C 17,7 km/h (3 Bft)
24.05.2022 05:47 9,7 C 8,9 C 91 % 1003,9 hPa 0,2 l/m 9,7 km/h (2 Bft) S-SW 202 0 min 0,0 UV-I 0 W/m 8,3 C 7,4 C 16,1 km/h (3 Bft)
24.05.2022 05:48 9,7 C 8,9 C 91 % 1003,9 hPa 0,0 l/m 11,3 km/h (2 Bft) SW 225 0 min 0,0 UV-I 0 W/m 8,3 C 6,5 C 14,5 km/h (3 Bft)
24.05.2022 05:49 9,7 C 8,9 C 91 % 1004,0 hPa 0,0 l/m 4,8 km/h (1 Bft) SW 225 0 min 0,0 UV-I 0 W/m 8,3 C 9,7 C 9,7 km/h (2 Bft)
24.05.2022 05:50 9,7 C 8,9 C 91 % 1003,9 hPa 0,0 l/m 6,4 km/h (2 Bft) SW 225 0 min 0,0 UV-I 0 W/m 8,3 C 9,7 C 11,3 km/h (2 Bft)
24.05.2022 05:51 9,7 C 8,9 C 91 % 1003,9 hPa 0,0 l/m 8,0 km/h (2 Bft) S 180 0 min 0,0 UV-I 0 W/m 8,3 C 8,5 C 11,3 km/h (2 Bft)
24.05.2022 05:52 9,7 C 8,9 C 91 % 1003,9 hPa 0,0 l/m 9,7 km/h (2 Bft) S-SW 202 0 min 0,0 UV-I 0 W/m 8,3 C 7,4 C 14,5 km/h (3 Bft)
24.05.2022 05:53 9,7 C 8,9 C 91 % 1004,0 hPa 0,2 l/m 8,0 km/h (2 Bft) S-SW 202 0 min 0,0 UV-I 0 W/m 8,3 C 8,5 C 12,9 km/h (3 Bft)
24.05.2022 05:54 9,7 C 8,9 C 91 % 1003,9 hPa 0,0 l/m 8,0 km/h (2 Bft) SW 225 0 min 0,0 UV-I 0 W/m 8,3 C 8,5 C 12,9 km/h (3 Bft)
24.05.2022 05:55 9,7 C 8,9 C 91 % 1004,0 hPa 0,0 l/m 9,7 km/h (2 Bft) SW 225 0 min 0,0 UV-I 0 W/m 8,3 C 7,4 C 11,3 km/h (2 Bft)
24.05.2022 05:56 9,7 C 8,9 C 92 % 1004,0 hPa 0,0 l/m 9,7 km/h (2 Bft) S-SW 202 0 min 0,0 UV-I 0 W/m 8,5 C 7,4 C 12,9 km/h (3 Bft)
24.05.2022 05:57 9,7 C 8,9 C 91 % 1004,0 hPa 0,2 l/m 9,7 km/h (2 Bft) S-SW 202 0 min 0,0 UV-I 0 W/m 8,3 C 7,4 C 12,9 km/h (3 Bft)
24.05.2022 05:58 9,7 C 8,9 C 91 % 1004,0 hPa 0,0 l/m 8,0 km/h (2 Bft) SW 225 0 min 0,0 UV-I 0 W/m 8,3 C 8,5 C 11,3 km/h (2 Bft)
24.05.2022 05:59 9,7 C 8,9 C 91 % 1004,0 hPa 0,0 l/m 9,7 km/h (2 Bft) S-SW 202 0 min 0,0 UV-I 0 W/m 8,3 C 7,4 C 12,9 km/h (3 Bft)
24.05.2022 06:00 9,7 C 8,9 C 91 % 1004,0 hPa 0,0 l/m 9,7 km/h (2 Bft) S-SW 202 0 min 0,0 UV-I 0 W/m 8,3 C 7,4 C 12,9 km/h (3 Bft)
24.05.2022 06:01 9,7 C 8,9 C 91 % 1004,1 hPa 0,2 l/m 11,3 km/h (2 Bft) S-SW 202 0 min 0,0 UV-I 0 W/m 8,3 C 6,5 C 16,1 km/h (3 Bft)
24.05.2022 06:02 9,7 C 8,9 C 91 % 1004,1 hPa 0,0 l/m 8,0 km/h (2 Bft) S 180 0 min 0,0 UV-I 0 W/m 8,3 C 8,5 C 14,5 km/h (3 Bft)
24.05.2022 06:03 9,7 C 8,9 C 92 % 1004,0 hPa 0,0 l/m 9,7 km/h (2 Bft) S-SW 202 0 min 0,0 UV-I 0 W/m 8,5 C 7,4 C 14,5 km/h (3 Bft)
24.05.2022 06:04 9,7 C 8,9 C 92 % 1004,0 hPa 0,2 l/m 9,7 km/h (2 Bft) S-SW 202 0 min 0,0 UV-I 0 W/m 8,5 C 7,4 C 14,5 km/h (3 Bft)
24.05.2022 06:05 9,7 C 8,9 C 92 % 1004,1 hPa 0,0 l/m 12,9 km/h (3 Bft) S-SW 202 0 min 0,0 UV-I 0 W/m 8,5 C 5,7 C 14,5 km/h (3 Bft)
24.05.2022 06:06 9,7 C 8,9 C 92 % 1004,1 hPa 0,0 l/m 8,0 km/h (2 Bft) S 180 0 min 0,0 UV-I 0 W/m 8,5 C 8,5 C 12,9 km/h (3 Bft)
24.05.2022 06:07 9,7 C 8,9 C 92 % 1004,1 hPa 0,2 l/m 12,9 km/h (3 Bft) S-SW 202 0 min 0,0 UV-I 0 W/m 8,5 C 5,7 C 16,1 km/h (3 Bft)
24.05.2022 06:08 9,7 C 8,9 C 92 % 1004,1 hPa 0,0 l/m 6,4 km/h (2 Bft) S-SW 202 0 min 0,0 UV-I 0 W/m 8,5 C 9,7 C 11,3 km/h (2 Bft)
24.05.2022 06:09 9,7 C 8,9 C 92 % 1004,0 hPa 0,0 l/m 11,3 km/h (2 Bft) S-SW 202 0 min 0,0 UV-I 0 W/m 8,5 C 6,5 C 16,1 km/h (3 Bft)
24.05.2022 06:10 9,7 C 8,9 C 92 % 1004,0 hPa 0,0 l/m 9,7 km/h (2 Bft) S-SW 202 0 min 0,0 UV-I 0 W/m 8,5 C 7,4 C 11,3 km/h (2 Bft)
24.05.2022 06:11 9,7 C 8,9 C 92 % 1004,1 hPa 0,0 l/m 9,7 km/h (2 Bft) SW 225 0 min 0,0 UV-I 0 W/m 8,5 C 7,4 C 12,9 km/h (3 Bft)
24.05.2022 06:12 9,7 C 8,9 C 92 % 1004,1 hPa 0,2 l/m 9,7 km/h (2 Bft) S 180 0 min 0,0 UV-I 0 W/m 8,5 C 7,4 C 14,5 km/h (3 Bft)
24.05.2022 06:13 9,7 C 8,9 C 92 % 1004,1 hPa 0,0 l/m 6,4 km/h (2 Bft) S-SW 202 0 min 0,0 UV-I 0 W/m 8,5 C 9,7 C 11,3 km/h (2 Bft)
24.05.2022 06:14 9,7 C 8,9 C 92 % 1004,1 hPa 0,0 l/m 6,4 km/h (2 Bft) S-SW 202 0 min 0,0 UV-I 0 W/m 8,5 C 9,7 C 9,7 km/h (2 Bft)
24.05.2022 06:15 9,7 C 8,9 C 92 % 1004,1 hPa 0,0 l/m 8,0 km/h (2 Bft) S-SW 202 0 min 0,0 UV-I 0 W/m 8,5 C 8,5 C 9,7 km/h (2 Bft)
24.05.2022 06:16 9,6 C 8,9 C 92 % 1004,1 hPa 0,2 l/m 8,0 km/h (2 Bft) SW 225 0 min 0,0 UV-I 3 W/m 8,4 C 8,4 C 11,3 km/h (2 Bft)
24.05.2022 06:17 9,6 C 8,9 C 92 % 1004,0 hPa 0,0 l/m 9,7 km/h (2 Bft) SW 225 0 min 0,0 UV-I 5 W/m 8,4 C 7,3 C 12,9 km/h (3 Bft)
24.05.2022 06:18 9,7 C 8,9 C 92 % 1004,1 hPa 0,0 l/m 4,8 km/h (1 Bft) SW 225 0 min 0,0 UV-I 5 W/m 8,5 C 9,7 C 9,7 km/h (2 Bft)
24.05.2022 06:19 9,7 C 8,9 C 92 % 1004,0 hPa 0,0 l/m 9,7 km/h (2 Bft) SW 225 0 min 0,0 UV-I 5 W/m 8,5 C 7,4 C 12,9 km/h (3 Bft)
24.05.2022 06:20 9,6 C 8,9 C 92 % 1004,1 hPa 0,0 l/m 9,7 km/h (2 Bft) S-SW 202 0 min 0,0 UV-I 5 W/m 8,4 C 7,3 C 16,1 km/h (3 Bft)
24.05.2022 06:21 9,6 C 8,9 C 92 % 1004,2 hPa 0,0 l/m 9,7 km/h (2 Bft) S-SW 202 0 min 0,0 UV-I 5 W/m 8,4 C 7,3 C 12,9 km/h (3 Bft)
24.05.2022 06:22 9,7 C 8,9 C 92 % 1004,1 hPa 0,0 l/m 11,3 km/h (2 Bft) S-SW 202 0 min 0,0 UV-I 5 W/m 8,5 C 6,5 C 12,9 km/h (3 Bft)
24.05.2022 06:23 9,7 C 8,9 C 92 % 1004,2 hPa 0,0 l/m 8,0 km/h (2 Bft) S-SW 202 0 min 0,0 UV-I 5 W/m 8,5 C 8,5 C 9,7 km/h (2 Bft)
24.05.2022 06:24 9,7 C 8,9 C 92 % 1004,2 hPa 0,2 l/m 9,7 km/h (2 Bft) S-SW 202 0 min 0,0 UV-I 7 W/m 8,5 C 7,4 C 11,3 km/h (2 Bft)
24.05.2022 06:25 9,7 C 8,9 C 92 % 1004,2 hPa 0,0 l/m 8,0 km/h (2 Bft) S 180 0 min 0,0 UV-I 7 W/m 8,5 C 8,5 C 12,9 km/h (3 Bft)
24.05.2022 06:26 9,7 C 8,9 C 92 % 1004,3 hPa 0,0 l/m 8,0 km/h (2 Bft) S-SW 202 0 min 0,0 UV-I 7 W/m 8,5 C 8,5 C 9,7 km/h (2 Bft)
24.05.2022 06:27 9,7 C 8,9 C 92 % 1004,3 hPa 0,0 l/m 9,7 km/h (2 Bft) S-SW 202 0 min 0,0 UV-I 7 W/m 8,5 C 7,4 C 11,3 km/h (2 Bft)
24.05.2022 06:28 9,7 C 8,9 C 92 % 1004,3 hPa 0,0 l/m 8,0 km/h (2 Bft) S 180 0 min 0,0 UV-I 9 W/m 8,5 C 8,5 C 12,9 km/h (3 Bft)
24.05.2022 06:29 9,7 C 8,9 C 92 % 1004,3 hPa 0,0 l/m 11,3 km/h (2 Bft) S-SW 202 0 min 0,0 UV-I 9 W/m 8,5 C 6,5 C 14,5 km/h (3 Bft)
24.05.2022 06:30 9,7 C 8,9 C 92 % 1004,3 hPa 0,0 l/m 9,7 km/h (2 Bft) S-SW 202 0 min 0,0 UV-I 9 W/m 8,5 C 7,4 C 11,3 km/h (2 Bft)
24.05.2022 06:31 9,7 C 8,9 C 92 % 1004,3 hPa 0,2 l/m 8,0 km/h (2 Bft) S 180 0 min 0,0 UV-I 9 W/m 8,5 C 8,5 C 11,3 km/h (2 Bft)
24.05.2022 06:32 9,7 C 8,9 C 92 % 1004,5 hPa 0,0 l/m 6,4 km/h (2 Bft) SW 225 0 min 0,0 UV-I 9 W/m 8,5 C 9,7 C 8,0 km/h (2 Bft)
24.05.2022 06:33 9,7 C 8,9 C 92 % 1004,3 hPa 0,0 l/m 6,4 km/h (2 Bft) S-SW 202 0 min 0,0 UV-I 7 W/m 8,5 C 9,7 C 9,7 km/h (2 Bft)
24.05.2022 06:34 9,7 C 8,9 C 92 % 1004,4 hPa 0,0 l/m 8,0 km/h (2 Bft) S 180 0 min 0,0 UV-I 7 W/m 8,5 C 8,5 C 12,9 km/h (3 Bft)
24.05.2022 06:35 9,7 C 8,9 C 92 % 1004,5 hPa 0,0 l/m 4,8 km/h (1 Bft) S-SW 202 0 min 0,0 UV-I 7 W/m 8,5 C 9,7 C 8,0 km/h (2 Bft)
24.05.2022 06:36 9,7 C 8,9 C 92 % 1004,5 hPa 0,0 l/m 8,0 km/h (2 Bft) S-SW 202 0 min 0,0 UV-I 7 W/m 8,5 C 8,5 C 11,3 km/h (2 Bft)
24.05.2022 06:37 9,7 C 8,9 C 92 % 1004,5 hPa 0,2 l/m 9,7 km/h (2 Bft) S-SW 202 0 min 0,0 UV-I 5 W/m 8,5 C 7,4 C 12,9 km/h (3 Bft)
24.05.2022 06:38 9,7 C 8,9 C 92 % 1004,6 hPa 0,0 l/m 9,7 km/h (2 Bft) S-SW 202 0 min 0,0 UV-I 5 W/m 8,5 C 7,4 C 12,9 km/h (3 Bft)
24.05.2022 06:39 9,7 C 8,9 C 92 % 1004,4 hPa 0,0 l/m 6,4 km/h (2 Bft) S 180 0 min 0,0 UV-I 6 W/m 8,5 C 9,7 C 11,3 km/h (2 Bft)
24.05.2022 06:40 9,7 C 8,9 C 92 % 1004,5 hPa 0,0 l/m 8,0 km/h (2 Bft) SW 225 0 min 0,0 UV-I 7 W/m 8,5 C 8,5 C 12,9 km/h (3 Bft)
24.05.2022 06:41 9,7 C 8,9 C 92 % 1004,5 hPa 0,0 l/m 6,4 km/h (2 Bft) S-SW 202 0 min 0,0 UV-I 5 W/m 8,5 C 9,7 C 9,7 km/h (2 Bft)
24.05.2022 06:42 9,7 C 9,4 C 92 % 1004,5 hPa 0,0 l/m 6,4 km/h (2 Bft) S 180 0 min 0,0 UV-I 7 W/m 8,5 C 9,7 C 11,3 km/h (2 Bft)
24.05.2022 06:43 9,7 C 9,4 C 92 % 1004,5 hPa 0,0 l/m 4,8 km/h (1 Bft) S-SW 202 0 min 0,0 UV-I 7 W/m 8,5 C 9,7 C 11,3 km/h (2 Bft)
24.05.2022 06:44 9,7 C 9,4 C 92 % 1004,6 hPa 0,2 l/m 11,3 km/h (2 Bft) S-SW 202 0 min 0,0 UV-I 7 W/m 8,5 C 6,5 C 17,7 km/h (3 Bft)
24.05.2022 06:45 9,7 C 8,9 C 92 % 1004,6 hPa 0,0 l/m 8,0 km/h (2 Bft) S 180 0 min 0,0 UV-I 5 W/m 8,5 C 8,5 C 12,9 km/h (3 Bft)
24.05.2022 06:46 9,7 C 8,9 C 92 % 1004,7 hPa 0,0 l/m 9,7 km/h (2 Bft) S-SW 202 0 min 0,0 UV-I 7 W/m 8,5 C 7,4 C 11,3 km/h (2 Bft)
24.05.2022 06:47 9,7 C 9,4 C 92 % 1004,7 hPa 0,0 l/m 11,3 km/h (2 Bft) S 180 0 min 0,0 UV-I 7 W/m 8,5 C 6,5 C 16,1 km/h (3 Bft)
24.05.2022 06:48 9,7 C 8,9 C 92 % 1004,7 hPa 0,0 l/m 8,0 km/h (2 Bft) S-SW 202 0 min 0,0 UV-I 7 W/m 8,5 C 8,5 C 12,9 km/h (3 Bft)
24.05.2022 06:49 9,7 C 8,9 C 92 % 1004,7 hPa 0,0 l/m 9,7 km/h (2 Bft) S-SW 202 0 min 0,0 UV-I 5 W/m 8,5 C 7,4 C 14,5 km/h (3 Bft)
24.05.2022 06:50 9,7 C 8,9 C 92 % 1004,7 hPa 0,0 l/m 9,7 km/h (2 Bft) S-SW 202 0 min 0,0 UV-I 7 W/m 8,5 C 7,4 C 16,1 km/h (3 Bft)
24.05.2022 06:51 9,7 C 8,9 C 92 % 1004,7 hPa 0,0 l/m 12,9 km/h (3 Bft) S-SW 202 0 min 0,0 UV-I 7 W/m 8,5 C 5,7 C 17,7 km/h (3 Bft)
24.05.2022 06:52 9,7 C 8,9 C 92 % 1004,8 hPa 0,0 l/m 9,7 km/h (2 Bft) S-SW 202 0 min 0,0 UV-I 7 W/m 8,5 C 7,4 C 16,1 km/h (3 Bft)
24.05.2022 06:53 9,7 C 8,9 C 92 % 1004,7 hPa 0,0 l/m 14,5 km/h (3 Bft) S-SW 202 0 min 0,0 UV-I 5 W/m 8,5 C 5,0 C 20,9 km/h (4 Bft)
24.05.2022 06:54 9,7 C 8,9 C 92 % 1004,6 hPa 0,0 l/m 11,3 km/h (2 Bft) S-SW 202 0 min 0,0 UV-I 7 W/m 8,5 C 6,5 C 14,5 km/h (3 Bft)
24.05.2022 06:55 9,7 C 8,9 C 92 % 1004,7 hPa 0,0 l/m 14,5 km/h (3 Bft) S-SW 202 0 min 0,0 UV-I 7 W/m 8,5 C 5,0 C 19,3 km/h (3 Bft)
24.05.2022 06:56 9,7 C 8,9 C 92 % 1004,7 hPa 0,0 l/m 12,9 km/h (3 Bft) S-SW 202 0 min 0,0 UV-I 5 W/m 8,5 C 5,7 C 19,3 km/h (3 Bft)
24.05.2022 06:57 9,7 C 8,9 C 92 % 1004,7 hPa 0,0 l/m 11,3 km/h (2 Bft) S-SW 202 0 min 0,0 UV-I 5 W/m 8,5 C 6,5 C 17,7 km/h (3 Bft)
24.05.2022 06:58 9,7 C 8,9 C 92 % 1004,6 hPa 0,2 l/m 9,7 km/h (2 Bft) S-SW 202 0 min 0,0 UV-I 5 W/m 8,5 C 7,4 C 14,5 km/h (3 Bft)
24.05.2022 06:59 9,7 C 8,9 C 92 % 1004,7 hPa 0,0 l/m 11,3 km/h (2 Bft) S-SW 202 0 min 0,0 UV-I 5 W/m 8,5 C 6,5 C 16,1 km/h (3 Bft)
24.05.2022 07:00 9,7 C 8,9 C 92 % 1004,7 hPa 0,0 l/m 8,0 km/h (2 Bft) S-SW 202 0 min 0,0 UV-I 5 W/m 8,5 C 8,5 C 11,3 km/h (2 Bft)
24.05.2022 07:01 9,7 C 8,9 C 92 % 1004,7 hPa 0,0 l/m 6,4 km/h (2 Bft) S 180 0 min 0,0 UV-I 5 W/m 8,5 C 9,7 C 9,7 km/h (2 Bft)
24.05.2022 07:02 9,7 C 8,9 C 92 % 1004,6 hPa 0,0 l/m 9,7 km/h (2 Bft) S-SW 202 0 min 0,0 UV-I 7 W/m 8,5 C 7,4 C 14,5 km/h (3 Bft)
24.05.2022 07:03 9,7 C 8,9 C 92 % 1004,7 hPa 0,0 l/m 11,3 km/h (2 Bft) S-SW 202 0 min 0,0 UV-I 7 W/m 8,5 C 6,5 C 17,7 km/h (3 Bft)
24.05.2022 07:04 9,7 C 8,9 C 92 % 1004,6 hPa 0,0 l/m 12,9 km/h (3 Bft) S-SW 202 0 min 0,0 UV-I 7 W/m 8,5 C 5,7 C 22,5 km/h (4 Bft)
24.05.2022 07:05 9,7 C 8,9 C 92 % 1004,6 hPa 0,0 l/m 9,7 km/h (2 Bft) S-SW 202 0 min 0,0 UV-I 7 W/m 8,5 C 7,4 C 11,3 km/h (2 Bft)
24.05.2022 07:06 9,7 C 8,9 C 92 % 1004,6 hPa 0,0 l/m 9,7 km/h (2 Bft) S-SW 202 0 min 0,0 UV-I 7 W/m 8,5 C 7,4 C 12,9 km/h (3 Bft)
24.05.2022 07:07 9,7 C 9,4 C 92 % 1004,7 hPa 0,0 l/m 9,7 km/h (2 Bft) S-SW 202 0 min 0,0 UV-I 9 W/m 8,5 C 7,4 C 14,5 km/h (3 Bft)
24.05.2022 07:08 9,7 C 8,9 C 92 % 1004,7 hPa 0,0 l/m 12,9 km/h (3 Bft) S-SW 202 0 min 0,0 UV-I 9 W/m 8,5 C 5,7 C 19,3 km/h (3 Bft)
24.05.2022 07:09 9,7 C 9,4 C 92 % 1004,8 hPa 0,2 l/m 9,7 km/h (2 Bft) S 180 0 min 0,0 UV-I 9 W/m 8,5 C 7,4 C 16,1 km/h (3 Bft)
24.05.2022 07:10 9,7 C 9,4 C 92 % 1004,9 hPa 0,0 l/m 12,9 km/h (3 Bft) S 180 0 min 0,0 UV-I 11 W/m 8,5 C 5,7 C 19,3 km/h (3 Bft)
24.05.2022 07:11 9,7 C 9,4 C 92 % 1004,8 hPa 0,0 l/m 12,9 km/h (3 Bft) S-SW 202 0 min 0,0 UV-I 11 W/m 8,5 C 5,7 C 17,7 km/h (3 Bft)
24.05.2022 07:12 9,7 C 9,4 C 92 % 1004,8 hPa 0,0 l/m 11,3 km/h (2 Bft) S 180 0 min 0,0 UV-I 11 W/m 8,5 C 6,5 C 16,1 km/h (3 Bft)
24.05.2022 07:13 9,7 C 9,4 C 92 % 1004,8 hPa 0,0 l/m 8,0 km/h (2 Bft) SW 225 0 min 0,0 UV-I 12 W/m 8,5 C 8,5 C 14,5 km/h (3 Bft)
24.05.2022 07:14 9,7 C 9,4 C 92 % 1004,9 hPa 0,0 l/m 12,9 km/h (3 Bft) S-SW 202 0 min 0,0 UV-I 13 W/m 8,5 C 5,7 C 16,1 km/h (3 Bft)
24.05.2022 07:15 9,8 C 9,4 C 92 % 1005,0 hPa 0,0 l/m 14,5 km/h (3 Bft) S-SW 202 0 min 0,0 UV-I 12 W/m 8,6 C 5,1 C 22,5 km/h (4 Bft)
24.05.2022 07:16 9,7 C 9,4 C 92 % 1005,0 hPa 0,0 l/m 12,9 km/h (3 Bft) S-SW 202 0 min 0,0 UV-I 11 W/m 8,5 C 5,7 C 14,5 km/h (3 Bft)
24.05.2022 07:17 9,7 C 9,4 C 92 % 1005,0 hPa 0,0 l/m 8,0 km/h (2 Bft) SW 225 0 min 0,0 UV-I 9 W/m 8,5 C 8,5 C 14,5 km/h (3 Bft)
24.05.2022 07:18 9,8 C 9,4 C 92 % 1005,1 hPa 0,0 l/m 16,1 km/h (3 Bft) S-SW 202 0 min 0,0 UV-I 11 W/m 8,6 C 4,4 C 25,7 km/h (4 Bft)
24.05.2022 07:19 9,8 C 9,4 C 92 % 1005,1 hPa 0,0 l/m 24,1 km/h (4 Bft) S-SW 202 0 min 0,0 UV-I 9 W/m 8,6 C 1,8 C 33,8 km/h (5 Bft)
24.05.2022 07:20 9,8 C 9,4 C 92 % 1005,2 hPa 0,2 l/m 12,9 km/h (3 Bft) S-SW 202 0 min 0,0 UV-I 7 W/m 8,6 C 5,8 C 27,4 km/h (4 Bft)
24.05.2022 07:21 9,7 C 9,4 C 92 % 1005,3 hPa 0,0 l/m 14,5 km/h (3 Bft) W-SW 247 0 min 0,0 UV-I 7 W/m 8,5 C 5,0 C 33,8 km/h (5 Bft)
24.05.2022 07:22 9,8 C 8,9 C 92 % 1005,1 hPa 0,0 l/m 12,9 km/h (3 Bft) W-SW 247 0 min 0,0 UV-I 9 W/m 8,6 C 5,8 C 17,7 km/h (3 Bft)
24.05.2022 07:23 9,8 C 8,9 C 92 % 1005,2 hPa 0,0 l/m 14,5 km/h (3 Bft) W 270 0 min 0,0 UV-I 12 W/m 8,6 C 5,1 C 24,1 km/h (4 Bft)
24.05.2022 07:24 9,7 C 8,9 C 92 % 1005,3 hPa 0,0 l/m 17,7 km/h (3 Bft) W-SW 247 0 min 0,0 UV-I 18 W/m 8,5 C 3,7 C 24,1 km/h (4 Bft)
24.05.2022 07:25 9,6 C 8,9 C 91 % 1005,2 hPa 0,0 l/m 19,3 km/h (3 Bft) W 270 0 min 0,0 UV-I 18 W/m 8,2 C 3,0 C 27,4 km/h (4 Bft)
24.05.2022 07:26 9,4 C 8,3 C 91 % 1005,3 hPa 0,0 l/m 12,9 km/h (3 Bft) SW 225 0 min 0,0 UV-I 14 W/m 8,0 C 5,4 C 17,7 km/h (3 Bft)
24.05.2022 07:27 9,2 C 8,3 C 91 % 1005,2 hPa 0,2 l/m 12,9 km/h (3 Bft) W-SW 247 0 min 0,0 UV-I 12 W/m 7,8 C 5,1 C 19,3 km/h (3 Bft)
24.05.2022 07:28 9,1 C 8,3 C 91 % 1005,3 hPa 0,0 l/m 11,3 km/h (2 Bft) W-SW 247 0 min 0,0 UV-I 12 W/m 7,7 C 5,9 C 16,1 km/h (3 Bft)
24.05.2022 07:29 9,1 C 8,3 C 91 % 1005,3 hPa 0,0 l/m 8,0 km/h (2 Bft) W-SW 247 0 min 0,0 UV-I 14 W/m 7,7 C 7,9 C 16,1 km/h (3 Bft)
24.05.2022 07:30 8,9 C 8,3 C 91 % 1005,4 hPa 0,0 l/m 11,3 km/h (2 Bft) SW 225 0 min 0,0 UV-I 16 W/m 7,5 C 5,6 C 19,3 km/h (3 Bft)
24.05.2022 07:31 8,8 C 7,8 C 91 % 1005,3 hPa 0,0 l/m 9,7 km/h (2 Bft) W-SW 247 0 min 0,0 UV-I 18 W/m 7,4 C 6,5 C 14,5 km/h (3 Bft)
24.05.2022 07:32 8,8 C 7,8 C 91 % 1005,3 hPa 0,0 l/m 8,0 km/h (2 Bft) SW 225 0 min 0,0 UV-I 20 W/m 7,4 C 7,6 C 14,5 km/h (3 Bft)
24.05.2022 07:33 8,7 C 7,8 C 91 % 1005,4 hPa 0,0 l/m 11,3 km/h (2 Bft) W-SW 247 0 min 0,0 UV-I 23 W/m 7,3 C 5,4 C 20,9 km/h (4 Bft)
24.05.2022 07:34 8,6 C 7,8 C 91 % 1005,4 hPa 0,0 l/m 9,7 km/h (2 Bft) SW 225 0 min 0,0 UV-I 23 W/m 7,2 C 6,2 C 16,1 km/h (3 Bft)
24.05.2022 07:35 8,6 C 7,8 C 91 % 1005,4 hPa 0,0 l/m 8,0 km/h (2 Bft) SW 225 0 min 0,0 UV-I 21 W/m 7,2 C 7,4 C 16,1 km/h (3 Bft)
24.05.2022 07:36 8,6 C 7,8 C 91 % 1005,4 hPa 0,0 l/m 11,3 km/h (2 Bft) W-SW 247 0 min 0,0 UV-I 19 W/m 7,2 C 5,3 C 16,1 km/h (3 Bft)
24.05.2022 07:37 8,5 C 7,8 C 91 % 1005,4 hPa 0,0 l/m 9,7 km/h (2 Bft) W-SW 247 0 min 0,0 UV-I 18 W/m 7,1 C 6,1 C 16,1 km/h (3 Bft)
24.05.2022 07:38 8,4 C 7,8 C 91 % 1005,4 hPa 0,0 l/m 8,0 km/h (2 Bft) W-SW 247 0 min 0,0 UV-I 17 W/m 7,0 C 7,2 C 12,9 km/h (3 Bft)
24.05.2022 07:39 8,4 C 7,8 C 91 % 1005,3 hPa 0,0 l/m 8,0 km/h (2 Bft) W-SW 247 0 min 0,0 UV-I 18 W/m 7,0 C 7,2 C 11,3 km/h (2 Bft)
24.05.2022 07:40 8,4 C 7,8 C 91 % 1005,4 hPa 0,2 l/m 8,0 km/h (2 Bft) W-SW 247 0 min 0,0 UV-I 21 W/m 7,0 C 7,2 C 12,9 km/h (3 Bft)
24.05.2022 07:41 8,4 C 7,8 C 91 % 1005,3 hPa 0,0 l/m 11,3 km/h (2 Bft) SW 225 0 min 0,0 UV-I 23 W/m 7,0 C 5,1 C 17,7 km/h (3 Bft)
24.05.2022 07:42 8,4 C 7,8 C 91 % 1005,4 hPa 0,0 l/m 9,7 km/h (2 Bft) SW 225 0 min 0,0 UV-I 23 W/m 7,0 C 6,0 C 14,5 km/h (3 Bft)
24.05.2022 07:43 8,3 C 7,8 C 91 % 1005,4 hPa 0,0 l/m 11,3 km/h (2 Bft) SW 225 0 min 0,0 UV-I 22 W/m 6,9 C 4,9 C 17,7 km/h (3 Bft)
24.05.2022 07:44 8,3 C 7,8 C 91 % 1005,4 hPa 0,0 l/m 6,4 km/h (2 Bft) S-SW 202 0 min 0,0 UV-I 23 W/m 6,9 C 8,3 C 6,4 km/h (2 Bft)
24.05.2022 07:45 8,3 C 7,8 C 91 % 1005,4 hPa 0,0 l/m 8,0 km/h (2 Bft) S-SW 202 0 min 0,0 UV-I 23 W/m 6,9 C 7,1 C 14,5 km/h (3 Bft)
24.05.2022 07:46 8,3 C 7,8 C 91 % 1005,5 hPa 0,0 l/m 6,4 km/h (2 Bft) S-SW 202 0 min 0,0 UV-I 26 W/m 6,9 C 8,3 C 12,9 km/h (3 Bft)
24.05.2022 07:47 8,3 C 7,8 C 91 % 1005,5 hPa 0,0 l/m 4,8 km/h (1 Bft) S-SW 202 0 min 0,0 UV-I 32 W/m 6,9 C 8,3 C 8,0 km/h (2 Bft)
24.05.2022 07:48 8,3 C 7,8 C 91 % 1005,5 hPa 0,0 l/m 6,4 km/h (2 Bft) SW 225 0 min 0,0 UV-I 35 W/m 6,9 C 8,3 C 9,7 km/h (2 Bft)
24.05.2022 07:49 8,3 C 7,8 C 91 % 1005,6 hPa 0,0 l/m 6,4 km/h (2 Bft) SW 225 0 min 0,0 UV-I 35 W/m 6,9 C 8,3 C 12,9 km/h (3 Bft)
24.05.2022 07:50 8,2 C 7,8 C 91 % 1005,6 hPa 0,2 l/m 8,0 km/h (2 Bft) S-SW 202 0 min 0,0 UV-I 37 W/m 6,8 C 7,0 C 9,7 km/h (2 Bft)
24.05.2022 07:51 8,3 C 7,8 C 91 % 1005,6 hPa 0,0 l/m 6,4 km/h (2 Bft) SW 225 0 min 0,0 UV-I 46 W/m 6,9 C 8,3 C 17,7 km/h (3 Bft)
24.05.2022 07:52 8,3 C 7,8 C 91 % 1005,6 hPa 0,0 l/m 8,0 km/h (2 Bft) S-SW 202 0 min 0,0 UV-I 56 W/m 6,9 C 7,1 C 11,3 km/h (2 Bft)
24.05.2022 07:54 8,2 C 7,8 C 91 % 1005,5 hPa 0,0 l/m 3,2 km/h (1 Bft) SW 222 0 min 0,5 UV-I 64 W/m 6,8 C 8,2 C 4,8 km/h (1 Bft)
24.05.2022 07:56 8,2 C 8,3 C 91 % 1005,5 hPa 0,0 l/m 4,8 km/h (1 Bft) W 261 0 min 0,5 UV-I 85 W/m 6,8 C 8,2 C 9,7 km/h (2 Bft)
24.05.2022 07:58 8,3 C 8,3 C 91 % 1005,6 hPa 0,0 l/m 6,8 km/h (2 Bft) W-SW 248 0 min 0,7 UV-I 134 W/m 6,9 C 8,0 C 14,5 km/h (3 Bft)
24.05.2022 08:00 8,3 C 8,3 C 91 % 1005,6 hPa 0,0 l/m 6,8 km/h (2 Bft) W-SW 244 0 min 0,7 UV-I 160 W/m 6,9 C 8,0 C 17,7 km/h (3 Bft)
24.05.2022 08:02 8,4 C 8,3 C 91 % 1005,7 hPa 0,0 l/m 8,7 km/h (2 Bft) SW 226 0 min 0,8 UV-I 166 W/m 7,0 C 6,7 C 16,1 km/h (3 Bft)
24.05.2022 08:04 8,4 C 8,9 C 91 % 1005,7 hPa 0,0 l/m 10,2 km/h (2 Bft) S-SW 200 0 min 0,8 UV-I 166 W/m 7,0 C 5,7 C 17,7 km/h (3 Bft)
24.05.2022 08:06 8,5 C 8,9 C 91 % 1005,7 hPa 0,0 l/m 8,9 km/h (2 Bft) SW 227 0 min 0,8 UV-I 158 W/m 7,1 C 6,6 C 12,9 km/h (3 Bft)
24.05.2022 08:08 8,6 C 8,9 C 91 % 1005,7 hPa 0,0 l/m 11,1 km/h (2 Bft) S-SW 192 0 min 0,8 UV-I 172 W/m 7,2 C 5,4 C 20,9 km/h (4 Bft)
24.05.2022 08:10 8,6 C 8,9 C 91 % 1005,7 hPa 0,0 l/m 9,8 km/h (2 Bft) S-SW 200 0 min 0,9 UV-I 208 W/m 7,2 C 6,2 C 16,1 km/h (3 Bft)
24.05.2022 08:12 8,7 C 8,9 C 91 % 1005,7 hPa 0,0 l/m 9,9 km/h (2 Bft) SW 228 0 min 0,8 UV-I 206 W/m 7,3 C 6,2 C 14,5 km/h (3 Bft)
24.05.2022 08:14 8,7 C 8,9 C 91 % 1005,7 hPa 0,0 l/m 10,0 km/h (2 Bft) S-SW 194 0 min 0,6 UV-I 154 W/m 7,3 C 6,2 C 16,1 km/h (3 Bft)
24.05.2022 08:16 8,7 C 8,9 C 91 % 1005,9 hPa 0,0 l/m 12,2 km/h (2 Bft) SW 215 0 min 0,5 UV-I 124 W/m 7,3 C 4,9 C 17,7 km/h (3 Bft)
24.05.2022 08:18 8,7 C 8,9 C 91 % 1005,9 hPa 0,0 l/m 10,3 km/h (2 Bft) SW 228 0 min 0,6 UV-I 111 W/m 7,3 C 6,0 C 17,7 km/h (3 Bft)
24.05.2022 08:20 8,7 C 8,3 C 90 % 1006,0 hPa 0,0 l/m 10,4 km/h (2 Bft) S-SW 209 0 min 0,5 UV-I 84 W/m 7,2 C 5,9 C 16,1 km/h (3 Bft)
24.05.2022 08:22 8,7 C 8,3 C 90 % 1006,0 hPa 0,0 l/m 14,3 km/h (3 Bft) S-SW 212 0 min 0,5 UV-I 69 W/m 7,2 C 3,9 C 24,1 km/h (4 Bft)
24.05.2022 08:24 8,6 C 8,3 C 90 % 1006,1 hPa 0,0 l/m 12,7 km/h (3 Bft) SW 219 0 min 0,6 UV-I 71 W/m 7,1 C 4,5 C 20,9 km/h (4 Bft)
24.05.2022 08:26 8,6 C 8,3 C 90 % 1006,1 hPa 0,0 l/m 8,4 km/h (2 Bft) S-SW 194 0 min 0,7 UV-I 83 W/m 7,1 C 7,1 C 19,3 km/h (3 Bft)
24.05.2022 08:28 8,6 C 8,3 C 90 % 1006,1 hPa 0,0 l/m 13,2 km/h (3 Bft) SW 214 0 min 0,8 UV-I 110 W/m 7,1 C 4,3 C 22,5 km/h (4 Bft)
24.05.2022 08:30 8,6 C 8,3 C 90 % 1006,2 hPa 0,0 l/m 12,6 km/h (3 Bft) S-SW 213 0 min 0,9 UV-I 134 W/m 7,1 C 4,6 C 17,7 km/h (3 Bft)
24.05.2022 08:32 8,6 C 8,9 C 90 % 1006,3 hPa 0,0 l/m 11,2 km/h (2 Bft) S-SW 192 0 min 1,0 UV-I 146 W/m 7,1 C 5,3 C 17,7 km/h (3 Bft)
24.05.2022 08:34 8,7 C 8,9 C 90 % 1006,4 hPa 0,0 l/m 10,0 km/h (2 Bft) S 184 0 min 1,0 UV-I 179 W/m 7,2 C 6,2 C 14,5 km/h (3 Bft)
24.05.2022 08:36 8,8 C 8,9 C 90 % 1006,4 hPa 0,0 l/m 11,1 km/h (2 Bft) S-SW 209 0 min 1,0 UV-I 169 W/m 7,3 C 5,6 C 16,1 km/h (3 Bft)
24.05.2022 08:38 8,8 C 8,9 C 90 % 1006,4 hPa 0,0 l/m 9,5 km/h (2 Bft) SW 227 0 min 0,9 UV-I 167 W/m 7,3 C 6,6 C 16,1 km/h (3 Bft)
24.05.2022 08:40 8,9 C 9,4 C 90 % 1006,6 hPa 0,0 l/m 9,3 km/h (2 Bft) S-SW 192 0 min 0,8 UV-I 123 W/m 7,4 C 6,8 C 14,5 km/h (3 Bft)
24.05.2022 08:42 8,9 C 8,9 C 90 % 1006,5 hPa 0,0 l/m 12,2 km/h (2 Bft) S-SW 201 0 min 0,8 UV-I 102 W/m 7,4 C 5,1 C 19,3 km/h (3 Bft)
24.05.2022 08:44 8,8 C 8,9 C 90 % 1006,5 hPa 0,0 l/m 10,3 km/h (2 Bft) SW 225 0 min 0,7 UV-I 110 W/m 7,3 C 6,1 C 19,3 km/h (3 Bft)
24.05.2022 08:46 8,8 C 8,9 C 90 % 1006,5 hPa 0,0 l/m 14,7 km/h (3 Bft) S-SW 208 0 min 0,8 UV-I 124 W/m 7,3 C 3,8 C 20,9 km/h (4 Bft)
24.05.2022 08:48 8,8 C 8,9 C 90 % 1006,4 hPa 0,0 l/m 13,0 km/h (3 Bft) W-SW 257 0 min 0,8 UV-I 154 W/m 7,3 C 4,6 C 17,7 km/h (3 Bft)
24.05.2022 08:50 8,9 C 8,9 C 90 % 1006,6 hPa 0,0 l/m 13,3 km/h (3 Bft) W 265 0 min 0,8 UV-I 164 W/m 7,4 C 4,6 C 27,4 km/h (4 Bft)
24.05.2022 08:52 8,9 C 8,9 C 90 % 1006,6 hPa 0,0 l/m 11,3 km/h (2 Bft) W-SW 240 0 min 0,6 UV-I 140 W/m 7,4 C 5,6 C 20,9 km/h (4 Bft)
24.05.2022 08:54 8,9 C 8,9 C 90 % 1006,7 hPa 0,0 l/m 12,7 km/h (3 Bft) SW 234 0 min 0,1 UV-I 74 W/m 7,4 C 4,9 C 24,1 km/h (4 Bft)
24.05.2022 08:56 8,9 C 8,3 C 90 % 1006,9 hPa 0,0 l/m 11,7 km/h (2 Bft) SW 229 0 min 0,3 UV-I 70 W/m 7,4 C 5,4 C 17,7 km/h (3 Bft)
24.05.2022 08:58 8,9 C 8,3 C 90 % 1006,8 hPa 0,0 l/m 15,8 km/h (3 Bft) W 262 0 min 0,1 UV-I 80 W/m 7,4 C 3,5 C 30,6 km/h (5 Bft)
24.05.2022 09:00 8,9 C 8,9 C 90 % 1006,8 hPa 0,0 l/m 11,1 km/h (2 Bft) S-SW 202 0 min 0,2 UV-I 89 W/m 7,4 C 5,7 C 17,7 km/h (3 Bft)
24.05.2022 09:02 8,9 C 8,9 C 90 % 1006,8 hPa 0,0 l/m 10,8 km/h (2 Bft) S-SW 198 0 min 0,7 UV-I 126 W/m 7,4 C 5,9 C 16,1 km/h (3 Bft)
24.05.2022 09:04 8,9 C 8,9 C 90 % 1006,8 hPa 0,0 l/m 11,4 km/h (2 Bft) S-SW 192 0 min 0,7 UV-I 142 W/m 7,4 C 5,6 C 17,7 km/h (3 Bft)
24.05.2022 09:06 9,0 C 8,9 C 90 % 1006,9 hPa 0,0 l/m 10,7 km/h (2 Bft) S-SW 213 0 min 0,5 UV-I 98 W/m 7,4 C 6,1 C 17,7 km/h (3 Bft)
24.05.2022 09:08 8,9 C 8,9 C 89 % 1007,0 hPa 0,0 l/m 12,5 km/h (3 Bft) SW 214 0 min 0,0 UV-I 72 W/m 7,2 C 5,0 C 17,7 km/h (3 Bft)
24.05.2022 09:10 8,9 C 8,9 C 89 % 1006,8 hPa 0,0 l/m 10,8 km/h (2 Bft) S 190 0 min 0,0 UV-I 65 W/m 7,2 C 5,9 C 17,7 km/h (3 Bft)
24.05.2022 09:12 9,0 C 8,9 C 89 % 1006,9 hPa 0,0 l/m 11,2 km/h (2 Bft) S-SW 192 0 min 0,0 UV-I 73 W/m 7,3 C 5,8 C 16,1 km/h (3 Bft)
24.05.2022 09:14 8,9 C 8,9 C 89 % 1006,9 hPa 0,0 l/m 11,6 km/h (2 Bft) S-SW 212 0 min 0,0 UV-I 75 W/m 7,2 C 5,5 C 19,3 km/h (3 Bft)
24.05.2022 09:16 8,9 C 8,9 C 89 % 1006,9 hPa 0,0 l/m 12,2 km/h (2 Bft) S-SW 200 0 min 0,4 UV-I 91 W/m 7,2 C 5,1 C 17,7 km/h (3 Bft)
24.05.2022 09:18 8,9 C 8,9 C 89 % 1006,9 hPa 0,0 l/m 9,7 km/h (2 Bft) S 185 0 min 0,5 UV-I 101 W/m 7,2 C 6,6 C 12,9 km/h (3 Bft)
24.05.2022 09:20 8,9 C 8,9 C 89 % 1006,9 hPa 0,0 l/m 12,4 km/h (3 Bft) SW 225 0 min 0,3 UV-I 80 W/m 7,2 C 5,0 C 17,7 km/h (3 Bft)
24.05.2022 09:22 8,9 C 8,9 C 89 % 1006,9 hPa 0,0 l/m 11,7 km/h (2 Bft) S-SW 195 0 min 1,1 UV-I 132 W/m 7,2 C 5,4 C 16,1 km/h (3 Bft)
24.05.2022 09:24 9,1 C 9,4 C 90 % 1006,9 hPa 0,0 l/m 11,3 km/h (2 Bft) S-SW 204 0 min 1,8 UV-I 171 W/m 7,5 C 5,9 C 16,1 km/h (3 Bft)
24.05.2022 09:26 9,3 C 10,6 C 90 % 1006,8 hPa 0,0 l/m 13,5 km/h (3 Bft) S 191 0 min 2,0 UV-I 171 W/m 7,7 C 5,0 C 20,9 km/h (4 Bft)
24.05.2022 09:28 9,7 C 11,1 C 91 % 1006,9 hPa 0,0 l/m 10,2 km/h (2 Bft) S-SW 213 0 min 1,7 UV-I 171 W/m 8,3 C 7,1 C 17,7 km/h (3 Bft)
24.05.2022 09:30 9,9 C 11,1 C 90 % 1006,9 hPa 0,0 l/m 9,5 km/h (2 Bft) SW 222 0 min 1,3 UV-I 259 W/m 8,3 C 7,8 C 24,1 km/h (4 Bft)
24.05.2022 09:32 9,9 C 11,1 C 89 % 1006,9 hPa 0,0 l/m 11,0 km/h (2 Bft) S-SW 202 0 min 1,7 UV-I 318 W/m 8,2 C 6,9 C 19,3 km/h (3 Bft)
24.05.2022 09:34 9,8 C 11,1 C 89 % 1007,0 hPa 0,0 l/m 15,1 km/h (3 Bft) S-SW 209 0 min 1,6 UV-I 303 W/m 8,1 C 4,8 C 22,5 km/h (4 Bft)
24.05.2022 09:36 9,8 C 10,6 C 88 % 1007,0 hPa 0,0 l/m 17,9 km/h (3 Bft) S 190 0 min 2,0 UV-I 314 W/m 7,9 C 3,8 C 24,1 km/h (4 Bft)
24.05.2022 09:38 9,8 C 10,0 C 87 % 1007,1 hPa 0,0 l/m 16,6 km/h (3 Bft) S-SW 211 0 min 1,3 UV-I 250 W/m 7,7 C 4,2 C 24,1 km/h (4 Bft)
24.05.2022 09:40 9,7 C 10,0 C 87 % 1007,0 hPa 0,0 l/m 17,2 km/h (3 Bft) S-SW 195 0 min 0,9 UV-I 186 W/m 7,6 C 3,9 C 22,5 km/h (4 Bft)
24.05.2022 09:42 9,7 C 9,4 C 87 % 1007,0 hPa 0,0 l/m 11,1 km/h (2 Bft) S-SW 211 0 min 0,6 UV-I 122 W/m 7,6 C 6,6 C 16,1 km/h (3 Bft)
24.05.2022 09:44 9,7 C 9,4 C 87 % 1007,2 hPa 0,0 l/m 11,9 km/h (2 Bft) S-SW 201 0 min 0,5 UV-I 108 W/m 7,6 C 6,2 C 22,5 km/h (4 Bft)
24.05.2022 09:46 9,6 C 9,4 C 87 % 1007,2 hPa 0,0 l/m 15,0 km/h (3 Bft) SW 217 0 min 0,1 UV-I 92 W/m 7,5 C 4,6 C 20,9 km/h (4 Bft)
24.05.2022 09:48 9,6 C 9,4 C 87 % 1007,2 hPa 0,0 l/m 15,8 km/h (3 Bft) S 175 0 min 0,8 UV-I 146 W/m 7,5 C 4,3 C 20,9 km/h (4 Bft)
24.05.2022 09:50 9,6 C 10,0 C 87 % 1007,2 hPa 0,0 l/m 12,9 km/h (3 Bft) S-SW 194 0 min 1,0 UV-I 186 W/m 7,5 C 5,6 C 22,5 km/h (4 Bft)
24.05.2022 09:52 9,6 C 10,0 C 87 % 1007,2 hPa 0,0 l/m 14,5 km/h (3 Bft) SW 227 0 min 1,0 UV-I 184 W/m 7,5 C 4,9 C 24,1 km/h (4 Bft)
24.05.2022 09:54 9,6 C 10,0 C 87 % 1007,2 hPa 0,0 l/m 16,6 km/h (3 Bft) S 175 0 min 1,3 UV-I 214 W/m 7,5 C 4,0 C 20,9 km/h (4 Bft)
24.05.2022 09:56 9,8 C 10,6 C 87 % 1007,3 hPa 0,0 l/m 11,5 km/h (2 Bft) S-SW 212 0 min 1,8 UV-I 288 W/m 7,7 C 6,5 C 19,3 km/h (3 Bft)
24.05.2022 09:58 9,9 C 11,7 C 87 % 1007,3 hPa 0,0 l/m 11,4 km/h (2 Bft) S-SW 196 2 min 2,1 UV-I 367 W/m 7,8 C 6,7 C 16,1 km/h (3 Bft)
24.05.2022 10:00 10,3 C 12,8 C 88 % 1007,2 hPa 0,0 l/m 10,5 km/h (2 Bft) S-SW 212 2 min 2,6 UV-I 557 W/m 8,4 C 7,6 C 17,7 km/h (3 Bft)
24.05.2022 10:02 10,4 C 12,2 C 87 % 1007,3 hPa 0,0 l/m 14,9 km/h (3 Bft) S-SW 195 2 min 1,8 UV-I 468 W/m 8,3 C 5,7 C 22,5 km/h (4 Bft)
24.05.2022 10:04 10,3 C 11,1 C 87 % 1007,4 hPa 0,0 l/m 16,3 km/h (3 Bft) S-SW 195 0 min 1,0 UV-I 176 W/m 8,2 C 5,0 C 24,1 km/h (4 Bft)
24.05.2022 10:06 10,2 C 11,1 C 87 % 1007,5 hPa 0,0 l/m 13,1 km/h (3 Bft) S-SW 201 0 min 1,1 UV-I 191 W/m 8,1 C 6,2 C 19,3 km/h (3 Bft)
24.05.2022 10:08 10,1 C 11,1 C 86 % 1007,5 hPa 0,0 l/m 16,2 km/h (3 Bft) S-SW 213 0 min 1,1 UV-I 196 W/m 7,9 C 4,8 C 24,1 km/h (4 Bft)
24.05.2022 10:10 10,1 C 11,1 C 86 % 1007,5 hPa 0,0 l/m 15,2 km/h (3 Bft) SW 227 0 min 1,0 UV-I 173 W/m 7,9 C 5,2 C 29,0 km/h (5 Bft)
24.05.2022 10:12 10,1 C 11,1 C 86 % 1007,5 hPa 0,0 l/m 14,1 km/h (3 Bft) S-SW 205 0 min 1,3 UV-I 210 W/m 7,9 C 5,6 C 24,1 km/h (4 Bft)
24.05.2022 10:14 10,0 C 11,1 C 86 % 1007,5 hPa 0,0 l/m 15,4 km/h (3 Bft) SW 217 0 min 1,3 UV-I 214 W/m 7,8 C 5,0 C 20,9 km/h (4 Bft)
24.05.2022 10:16 10,0 C 11,1 C 86 % 1007,4 hPa 0,0 l/m 12,4 km/h (3 Bft) S-SW 210 0 min 1,3 UV-I 203 W/m 7,8 C 6,3 C 16,1 km/h (3 Bft)
24.05.2022 10:18 10,1 C 11,1 C 86 % 1007,6 hPa 0,0 l/m 14,2 km/h (3 Bft) S-SW 212 0 min 1,3 UV-I 201 W/m 7,9 C 5,6 C 22,5 km/h (4 Bft)
24.05.2022 10:20 10,1 C 11,1 C 86 % 1007,4 hPa 0,0 l/m 12,4 km/h (3 Bft) SW 218 0 min 1,3 UV-I 209 W/m 7,9 C 6,4 C 22,5 km/h (4 Bft)
24.05.2022 10:22 10,1 C 11,1 C 86 % 1007,5 hPa 0,0 l/m 15,7 km/h (3 Bft) SW 220 0 min 1,4 UV-I 225 W/m 7,9 C 5,0 C 24,1 km/h (4 Bft)
24.05.2022 10:24 10,1 C 11,1 C 86 % 1007,6 hPa 0,0 l/m 12,4 km/h (3 Bft) S-SW 213 0 min 1,3 UV-I 212 W/m 7,9 C 6,4 C 19,3 km/h (3 Bft)
24.05.2022 10:26 10,1 C 11,1 C 86 % 1007,7 hPa 0,0 l/m 9,0 km/h (2 Bft) S-SW 209 0 min 1,3 UV-I 214 W/m 7,9 C 8,3 C 14,5 km/h (3 Bft)
24.05.2022 10:28 10,1 C 11,1 C 86 % 1007,7 hPa 0,0 l/m 12,6 km/h (3 Bft) S-SW 207 0 min 1,1 UV-I 174 W/m 7,9 C 6,3 C 19,3 km/h (3 Bft)
24.05.2022 10:30 10,0 C 10,6 C 86 % 1007,7 hPa 0,0 l/m 16,3 km/h (3 Bft) S-SW 205 0 min 0,9 UV-I 155 W/m 7,8 C 4,6 C 22,5 km/h (4 Bft)
24.05.2022 10:32 9,9 C 10,6 C 85 % 1007,7 hPa 0,0 l/m 15,1 km/h (3 Bft) SW 217 0 min 1,1 UV-I 173 W/m 7,5 C 5,0 C 22,5 km/h (4 Bft)
24.05.2022 10:34 9,8 C 10,6 C 85 % 1007,7 hPa 0,0 l/m 17,8 km/h (3 Bft) S-SW 202 0 min 1,2 UV-I 189 W/m 7,4 C 3,8 C 24,1 km/h (4 Bft)
24.05.2022 10:36 9,8 C 10,6 C 85 % 1007,7 hPa 0,0 l/m 16,5 km/h (3 Bft) W-SW 246 0 min 1,5 UV-I 216 W/m 7,4 C 4,3 C 29,0 km/h (5 Bft)
24.05.2022 10:38 9,8 C 11,1 C 85 % 1007,7 hPa 0,0 l/m 16,2 km/h (3 Bft) S-SW 196 0 min 1,8 UV-I 266 W/m 7,4 C 4,4 C 25,7 km/h (4 Bft)
24.05.2022 10:40 9,9 C 11,1 C 86 % 1007,8 hPa 0,0 l/m 12,7 km/h (3 Bft) S-SW 202 0 min 1,9 UV-I 258 W/m 7,7 C 6,1 C 20,9 km/h (4 Bft)
24.05.2022 10:42 9,9 C 11,1 C 85 % 1007,7 hPa 0,0 l/m 12,9 km/h (3 Bft) SW 223 0 min 1,8 UV-I 229 W/m 7,5 C 6,0 C 19,3 km/h (3 Bft)
24.05.2022 10:44 9,9 C 11,1 C 85 % 1007,7 hPa 0,0 l/m 13,5 km/h (3 Bft) SW 216 0 min 1,9 UV-I 210 W/m 7,5 C 5,7 C 19,3 km/h (3 Bft)
24.05.2022 10:46 9,9 C 11,1 C 85 % 1007,8 hPa 0,0 l/m 13,4 km/h (3 Bft) W-SW 246 0 min 2,1 UV-I 226 W/m 7,5 C 5,7 C 19,3 km/h (3 Bft)
24.05.2022 10:48 10,1 C 11,7 C 85 % 1007,8 hPa 0,0 l/m 14,8 km/h (3 Bft) S 180 0 min 2,4 UV-I 253 W/m 7,7 C 5,3 C 24,1 km/h (4 Bft)
24.05.2022 10:50 10,2 C 12,2 C 84 % 1007,9 hPa 0,0 l/m 19,3 km/h (3 Bft) SW 220 2 min 3,2 UV-I 433 W/m 7,6 C 3,8 C 24,1 km/h (4 Bft)
24.05.2022 10:52 10,6 C 12,8 C 85 % 1007,9 hPa 0,0 l/m 12,9 km/h (3 Bft) SW 222 2 min 4,2 UV-I 588 W/m 8,2 C 6,8 C 22,5 km/h (4 Bft)
24.05.2022 10:54 10,9 C 13,9 C 84 % 1007,8 hPa 0,0 l/m 11,9 km/h (2 Bft) S-SW 192 2 min 4,3 UV-I 755 W/m 8,3 C 7,6 C 20,9 km/h (4 Bft)
24.05.2022 10:56 11,1 C 14,4 C 84 % 1007,8 hPa 0,0 l/m 15,3 km/h (3 Bft) S-SW 203 2 min 4,3 UV-I 761 W/m 8,5 C 6,3 C 20,9 km/h (4 Bft)
24.05.2022 10:58 11,2 C 14,4 C 83 % 1007,8 hPa 0,2 l/m 21,3 km/h (4 Bft) SW 214 2 min 4,5 UV-I 780 W/m 8,4 C 4,4 C 33,8 km/h (5 Bft)
24.05.2022 11:00 11,3 C 15,0 C 83 % 1007,9 hPa 0,0 l/m 17,1 km/h (3 Bft) S 191 2 min 4,6 UV-I 812 W/m 8,5 C 5,9 C 24,1 km/h (4 Bft)
24.05.2022 11:02 11,4 C 15,0 C 82 % 1007,9 hPa 0,0 l/m 21,5 km/h (4 Bft) S-SW 211 2 min 4,6 UV-I 807 W/m 8,4 C 4,7 C 35,4 km/h (5 Bft)
24.05.2022 11:04 11,4 C 15,0 C 82 % 1008,0 hPa 0,0 l/m 20,5 km/h (4 Bft) SW 217 2 min 4,6 UV-I 781 W/m 8,4 C 4,9 C 30,6 km/h (5 Bft)
24.05.2022 11:06 11,6 C 16,1 C 82 % 1007,9 hPa 0,0 l/m 15,7 km/h (3 Bft) S-SO 161 2 min 4,6 UV-I 790 W/m 8,6 C 6,8 C 25,7 km/h (4 Bft)
24.05.2022 11:08 11,7 C 16,1 C 80 % 1007,8 hPa 0,0 l/m 18,3 km/h (3 Bft) W-SW 257 2 min 4,0 UV-I 869 W/m 8,4 C 6,0 C 29,0 km/h (5 Bft)
24.05.2022 11:10 11,7 C 15,0 C 80 % 1007,8 hPa 0,0 l/m 18,4 km/h (3 Bft) S-SW 200 2 min 4,7 UV-I 866 W/m 8,4 C 6,0 C 29,0 km/h (5 Bft)
24.05.2022 11:12 11,8 C 16,1 C 81 % 1007,9 hPa 0,0 l/m 16,5 km/h (3 Bft) S-SW 205 2 min 4,8 UV-I 831 W/m 8,6 C 6,8 C 27,4 km/h (4 Bft)
24.05.2022 11:14 11,9 C 16,1 C 80 % 1007,9 hPa 0,0 l/m 19,0 km/h (3 Bft) W-SW 248 2 min 4,8 UV-I 832 W/m 8,6 C 6,0 C 32,2 km/h (5 Bft)
24.05.2022 11:16 12,3 C 17,2 C 81 % 1007,9 hPa 0,0 l/m 14,5 km/h (3 Bft) SW 225 2 min 5,0 UV-I 900 W/m 9,1 C 8,1 C 27,4 km/h (4 Bft)
24.05.2022 11:18 12,5 C 17,2 C 78 % 1008,1 hPa 0,0 l/m 20,0 km/h (4 Bft) SW 216 2 min 5,1 UV-I 932 W/m 8,8 C 6,5 C 30,6 km/h (5 Bft)
24.05.2022 11:20 12,5 C 17,8 C 78 % 1008,0 hPa 0,0 l/m 21,2 km/h (4 Bft) S 182 2 min 5,3 UV-I 1066 W/m 8,8 C 6,2 C 35,4 km/h (5 Bft)
24.05.2022 11:22 12,2 C 14,4 C 76 % 1008,2 hPa 0,0 l/m 17,4 km/h (3 Bft) S-SW 198 2 min 1,9 UV-I 950 W/m 8,1 C 6,9 C 27,4 km/h (4 Bft)
24.05.2022 11:24 11,9 C 13,3 C 77 % 1008,1 hPa 0,0 l/m 22,6 km/h (4 Bft) S-SW 205 0 min 1,2 UV-I 199 W/m 8,0 C 5,0 C 35,4 km/h (5 Bft)
24.05.2022 11:26 11,7 C 12,8 C 77 % 1008,2 hPa 0,0 l/m 19,4 km/h (3 Bft) S 186 0 min 1,0 UV-I 173 W/m 7,8 C 5,7 C 27,4 km/h (4 Bft)
24.05.2022 11:28 11,4 C 12,8 C 79 % 1008,2 hPa 0,0 l/m 15,9 km/h (3 Bft) W-SW 257 0 min 1,4 UV-I 228 W/m 7,9 C 6,5 C 29,0 km/h (5 Bft)
24.05.2022 11:30 11,3 C 12,2 C 79 % 1008,2 hPa 0,0 l/m 19,5 km/h (3 Bft) S-SW 198 0 min 0,9 UV-I 153 W/m 7,8 C 5,1 C 25,7 km/h (4 Bft)
24.05.2022 11:32 11,2 C 12,2 C 80 % 1008,3 hPa 0,0 l/m 13,5 km/h (3 Bft) S-SW 212 0 min 1,1 UV-I 182 W/m 7,9 C 7,2 C 22,5 km/h (4 Bft)
24.05.2022 11:34 11,1 C 12,2 C 80 % 1008,2 hPa 0,0 l/m 20,2 km/h (4 Bft) SW 234 0 min 1,0 UV-I 158 W/m 7,8 C 4,6 C 29,0 km/h (5 Bft)
24.05.2022 11:36 10,9 C 11,7 C 80 % 1008,3 hPa 0,0 l/m 13,4 km/h (3 Bft) SW 215 0 min 0,9 UV-I 132 W/m 7,6 C 6,9 C 20,9 km/h (4 Bft)
24.05.2022 11:38 10,8 C 11,7 C 81 % 1008,3 hPa 0,0 l/m 13,5 km/h (3 Bft) S 185 0 min 0,9 UV-I 120 W/m 7,7 C 6,7 C 20,9 km/h (4 Bft)
24.05.2022 11:40 10,7 C 11,1 C 81 % 1008,3 hPa 0,0 l/m 18,8 km/h (3 Bft) S-SW 209 0 min 1,1 UV-I 130 W/m 7,6 C 4,6 C 29,0 km/h (5 Bft)
24.05.2022 11:42 10,6 C 11,1 C 81 % 1008,3 hPa 0,0 l/m 14,8 km/h (3 Bft) S-SW 202 0 min 1,5 UV-I 184 W/m 7,5 C 5,9 C 22,5 km/h (4 Bft)
24.05.2022 11:44 10,7 C 11,7 C 82 % 1008,4 hPa 0,0 l/m 15,8 km/h (3 Bft) S 187 0 min 2,1 UV-I 197 W/m 7,8 C 5,7 C 24,1 km/h (4 Bft)
24.05.2022 11:46 10,9 C 13,9 C 82 % 1008,3 hPa 0,0 l/m 16,4 km/h (3 Bft) S-SW 209 2 min 5,2 UV-I 382 W/m 7,9 C 5,7 C 30,6 km/h (5 Bft)
24.05.2022 11:48 11,4 C 15,6 C 83 % 1008,3 hPa 0,0 l/m 10,5 km/h (2 Bft) S-SW 203 2 min 5,1 UV-I 914 W/m 8,6 C 8,9 C 16,1 km/h (3 Bft)
24.05.2022 11:50 11,8 C 16,1 C 83 % 1008,3 hPa 0,0 l/m 10,9 km/h (2 Bft) S-SW 196 2 min 4,8 UV-I 978 W/m 9,0 C 9,1 C 19,3 km/h (3 Bft)
24.05.2022 11:52 12,3 C 17,8 C 82 % 1008,3 hPa 0,0 l/m 11,2 km/h (2 Bft) S 186 2 min 4,6 UV-I 873 W/m 9,3 C 9,5 C 16,1 km/h (3 Bft)
24.05.2022 11:54 12,4 C 17,2 C 80 % 1008,2 hPa 0,0 l/m 16,7 km/h (3 Bft) S-SW 209 2 min 3,3 UV-I 803 W/m 9,0 C 7,4 C 24,1 km/h (4 Bft)
24.05.2022 11:56 12,2 C 15,0 C 78 % 1008,3 hPa 0,0 l/m 17,2 km/h (3 Bft) S-SW 195 2 min 2,4 UV-I 360 W/m 8,5 C 7,0 C 24,1 km/h (4 Bft)
24.05.2022 11:58 12,1 C 15,0 C 79 % 1008,3 hPa 0,0 l/m 18,8 km/h (3 Bft) SW 221 2 min 3,1 UV-I 441 W/m 8,6 C 6,4 C 27,4 km/h (4 Bft)
24.05.2022 12:00 12,1 C 15,0 C 77 % 1008,3 hPa 0,0 l/m 20,3 km/h (4 Bft) S 181 2 min 2,6 UV-I 457 W/m 8,2 C 5,9 C 32,2 km/h (5 Bft)
24.05.2022 12:02 12,0 C 13,9 C 79 % 1008,3 hPa 0,0 l/m 18,8 km/h (3 Bft) S-SO 150 0 min 1,5 UV-I 268 W/m 8,5 C 6,2 C 32,2 km/h (5 Bft)
24.05.2022 12:04 11,9 C 13,3 C 77 % 1008,4 hPa 0,0 l/m 18,3 km/h (3 Bft) SW 234 0 min 1,3 UV-I 293 W/m 8,0 C 6,3 C 25,7 km/h (4 Bft)
24.05.2022 12:06 11,8 C 12,8 C 79 % 1008,4 hPa 0,0 l/m 14,3 km/h (3 Bft) W-SW 246 0 min 0,9 UV-I 155 W/m 8,3 C 7,6 C 30,6 km/h (5 Bft)
24.05.2022 12:08 11,5 C 11,1 C 79 % 1008,4 hPa 0,0 l/m 18,1 km/h (3 Bft) S-SW 204 0 min 0,9 UV-I 152 W/m 8,0 C 5,8 C 27,4 km/h (4 Bft)
24.05.2022 12:10 11,3 C 10,6 C 82 % 1008,5 hPa 0,0 l/m 13,3 km/h (3 Bft) W 273 0 min 0,9 UV-I 145 W/m 8,3 C 7,4 C 22,5 km/h (4 Bft)
24.05.2022 12:12 11,1 C 10,6 C 82 % 1008,5 hPa 0,2 l/m 13,2 km/h (3 Bft) SW 234 0 min 1,0 UV-I 149 W/m 8,1 C 7,2 C 22,5 km/h (4 Bft)
24.05.2022 12:14 10,9 C 10,6 C 83 % 1008,5 hPa 0,0 l/m 10,8 km/h (2 Bft) SW 225 0 min 1,4 UV-I 176 W/m 8,1 C 8,2 C 14,5 km/h (3 Bft)
24.05.2022 12:16 11,0 C 11,1 C 84 % 1008,5 hPa 0,0 l/m 8,2 km/h (2 Bft) W 266 0 min 2,4 UV-I 280 W/m 8,4 C 9,8 C 14,5 km/h (3 Bft)
24.05.2022 12:18 11,1 C 11,7 C 84 % 1008,6 hPa 0,0 l/m 9,5 km/h (2 Bft) S-SW 193 0 min 3,1 UV-I 316 W/m 8,5 C 9,1 C 17,7 km/h (3 Bft)
24.05.2022 12:20 11,3 C 13,9 C 85 % 1008,5 hPa 0,0 l/m 10,1 km/h (2 Bft) S-SW 204 2 min 5,8 UV-I 440 W/m 8,9 C 9,0 C 17,7 km/h (3 Bft)
24.05.2022 12:22 11,7 C 15,6 C 84 % 1008,7 hPa 0,0 l/m 9,1 km/h (2 Bft) SW 223 2 min 5,3 UV-I 978 W/m 9,1 C 10,0 C 12,9 km/h (3 Bft)
24.05.2022 12:24 11,9 C 14,4 C 81 % 1008,6 hPa 0,0 l/m 15,5 km/h (3 Bft) W-SW 237 2 min 3,6 UV-I 978 W/m 8,7 C 7,2 C 24,1 km/h (4 Bft)
24.05.2022 12:26 11,9 C 13,3 C 80 % 1008,5 hPa 0,0 l/m 11,7 km/h (2 Bft) S-SW 200 2 min 2,9 UV-I 394 W/m 8,6 C 8,8 C 20,9 km/h (4 Bft)
24.05.2022 12:28 11,8 C 11,7 C 78 % 1008,7 hPa 0,0 l/m 19,2 km/h (3 Bft) SW 217 0 min 1,7 UV-I 241 W/m 8,1 C 5,9 C 30,6 km/h (5 Bft)
24.05.2022 12:30 11,6 C 11,1 C 78 % 1008,5 hPa 0,0 l/m 16,1 km/h (3 Bft) S-SW 205 0 min 1,2 UV-I 175 W/m 7,9 C 6,7 C 25,7 km/h (4 Bft)
24.05.2022 12:32 11,4 C 11,7 C 78 % 1008,6 hPa 0,0 l/m 19,8 km/h (3 Bft) S-SW 204 0 min 1,7 UV-I 235 W/m 7,7 C 5,2 C 27,4 km/h (4 Bft)
24.05.2022 12:34 11,6 C 12,8 C 79 % 1008,5 hPa 0,0 l/m 12,8 km/h (3 Bft) S 189 2 min 3,2 UV-I 422 W/m 8,1 C 8,0 C 22,5 km/h (4 Bft)
24.05.2022 12:36 11,7 C 13,3 C 79 % 1008,6 hPa 0,0 l/m 14,7 km/h (3 Bft) SW 217 2 min 3,3 UV-I 482 W/m 8,2 C 7,3 C 19,3 km/h (3 Bft)
24.05.2022 12:38 11,9 C 13,9 C 79 % 1008,5 hPa 0,0 l/m 14,2 km/h (3 Bft) S-SW 194 2 min 3,2 UV-I 473 W/m 8,4 C 7,8 C 19,3 km/h (3 Bft)
24.05.2022 12:40 12,0 C 13,9 C 78 % 1008,6 hPa 0,0 l/m 14,8 km/h (3 Bft) S-SW 199 2 min 3,9 UV-I 510 W/m 8,3 C 7,6 C 20,9 km/h (4 Bft)
24.05.2022 12:42 12,1 C 14,4 C 78 % 1008,7 hPa 0,0 l/m 15,0 km/h (3 Bft) SW 223 2 min 3,8 UV-I 532 W/m 8,4 C 7,7 C 22,5 km/h (4 Bft)
24.05.2022 12:44 12,4 C 15,6 C 79 % 1008,6 hPa 0,0 l/m 12,7 km/h (3 Bft) S-SW 194 2 min 5,0 UV-I 485 W/m 8,9 C 9,0 C 20,9 km/h (4 Bft)
24.05.2022 12:46 12,7 C 16,1 C 77 % 1008,7 hPa 0,0 l/m 15,5 km/h (3 Bft) W-SW 254 2 min 5,3 UV-I 485 W/m 8,8 C 8,2 C 24,1 km/h (4 Bft)
24.05.2022 12:48 12,7 C 16,7 C 77 % 1008,7 hPa 0,0 l/m 10,2 km/h (2 Bft) S-SW 198 2 min 4,0 UV-I 485 W/m 8,8 C 10,5 C 19,3 km/h (3 Bft)
24.05.2022 12:50 12,6 C 15,6 C 76 % 1008,6 hPa 0,0 l/m 20,5 km/h (4 Bft) S-SW 194 2 min 3,2 UV-I 485 W/m 8,5 C 6,5 C 27,4 km/h (4 Bft)
24.05.2022 12:52 12,5 C 14,4 C 75 % 1008,6 hPa 0,0 l/m 13,3 km/h (3 Bft) N 360 2 min 3,1 UV-I 439 W/m 8,2 C 8,8 C 24,1 km/h (4 Bft)
24.05.2022 12:54 12,6 C 15,0 C 77 % 1008,6 hPa 0,0 l/m 12,1 km/h (2 Bft) S-SW 207 2 min 3,0 UV-I 429 W/m 8,7 C 9,5 C 24,1 km/h (4 Bft)
24.05.2022 12:56 12,5 C 14,4 C 75 % 1008,6 hPa 0,0 l/m 18,5 km/h (3 Bft) S-SW 197 0 min 1,9 UV-I 326 W/m 8,2 C 7,0 C 25,7 km/h (4 Bft)
24.05.2022 12:58 12,4 C 13,9 C 76 % 1008,7 hPa 0,0 l/m 14,6 km/h (3 Bft) SW 231 0 min 1,9 UV-I 300 W/m 8,3 C 8,2 C 22,5 km/h (4 Bft)
24.05.2022 13:00 12,4 C 13,9 C 76 % 1008,7 hPa 0,0 l/m 14,6 km/h (3 Bft) W 271 0 min 2,1 UV-I 332 W/m 8,3 C 8,2 C 24,1 km/h (4 Bft)
24.05.2022 13:02 12,3 C 13,9 C 77 % 1008,8 hPa 0,0 l/m 10,5 km/h (2 Bft) W-SW 241 2 min 1,5 UV-I 362 W/m 8,4 C 9,9 C 19,3 km/h (3 Bft)
24.05.2022 13:04 12,0 C 13,3 C 77 % 1008,8 hPa 0,0 l/m 11,1 km/h (2 Bft) W-SW 243 0 min 1,2 UV-I 222 W/m 8,1 C 9,2 C 16,1 km/h (3 Bft)
24.05.2022 13:06 11,9 C 12,8 C 78 % 1008,8 hPa 0,0 l/m 11,8 km/h (2 Bft) SW 234 0 min 1,3 UV-I 197 W/m 8,2 C 8,8 C 19,3 km/h (3 Bft)
24.05.2022 13:08 11,8 C 12,8 C 78 % 1008,8 hPa 0,0 l/m 12,9 km/h (3 Bft) W-SW 239 0 min 1,1 UV-I 167 W/m 8,1 C 8,2 C 20,9 km/h (4 Bft)
24.05.2022 13:10 11,7 C 12,8 C 79 % 1008,8 hPa 0,0 l/m 8,5 km/h (2 Bft) W-SW 240 0 min 1,2 UV-I 182 W/m 8,2 C 10,3 C 14,5 km/h (3 Bft)
24.05.2022 13:12 11,7 C 12,8 C 79 % 1008,8 hPa 0,0 l/m 8,5 km/h (2 Bft) S-SW 199 0 min 1,4 UV-I 214 W/m 8,2 C 10,3 C 17,7 km/h (3 Bft)
24.05.2022 13:14 11,7 C 12,8 C 79 % 1008,8 hPa 0,0 l/m 10,0 km/h (2 Bft) S-SW 196 0 min 1,6 UV-I 227 W/m 8,2 C 9,5 C 14,5 km/h (3 Bft)
24.05.2022 13:16 11,7 C 13,3 C 78 % 1008,8 hPa 0,0 l/m 10,8 km/h (2 Bft) S-SW 213 0 min 2,0 UV-I 268 W/m 8,0 C 9,1 C 16,1 km/h (3 Bft)
24.05.2022 13:18 11,8 C 13,3 C 79 % 1008,9 hPa 0,0 l/m 8,7 km/h (2 Bft) S-SW 197 0 min 2,3 UV-I 307 W/m 8,3 C 10,3 C 12,9 km/h (3 Bft)
24.05.2022 13:20 11,8 C 13,3 C 77 % 1009,0 hPa 0,0 l/m 16,3 km/h (3 Bft) S-SW 198 0 min 2,1 UV-I 282 W/m 7,9 C 6,8 C 24,1 km/h (4 Bft)
24.05.2022 13:22 11,9 C 13,3 C 77 % 1009,0 hPa 0,0 l/m 14,6 km/h (3 Bft) S 184 0 min 1,7 UV-I 240 W/m 8,0 C 7,6 C 20,9 km/h (4 Bft)
24.05.2022 13:24 12,0 C 13,3 C 77 % 1009,1 hPa 0,0 l/m 15,7 km/h (3 Bft) SW 218 0 min 2,2 UV-I 307 W/m 8,1 C 7,3 C 27,4 km/h (4 Bft)
24.05.2022 13:26 12,1 C 13,9 C 76 % 1009,1 hPa 0,0 l/m 16,5 km/h (3 Bft) SO 144 2 min 2,7 UV-I 365 W/m 8,0 C 7,1 C 22,5 km/h (4 Bft)
24.05.2022 13:28 12,1 C 13,9 C 75 % 1009,1 hPa 0,0 l/m 15,9 km/h (3 Bft) S-SW 199 2 min 2,9 UV-I 364 W/m 7,8 C 7,3 C 22,5 km/h (4 Bft)
24.05.2022 13:30 12,1 C 14,4 C 74 % 1009,1 hPa 0,0 l/m 14,3 km/h (3 Bft) S-SW 200 2 min 3,3 UV-I 364 W/m 7,6 C 8,0 C 29,0 km/h (5 Bft)
24.05.2022 13:32 12,4 C 16,1 C 76 % 1009,1 hPa 0,0 l/m 13,1 km/h (3 Bft) SW 232 2 min 6,9 UV-I 921 W/m 8,3 C 8,8 C 25,7 km/h (4 Bft)
24.05.2022 13:34 12,7 C 16,7 C 75 % 1009,1 hPa 0,0 l/m 17,3 km/h (3 Bft) S-SO 159 2 min 4,6 UV-I 1157 W/m 8,4 C 7,6 C 29,0 km/h (5 Bft)
24.05.2022 13:36 12,6 C 16,1 C 75 % 1009,1 hPa 0,0 l/m 16,2 km/h (3 Bft) S-SW 211 2 min 3,4 UV-I 391 W/m 8,3 C 7,9 C 22,5 km/h (4 Bft)
24.05.2022 13:38 12,6 C 15,6 C 74 % 1009,2 hPa 0,0 l/m 17,7 km/h (3 Bft) S 187 2 min 3,1 UV-I 355 W/m 8,1 C 7,3 C 29,0 km/h (5 Bft)
24.05.2022 13:40 12,4 C 14,4 C 74 % 1009,1 hPa 0,0 l/m 13,6 km/h (3 Bft) SW 234 0 min 2,9 UV-I 324 W/m 7,9 C 8,6 C 19,3 km/h (3 Bft)
24.05.2022 13:42 12,4 C 15,0 C 73 % 1009,1 hPa 0,0 l/m 15,8 km/h (3 Bft) S 186 2 min 3,6 UV-I 380 W/m 7,7 C 7,7 C 22,5 km/h (4 Bft)
24.05.2022 13:44 12,4 C 15,0 C 73 % 1009,2 hPa 0,0 l/m 18,8 km/h (3 Bft) S 177 2 min 3,9 UV-I 353 W/m 7,7 C 6,7 C 30,6 km/h (5 Bft)
24.05.2022 13:46 12,3 C 13,9 C 73 % 1009,1 hPa 0,0 l/m 19,8 km/h (3 Bft) S-SW 205 0 min 3,0 UV-I 305 W/m 7,6 C 6,3 C 29,0 km/h (5 Bft)
24.05.2022 13:48 12,4 C 16,1 C 74 % 1009,1 hPa 0,0 l/m 16,4 km/h (3 Bft) S-SW 207 2 min 5,8 UV-I 525 W/m 7,9 C 7,5 C 25,7 km/h (4 Bft)
24.05.2022 13:50 12,7 C 17,2 C 74 % 1009,1 hPa 0,0 l/m 13,4 km/h (3 Bft) S-SW 212 2 min 4,9 UV-I 1056 W/m 8,2 C 9,0 C 20,9 km/h (4 Bft)
24.05.2022 13:52 12,8 C 16,1 C 73 % 1009,2 hPa 0,0 l/m 15,5 km/h (3 Bft) S-SW 202 2 min 6,0 UV-I 1056 W/m 8,1 C 8,3 C 22,5 km/h (4 Bft)
24.05.2022 13:54 13,2 C 19,4 C 74 % 1009,2 hPa 0,0 l/m 11,9 km/h (2 Bft) S-SW 205 2 min 6,5 UV-I 1048 W/m 8,7 C 10,2 C 17,7 km/h (3 Bft)
24.05.2022 13:56 13,6 C 18,9 C 75 % 1009,2 hPa 0,0 l/m 13,3 km/h (3 Bft) W-SW 241 2 min 5,9 UV-I 1013 W/m 9,3 C 10,1 C 22,5 km/h (4 Bft)
24.05.2022 13:58 13,6 C 17,8 C 72 % 1009,2 hPa 0,0 l/m 15,2 km/h (3 Bft) SW 217 2 min 4,1 UV-I 988 W/m 8,6 C 9,4 C 24,1 km/h (4 Bft)
24.05.2022 14:00 13,4 C 17,2 C 71 % 1009,2 hPa 0,0 l/m 16,1 km/h (3 Bft) S 173 2 min 5,4 UV-I 404 W/m 8,3 C 8,9 C 24,1 km/h (4 Bft)
24.05.2022 14:02 13,6 C 18,9 C 71 % 1009,1 hPa 0,0 l/m 17,8 km/h (3 Bft) S 182 2 min 5,8 UV-I 404 W/m 8,4 C 8,6 C 29,0 km/h (5 Bft)
24.05.2022 14:04 13,5 C 17,8 C 70 % 1009,1 hPa 0,0 l/m 13,8 km/h (3 Bft) S-SW 200 2 min 4,6 UV-I 404 W/m 8,1 C 9,8 C 22,5 km/h (4 Bft)
24.05.2022 14:06 13,6 C 17,2 C 72 % 1009,1 hPa 0,0 l/m 16,8 km/h (3 Bft) S 189 0 min 4,0 UV-I 340 W/m 8,6 C 8,9 C 35,4 km/h (5 Bft)
24.05.2022 14:08 13,8 C 18,9 C 72 % 1009,1 hPa 0,0 l/m 15,7 km/h (3 Bft) SW 217 2 min 6,2 UV-I 902 W/m 8,8 C 9,5 C 22,5 km/h (4 Bft)
24.05.2022 14:10 14,1 C 20,0 C 69 % 1009,1 hPa 0,0 l/m 20,3 km/h (4 Bft) S-SO 157 2 min 6,2 UV-I 1127 W/m 8,5 C 8,5 C 25,7 km/h (4 Bft)
24.05.2022 14:12 14,2 C 20,0 C 71 % 1009,1 hPa 0,0 l/m 20,4 km/h (4 Bft) S 188 2 min 5,5 UV-I 1106 W/m 9,0 C 8,6 C 33,8 km/h (5 Bft)
24.05.2022 14:14 13,9 C 16,1 C 68 % 1009,1 hPa 0,0 l/m 21,7 km/h (4 Bft) S 190 2 min 2,2 UV-I 412 W/m 8,1 C 7,9 C 37,0 km/h (5 Bft)
24.05.2022 14:16 13,6 C 16,1 C 69 % 1009,2 hPa 0,0 l/m 19,9 km/h (4 Bft) S-SW 198 0 min 2,9 UV-I 294 W/m 8,0 C 8,0 C 29,0 km/h (5 Bft)
24.05.2022 14:18 13,7 C 17,2 C 70 % 1009,3 hPa 0,0 l/m 15,2 km/h (3 Bft) SW 214 0 min 4,6 UV-I 338 W/m 8,3 C 9,5 C 29,0 km/h (5 Bft)
24.05.2022 14:20 13,7 C 16,7 C 68 % 1009,4 hPa 0,0 l/m 18,0 km/h (3 Bft) S-SW 208 0 min 2,6 UV-I 316 W/m 7,9 C 8,6 C 27,4 km/h (4 Bft)
24.05.2022 14:22 13,4 C 15,6 C 68 % 1009,3 hPa 0,0 l/m 21,1 km/h (4 Bft) S-SO 159 0 min 4,0 UV-I 328 W/m 7,6 C 7,4 C 32,2 km/h (5 Bft)
24.05.2022 14:24 13,2 C 15,6 C 69 % 1009,4 hPa 0,0 l/m 18,7 km/h (3 Bft) S-SW 211 2 min 2,7 UV-I 346 W/m 7,6 C 7,8 C 25,7 km/h (4 Bft)
24.05.2022 14:26 13,3 C 17,2 C 70 % 1009,4 hPa 0,0 l/m 13,2 km/h (3 Bft) S-SW 205 2 min 4,4 UV-I 385 W/m 7,9 C 9,8 C 19,3 km/h (3 Bft)
24.05.2022 14:28 13,3 C 16,1 C 69 % 1009,4 hPa 0,0 l/m 12,0 km/h (2 Bft) S-SW 194 2 min 2,6 UV-I 346 W/m 7,7 C 10,3 C 17,7 km/h (3 Bft)
24.05.2022 14:30 13,2 C 15,0 C 69 % 1009,2 hPa 0,0 l/m 13,3 km/h (3 Bft) W 271 0 min 2,0 UV-I 255 W/m 7,6 C 9,7 C 19,3 km/h (3 Bft)
24.05.2022 14:32 13,2 C 15,0 C 71 % 1009,4 hPa 0,0 l/m 10,8 km/h (2 Bft) S-SW 194 0 min 1,5 UV-I 208 W/m 8,1 C 10,7 C 16,1 km/h (3 Bft)
24.05.2022 14:34 13,1 C 14,4 C 72 % 1009,4 hPa 0,0 l/m 12,7 km/h (3 Bft) W-SW 254 0 min 1,4 UV-I 210 W/m 8,2 C 9,8 C 17,7 km/h (3 Bft)
24.05.2022 14:36 12,9 C 13,9 C 73 % 1009,4 hPa 0,0 l/m 14,7 km/h (3 Bft) W 271 0 min 1,5 UV-I 212 W/m 8,2 C 8,8 C 25,7 km/h (4 Bft)
24.05.2022 14:38 12,7 C 13,9 C 73 % 1009,4 hPa 0,0 l/m 11,9 km/h (2 Bft) W 262 0 min 1,5 UV-I 199 W/m 8,0 C 9,7 C 22,5 km/h (4 Bft)
24.05.2022 14:40 12,6 C 13,9 C 74 % 1009,4 hPa 0,0 l/m 13,3 km/h (3 Bft) S 191 0 min 1,6 UV-I 212 W/m 8,1 C 9,0 C 19,3 km/h (3 Bft)
24.05.2022 14:42 12,6 C 13,9 C 74 % 1009,4 hPa 0,0 l/m 12,4 km/h (3 Bft) SW 231 0 min 2,1 UV-I 285 W/m 8,1 C 9,3 C 17,7 km/h (3 Bft)
24.05.2022 14:44 12,6 C 13,9 C 72 % 1009,4 hPa 0,0 l/m 16,2 km/h (3 Bft) W-SW 253 0 min 3,2 UV-I 295 W/m 7,7 C 7,9 C 24,1 km/h (4 Bft)
24.05.2022 14:46 12,9 C 17,2 C 73 % 1009,5 hPa 0,0 l/m 9,7 km/h (2 Bft) W 262 2 min 5,6 UV-I 685 W/m 8,2 C 11,0 C 14,5 km/h (3 Bft)
24.05.2022 14:48 13,3 C 18,9 C 70 % 1009,4 hPa 0,0 l/m 10,8 km/h (2 Bft) SW 236 2 min 5,8 UV-I 967 W/m 7,9 C 10,9 C 19,3 km/h (3 Bft)
24.05.2022 14:50 13,6 C 19,4 C 71 % 1009,4 hPa 0,0 l/m 12,5 km/h (3 Bft) S-SW 196 2 min 4,9 UV-I 902 W/m 8,4 C 10,5 C 20,9 km/h (4 Bft)
24.05.2022 14:52 13,7 C 20,0 C 70 % 1009,3 hPa 0,0 l/m 10,6 km/h (2 Bft) S-SW 198 2 min 5,4 UV-I 919 W/m 8,3 C 11,4 C 20,9 km/h (4 Bft)
24.05.2022 14:54 14,1 C 21,1 C 71 % 1009,4 hPa 0,0 l/m 12,0 km/h (2 Bft) W 260 2 min 6,0 UV-I 952 W/m 8,9 C 11,2 C 19,3 km/h (3 Bft)
24.05.2022 14:56 14,4 C 21,1 C 71 % 1009,3 hPa 0,0 l/m 14,3 km/h (3 Bft) W-SW 250 2 min 5,6 UV-I 874 W/m 9,2 C 10,7 C 22,5 km/h (4 Bft)
24.05.2022 14:58 14,7 C 21,1 C 69 % 1009,4 hPa 0,0 l/m 16,0 km/h (3 Bft) S-SW 201 2 min 5,3 UV-I 800 W/m 9,1 C 10,5 C 24,1 km/h (4 Bft)
24.05.2022 15:00 14,6 C 21,1 C 66 % 1009,4 hPa 0,0 l/m 14,6 km/h (3 Bft) SW 229 2 min 5,8 UV-I 910 W/m 8,3 C 10,8 C 24,1 km/h (4 Bft)
24.05.2022 15:02 14,6 C 20,6 C 65 % 1009,4 hPa 0,0 l/m 15,2 km/h (3 Bft) S 175 2 min 5,4 UV-I 954 W/m 8,1 C 10,6 C 20,9 km/h (4 Bft)
24.05.2022 15:04 14,7 C 21,7 C 67 % 1009,4 hPa 0,0 l/m 14,1 km/h (3 Bft) S-SW 198 2 min 6,1 UV-I 1036 W/m 8,6 C 11,1 C 25,7 km/h (4 Bft)
24.05.2022 15:06 14,6 C 20,6 C 63 % 1009,4 hPa 0,0 l/m 22,4 km/h (4 Bft) SW 221 2 min 5,4 UV-I 1051 W/m 7,6 C 8,6 C 30,6 km/h (5 Bft)
24.05.2022 15:08 14,2 C 17,8 C 64 % 1009,4 hPa 0,0 l/m 19,6 km/h (3 Bft) SW 223 2 min 3,2 UV-I 469 W/m 7,5 C 8,8 C 27,4 km/h (4 Bft)
24.05.2022 15:10 13,9 C 16,1 C 65 % 1009,4 hPa 0,0 l/m 22,0 km/h (4 Bft) S 188 2 min 3,3 UV-I 406 W/m 7,4 C 7,8 C 32,2 km/h (5 Bft)
24.05.2022 15:12 13,8 C 16,1 C 65 % 1009,4 hPa 0,0 l/m 17,8 km/h (3 Bft) SO 140 2 min 3,6 UV-I 425 W/m 7,3 C 8,8 C 29,0 km/h (5 Bft)
24.05.2022 15:14 13,9 C 17,8 C 66 % 1009,5 hPa 0,0 l/m 14,0 km/h (3 Bft) S-SW 209 2 min 4,2 UV-I 427 W/m 7,7 C 10,2 C 24,1 km/h (4 Bft)
24.05.2022 15:16 14,1 C 17,2 C 66 % 1009,5 hPa 0,0 l/m 13,6 km/h (3 Bft) S 191 2 min 3,0 UV-I 391 W/m 7,8 C 10,6 C 25,7 km/h (4 Bft)
24.05.2022 15:18 13,9 C 16,1 C 64 % 1009,5 hPa 0,0 l/m 22,2 km/h (4 Bft) SW 215 2 min 3,2 UV-I 359 W/m 7,2 C 7,8 C 30,6 km/h (5 Bft)
24.05.2022 15:20 13,8 C 16,1 C 64 % 1009,5 hPa 0,0 l/m 19,6 km/h (3 Bft) S 189 2 min 3,1 UV-I 651 W/m 7,1 C 8,3 C 32,2 km/h (5 Bft)
24.05.2022 15:22 13,7 C 16,1 C 66 % 1009,5 hPa 0,0 l/m 14,5 km/h (3 Bft) SO 134 2 min 3,0 UV-I 381 W/m 7,5 C 9,8 C 19,3 km/h (3 Bft)
24.05.2022 15:24 13,8 C 16,7 C 67 % 1009,5 hPa 0,0 l/m 15,5 km/h (3 Bft) S-SO 162 2 min 3,5 UV-I 429 W/m 7,8 C 9,6 C 22,5 km/h (4 Bft)
24.05.2022 15:26 14,2 C 18,9 C 69 % 1009,6 hPa 0,0 l/m 12,3 km/h (3 Bft) SO 134 2 min 4,9 UV-I 429 W/m 8,6 C 11,2 C 20,9 km/h (4 Bft)
24.05.2022 15:28 14,3 C 18,3 C 69 % 1009,7 hPa 0,0 l/m 13,2 km/h (3 Bft) S 183 2 min 3,6 UV-I 425 W/m 8,7 C 11,0 C 22,5 km/h (4 Bft)
24.05.2022 15:30 13,8 C 17,2 C 67 % 1009,6 hPa 0,0 l/m 17,6 km/h (3 Bft) S-SO 147 2 min 3,8 UV-I 490 W/m 7,8 C 8,9 C 22,5 km/h (4 Bft)
24.05.2022 15:32 13,8 C 17,2 C 67 % 1009,5 hPa 0,0 l/m 15,3 km/h (3 Bft) S-SO 167 2 min 3,6 UV-I 518 W/m 7,8 C 9,6 C 25,7 km/h (4 Bft)
24.05.2022 15:34 13,7 C 16,7 C 67 % 1009,6 hPa 0,0 l/m 11,5 km/h (2 Bft) S 191 2 min 3,1 UV-I 411 W/m 7,7 C 11,0 C 19,3 km/h (3 Bft)
24.05.2022 15:36 13,6 C 16,7 C 66 % 1009,6 hPa 0,0 l/m 14,3 km/h (3 Bft) S 178 2 min 3,2 UV-I 467 W/m 7,4 C 9,7 C 24,1 km/h (4 Bft)
24.05.2022 15:38 13,6 C 16,7 C 66 % 1009,7 hPa 0,0 l/m 15,9 km/h (3 Bft) S 182 2 min 3,4 UV-I 511 W/m 7,4 C 9,2 C 25,7 km/h (4 Bft)
24.05.2022 15:40 13,5 C 17,2 C 66 % 1009,8 hPa 0,0 l/m 19,5 km/h (3 Bft) S-SO 160 2 min 3,7 UV-I 552 W/m 7,3 C 7,9 C 30,6 km/h (5 Bft)
24.05.2022 15:42 13,4 C 16,7 C 65 % 1009,8 hPa 0,0 l/m 18,7 km/h (3 Bft) S-SO 147 2 min 3,8 UV-I 554 W/m 7,0 C 8,1 C 29,0 km/h (5 Bft)
24.05.2022 15:44 13,5 C 16,1 C 66 % 1009,8 hPa 0,0 l/m 11,6 km/h (2 Bft) S 188 2 min 3,0 UV-I 450 W/m 7,3 C 10,7 C 22,5 km/h (4 Bft)
24.05.2022 15:46 13,5 C 16,1 C 67 % 1009,8 hPa 0,0 l/m 13,6 km/h (3 Bft) S-SW 200 2 min 2,8 UV-I 345 W/m 7,5 C 9,9 C 29,0 km/h (5 Bft)
24.05.2022 15:48 13,4 C 15,6 C 66 % 1009,9 hPa 0,0 l/m 13,1 km/h (3 Bft) SW 215 2 min 2,7 UV-I 346 W/m 7,2 C 10,0 C 22,5 km/h (4 Bft)
24.05.2022 15:50 13,3 C 15,0 C 67 % 1009,9 hPa 0,0 l/m 16,7 km/h (3 Bft) S 169 0 min 2,6 UV-I 277 W/m 7,3 C 8,5 C 29,0 km/h (5 Bft)
24.05.2022 15:52 13,3 C 14,4 C 65 % 1009,9 hPa 0,0 l/m 14,7 km/h (3 Bft) S-SO 163 0 min 2,2 UV-I 323 W/m 6,9 C 9,2 C 29,0 km/h (5 Bft)
24.05.2022 15:54 13,3 C 13,9 C 67 % 1009,9 hPa 0,0 l/m 11,3 km/h (2 Bft) S-SW 209 0 min 1,6 UV-I 188 W/m 7,3 C 10,6 C 17,7 km/h (3 Bft)
24.05.2022 15:56 13,2 C 13,9 C 67 % 1010,1 hPa 0,0 l/m 15,6 km/h (3 Bft) S-SW 209 0 min 1,1 UV-I 137 W/m 7,2 C 8,8 C 24,1 km/h (4 Bft)
24.05.2022 15:58 13,0 C 13,3 C 67 % 1010,1 hPa 0,0 l/m 23,6 km/h (4 Bft) S-SO 159 0 min 1,1 UV-I 173 W/m 7,0 C 6,2 C 40,2 km/h (6 Bft)
24.05.2022 16:00 12,7 C 13,3 C 67 % 1010,2 hPa 0,0 l/m 25,3 km/h (4 Bft) SW 214 0 min 1,9 UV-I 336 W/m 6,7 C 5,4 C 38,6 km/h (5 Bft)
24.05.2022 16:02 12,4 C 13,3 C 67 % 1010,2 hPa 0,0 l/m 23,7 km/h (4 Bft) S 173 2 min 2,4 UV-I 393 W/m 6,4 C 5,4 C 35,4 km/h (5 Bft)
24.05.2022 16:04 12,2 C 13,9 C 68 % 1010,1 hPa 0,0 l/m 17,7 km/h (3 Bft) S-SW 213 2 min 2,4 UV-I 359 W/m 6,5 C 6,8 C 32,2 km/h (5 Bft)
24.05.2022 16:06 12,2 C 13,9 C 68 % 1010,1 hPa 0,0 l/m 12,3 km/h (3 Bft) S-SW 211 2 min 2,6 UV-I 372 W/m 6,5 C 8,9 C 20,9 km/h (4 Bft)
24.05.2022 16:08 12,6 C 16,1 C 70 % 1010,1 hPa 0,0 l/m 8,9 km/h (2 Bft) S 188 2 min 3,6 UV-I 550 W/m 7,3 C 11,1 C 16,1 km/h (3 Bft)
24.05.2022 16:10 12,9 C 17,8 C 64 % 1010,2 hPa 0,0 l/m 17,8 km/h (3 Bft) S-SW 198 2 min 3,9 UV-I 614 W/m 6,3 C 7,7 C 24,1 km/h (4 Bft)
24.05.2022 16:12 13,1 C 18,3 C 63 % 1010,2 hPa 0,0 l/m 20,6 km/h (4 Bft) S-SW 211 2 min 4,1 UV-I 693 W/m 6,2 C 7,1 C 29,0 km/h (5 Bft)
24.05.2022 16:14 13,4 C 18,9 C 64 % 1010,2 hPa 0,0 l/m 15,9 km/h (3 Bft) S-SW 210 2 min 4,5 UV-I 780 W/m 6,7 C 8,9 C 25,7 km/h (4 Bft)
24.05.2022 16:16 13,7 C 19,4 C 65 % 1010,2 hPa 0,0 l/m 15,6 km/h (3 Bft) S-SW 194 2 min 4,4 UV-I 786 W/m 7,2 C 9,4 C 22,5 km/h (4 Bft)
24.05.2022 16:18 13,9 C 18,9 C 64 % 1010,1 hPa 0,0 l/m 15,9 km/h (3 Bft) S-SW 202 2 min 4,5 UV-I 871 W/m 7,2 C 9,6 C 24,1 km/h (4 Bft)
24.05.2022 16:20 13,9 C 18,3 C 65 % 1010,1 hPa 0,0 l/m 13,8 km/h (3 Bft) W-SW 248 0 min 3,5 UV-I 316 W/m 7,4 C 10,3 C 24,1 km/h (4 Bft)
24.05.2022 16:22 14,0 C 19,4 C 65 % 1010,2 hPa 0,0 l/m 19,4 km/h (3 Bft) S-SW 213 2 min 4,0 UV-I 475 W/m 7,5 C 8,6 C 29,0 km/h (5 Bft)
24.05.2022 16:24 14,1 C 18,9 C 63 % 1010,2 hPa 0,0 l/m 19,9 km/h (4 Bft) SW 229 2 min 3,4 UV-I 848 W/m 7,2 C 8,6 C 29,0 km/h (5 Bft)
24.05.2022 16:26 13,9 C 16,7 C 64 % 1010,1 hPa 0,0 l/m 16,2 km/h (3 Bft) S 171 0 min 2,0 UV-I 223 W/m 7,2 C 9,5 C 22,5 km/h (4 Bft)
24.05.2022 16:28 13,7 C 15,0 C 67 % 1010,3 hPa 0,0 l/m 16,5 km/h (3 Bft) W 259 0 min 1,3 UV-I 176 W/m 7,7 C 9,1 C 29,0 km/h (5 Bft)
24.05.2022 16:30 13,3 C 14,4 C 68 % 1010,3 hPa 0,0 l/m 13,9 km/h (3 Bft) W 277 0 min 1,0 UV-I 162 W/m 7,5 C 9,5 C 20,9 km/h (4 Bft)
24.05.2022 16:32 12,9 C 13,9 C 68 % 1010,3 hPa 0,0 l/m 12,2 km/h (2 Bft) W-SW 250 0 min 1,1 UV-I 185 W/m 7,1 C 9,8 C 20,9 km/h (4 Bft)
24.05.2022 16:34 12,6 C 14,4 C 68 % 1010,4 hPa 0,0 l/m 12,2 km/h (2 Bft) W-SW 253 0 min 2,1 UV-I 193 W/m 6,9 C 9,4 C 17,7 km/h (3 Bft)
24.05.2022 16:36 12,8 C 16,1 C 70 % 1010,4 hPa 0,0 l/m 7,7 km/h (2 Bft) SW 232 0 min 2,7 UV-I 193 W/m 7,5 C 12,0 C 24,1 km/h (4 Bft)
24.05.2022 16:38 12,9 C 16,7 C 71 % 1010,3 hPa 0,0 l/m 7,2 km/h (2 Bft) W-SW 246 0 min 3,3 UV-I 214 W/m 7,8 C 12,4 C 14,5 km/h (3 Bft)
24.05.2022 16:40 13,0 C 18,9 C 69 % 1010,3 hPa 0,0 l/m 11,2 km/h (2 Bft) W-SW 242 0 min 3,8 UV-I 315 W/m 7,4 C 10,3 C 16,1 km/h (3 Bft)
24.05.2022 16:42 13,1 C 21,1 C 68 % 1010,3 hPa 0,0 l/m 9,8 km/h (2 Bft) W 265 2 min 3,9 UV-I 759 W/m 7,3 C 11,1 C 12,9 km/h (3 Bft)
24.05.2022 16:44 13,3 C 21,1 C 69 % 1010,3 hPa 0,0 l/m 8,6 km/h (2 Bft) W 264 2 min 2,7 UV-I 712 W/m 7,7 C 12,0 C 14,5 km/h (3 Bft)
24.05.2022 16:46 13,4 C 21,1 C 67 % 1010,3 hPa 0,0 l/m 7,8 km/h (2 Bft) W 268 2 min 3,6 UV-I 504 W/m 7,4 C 12,5 C 12,9 km/h (3 Bft)
24.05.2022 16:48 13,7 C 22,2 C 69 % 1010,3 hPa 0,0 l/m 5,4 km/h (1 Bft) W-SW 246 2 min 3,8 UV-I 750 W/m 8,1 C 13,7 C 12,9 km/h (3 Bft)
24.05.2022 16:50 13,8 C 21,7 C 67 % 1010,4 hPa 0,0 l/m 5,3 km/h (1 Bft) W-SW 238 2 min 3,3 UV-I 578 W/m 7,8 C 13,8 C 9,7 km/h (2 Bft)
24.05.2022 16:52 13,9 C 21,7 C 67 % 1010,3 hPa 0,0 l/m 9,0 km/h (2 Bft) W 261 2 min 3,5 UV-I 565 W/m 7,9 C 12,4 C 12,9 km/h (3 Bft)
24.05.2022 16:54 13,9 C 21,1 C 67 % 1010,4 hPa 0,0 l/m 10,1 km/h (2 Bft) W 261 2 min 3,3 UV-I 614 W/m 7,9 C 11,9 C 16,1 km/h (3 Bft)
24.05.2022 16:56 13,9 C 20,6 C 67 % 1010,4 hPa 0,0 l/m 8,3 km/h (2 Bft) S-SW 196 2 min 3,1 UV-I 577 W/m 7,9 C 12,8 C 11,3 km/h (2 Bft)
24.05.2022 16:58 13,8 C 20,6 C 67 % 1010,4 hPa 0,0 l/m 6,3 km/h (2 Bft) S-SO 159 2 min 3,0 UV-I 605 W/m 7,8 C 13,8 C 11,3 km/h (2 Bft)
24.05.2022 17:00 13,8 C 21,7 C 66 % 1010,2 hPa 0,0 l/m 6,5 km/h (2 Bft) SW 216 2 min 3,5 UV-I 689 W/m 7,6 C 13,8 C 9,7 km/h (2 Bft)
24.05.2022 17:02 13,9 C 22,2 C 66 % 1010,4 hPa 0,0 l/m 8,1 km/h (2 Bft) S-SW 193 2 min 3,5 UV-I 678 W/m 7,7 C 12,9 C 12,9 km/h (3 Bft)
24.05.2022 17:04 14,2 C 22,2 C 66 % 1010,4 hPa 0,0 l/m 11,2 km/h (2 Bft) S 181 2 min 3,5 UV-I 656 W/m 7,9 C 11,7 C 19,3 km/h (3 Bft)
24.05.2022 17:06 14,6 C 22,2 C 65 % 1010,3 hPa 0,0 l/m 15,1 km/h (3 Bft) SW 218 2 min 3,5 UV-I 705 W/m 8,1 C 10,7 C 30,6 km/h (5 Bft)
24.05.2022 17:08 14,8 C 21,1 C 59 % 1010,4 hPa 0,0 l/m 22,6 km/h (4 Bft) S 190 2 min 3,2 UV-I 680 W/m 6,9 C 8,9 C 29,0 km/h (5 Bft)
24.05.2022 17:10 14,8 C 20,0 C 58 % 1010,4 hPa 0,0 l/m 25,3 km/h (4 Bft) SW 214 2 min 3,2 UV-I 693 W/m 6,6 C 8,3 C 41,8 km/h (6 Bft)
24.05.2022 17:12 14,7 C 18,3 C 59 % 1010,4 hPa 0,0 l/m 20,6 km/h (4 Bft) W-SW 242 2 min 2,0 UV-I 439 W/m 6,8 C 9,2 C 32,2 km/h (5 Bft)
24.05.2022 17:14 14,5 C 16,1 C 59 % 1010,5 hPa 0,0 l/m 21,0 km/h (4 Bft) S-SW 211 0 min 1,4 UV-I 189 W/m 6,6 C 8,8 C 32,2 km/h (5 Bft)
24.05.2022 17:16 14,2 C 15,0 C 60 % 1010,6 hPa 0,0 l/m 17,0 km/h (3 Bft) W-SW 242 0 min 1,3 UV-I 164 W/m 6,5 C 9,6 C 24,1 km/h (4 Bft)
24.05.2022 17:18 14,0 C 14,4 C 61 % 1010,6 hPa 0,0 l/m 12,4 km/h (3 Bft) S 190 0 min 1,1 UV-I 149 W/m 6,6 C 11,0 C 22,5 km/h (4 Bft)
24.05.2022 17:20 13,9 C 14,4 C 62 % 1010,6 hPa 0,0 l/m 15,3 km/h (3 Bft) W-SW 250 0 min 0,8 UV-I 122 W/m 6,7 C 9,8 C 27,4 km/h (4 Bft)
24.05.2022 17:22 13,7 C 13,9 C 66 % 1010,8 hPa 0,0 l/m 18,7 km/h (3 Bft) W-SW 257 0 min 0,7 UV-I 105 W/m 7,5 C 8,4 C 30,6 km/h (5 Bft)
24.05.2022 17:24 13,4 C 13,3 C 68 % 1010,7 hPa 0,0 l/m 20,2 km/h (4 Bft) SW 235 0 min 0,7 UV-I 118 W/m 7,6 C 7,6 C 32,2 km/h (5 Bft)
24.05.2022 17:26 13,1 C 13,3 C 69 % 1010,8 hPa 0,0 l/m 17,7 km/h (3 Bft) SW 223 0 min 0,8 UV-I 131 W/m 7,5 C 8,0 C 37,0 km/h (5 Bft)
24.05.2022 17:28 12,9 C 13,3 C 69 % 1010,8 hPa 0,0 l/m 11,8 km/h (2 Bft) SW 224 0 min 0,8 UV-I 129 W/m 7,4 C 9,9 C 20,9 km/h (4 Bft)
24.05.2022 17:30 12,8 C 12,8 C 69 % 1010,8 hPa 0,0 l/m 12,9 km/h (3 Bft) S-SW 213 0 min 0,8 UV-I 132 W/m 7,3 C 9,4 C 24,1 km/h (4 Bft)
24.05.2022 17:32 12,6 C 12,8 C 67 % 1010,8 hPa 0,0 l/m 14,7 km/h (3 Bft) S-SW 210 0 min 0,7 UV-I 129 W/m 6,6 C 8,4 C 25,7 km/h (4 Bft)
24.05.2022 17:34 12,5 C 12,8 C 68 % 1010,9 hPa 0,0 l/m 9,1 km/h (2 Bft) SW 222 0 min 0,7 UV-I 126 W/m 6,8 C 10,8 C 14,5 km/h (3 Bft)
24.05.2022 17:36 12,4 C 12,8 C 68 % 1010,9 hPa 0,0 l/m 12,4 km/h (3 Bft) W 271 0 min 0,7 UV-I 132 W/m 6,7 C 9,1 C 19,3 km/h (3 Bft)
24.05.2022 17:38 12,4 C 12,8 C 68 % 1010,8 hPa 0,0 l/m 7,8 km/h (2 Bft) W 260 0 min 0,8 UV-I 147 W/m 6,7 C 11,5 C 19,3 km/h (3 Bft)
24.05.2022 17:40 12,4 C 13,3 C 68 % 1010,8 hPa 0,0 l/m 9,2 km/h (2 Bft) S-SW 195 0 min 1,0 UV-I 177 W/m 6,7 C 10,7 C 12,9 km/h (3 Bft)
24.05.2022 17:42 12,4 C 13,3 C 69 % 1010,9 hPa 0,0 l/m 9,7 km/h (2 Bft) S-SW 210 0 min 1,1 UV-I 193 W/m 6,9 C 10,4 C 16,1 km/h (3 Bft)
24.05.2022 17:44 12,5 C 13,3 C 68 % 1010,8 hPa 0,0 l/m 10,0 km/h (2 Bft) W-SW 246 0 min 1,2 UV-I 195 W/m 6,8 C 10,4 C 17,7 km/h (3 Bft)
24.05.2022 17:46 12,6 C 13,9 C 68 % 1010,8 hPa 0,0 l/m 9,7 km/h (2 Bft) S-SW 205 0 min 1,2 UV-I 193 W/m 6,9 C 10,6 C 16,1 km/h (3 Bft)
24.05.2022 17:48 12,6 C 13,9 C 67 % 1010,8 hPa 0,0 l/m 7,0 km/h (2 Bft) SW 216 0 min 1,2 UV-I 194 W/m 6,6 C 12,2 C 12,9 km/h (3 Bft)
24.05.2022 17:50 12,7 C 13,9 C 66 % 1010,8 hPa 0,0 l/m 9,4 km/h (2 Bft) SW 219 0 min 1,2 UV-I 203 W/m 6,5 C 10,9 C 16,1 km/h (3 Bft)
24.05.2022 17:52 12,7 C 14,4 C 66 % 1010,7 hPa 0,0 l/m 10,0 km/h (2 Bft) SW 227 0 min 1,3 UV-I 238 W/m 6,5 C 10,6 C 16,1 km/h (3 Bft)
24.05.2022 17:54 12,8 C 15,0 C 66 % 1010,7 hPa 0,0 l/m 10,4 km/h (2 Bft) SW 220 0 min 1,6 UV-I 319 W/m 6,6 C 10,5 C 16,1 km/h (3 Bft)
24.05.2022 17:56 13,2 C 17,8 C 65 % 1010,7 hPa 0,0 l/m 11,3 km/h (2 Bft) S-SW 194 2 min 2,2 UV-I 403 W/m 6,8 C 10,5 C 19,3 km/h (3 Bft)
24.05.2022 17:58 13,6 C 19,4 C 64 % 1010,8 hPa 0,0 l/m 10,5 km/h (2 Bft) SW 223 2 min 2,5 UV-I 530 W/m 6,9 C 11,3 C 19,3 km/h (3 Bft)
24.05.2022 18:00 13,8 C 18,9 C 64 % 1010,7 hPa 0,0 l/m 12,6 km/h (3 Bft) SW 229 2 min 1,9 UV-I 679 W/m 7,1 C 10,6 C 25,7 km/h (4 Bft)
24.05.2022 18:02 13,8 C 18,9 C 61 % 1010,8 hPa 0,0 l/m 12,2 km/h (2 Bft) SW 215 2 min 2,2 UV-I 581 W/m 6,4 C 10,8 C 16,1 km/h (3 Bft)
24.05.2022 18:04 13,8 C 17,8 C 61 % 1010,8 hPa 0,0 l/m 18,8 km/h (3 Bft) SW 218 2 min 1,9 UV-I 477 W/m 6,4 C 8,5 C 30,6 km/h (5 Bft)
24.05.2022 18:06 13,7 C 17,2 C 62 % 1010,8 hPa 0,0 l/m 13,7 km/h (3 Bft) SW 217 2 min 1,9 UV-I 358 W/m 6,6 C 10,1 C 25,7 km/h (4 Bft)
24.05.2022 18:08 13,6 C 17,8 C 61 % 1010,8 hPa 0,0 l/m 19,8 km/h (3 Bft) S-SW 201 2 min 1,9 UV-I 464 W/m 6,2 C 8,0 C 29,0 km/h (5 Bft)
24.05.2022 18:10 13,7 C 17,2 C 61 % 1010,8 hPa 0,0 l/m 13,4 km/h (3 Bft) W-SW 254 2 min 1,8 UV-I 447 W/m 6,3 C 10,2 C 25,7 km/h (4 Bft)
24.05.2022 18:12 13,8 C 17,8 C 63 % 1010,9 hPa 0,0 l/m 10,9 km/h (2 Bft) SW 214 2 min 1,9 UV-I 424 W/m 6,9 C 11,4 C 19,3 km/h (3 Bft)
24.05.2022 18:14 13,8 C 18,3 C 62 % 1011,0 hPa 0,0 l/m 12,0 km/h (2 Bft) SW 220 2 min 1,8 UV-I 400 W/m 6,6 C 10,9 C 20,9 km/h (4 Bft)
24.05.2022 18:16 13,8 C 17,8 C 62 % 1011,0 hPa 0,0 l/m 16,0 km/h (3 Bft) S 189 2 min 1,7 UV-I 354 W/m 6,6 C 9,4 C 20,9 km/h (4 Bft)
24.05.2022 18:18 13,8 C 17,8 C 63 % 1011,0 hPa 0,0 l/m 13,7 km/h (3 Bft) S-SW 201 2 min 1,6 UV-I 357 W/m 6,9 C 10,2 C 19,3 km/h (3 Bft)
24.05.2022 18:20 13,8 C 17,2 C 63 % 1011,0 hPa 0,0 l/m 13,6 km/h (3 Bft) S-SW 200 2 min 1,7 UV-I 361 W/m 6,9 C 10,2 C 22,5 km/h (4 Bft)
24.05.2022 18:22 13,9 C 17,2 C 63 % 1011,0 hPa 0,0 l/m 17,8 km/h (3 Bft) W 264 2 min 1,7 UV-I 394 W/m 7,0 C 9,0 C 29,0 km/h (5 Bft)
24.05.2022 18:24 13,8 C 16,7 C 62 % 1011,0 hPa 0,0 l/m 18,5 km/h (3 Bft) S 190 2 min 1,7 UV-I 395 W/m 6,6 C 8,6 C 27,4 km/h (4 Bft)
24.05.2022 18:26 13,8 C 16,1 C 63 % 1010,9 hPa 0,0 l/m 15,2 km/h (3 Bft) W-SW 252 2 min 1,7 UV-I 384 W/m 6,9 C 9,7 C 20,9 km/h (4 Bft)
24.05.2022 18:28 13,8 C 16,1 C 64 % 1011,0 hPa 0,0 l/m 14,3 km/h (3 Bft) SW 219 2 min 1,6 UV-I 351 W/m 7,1 C 10,0 C 25,7 km/h (4 Bft)
24.05.2022 18:30 13,8 C 15,6 C 64 % 1011,0 hPa 0,0 l/m 13,0 km/h (3 Bft) SW 215 0 min 1,4 UV-I 307 W/m 7,1 C 10,5 C 22,5 km/h (4 Bft)
24.05.2022 18:32 13,8 C 15,6 C 64 % 1011,0 hPa 0,0 l/m 9,7 km/h (2 Bft) S 191 2 min 1,5 UV-I 348 W/m 7,1 C 11,9 C 17,7 km/h (3 Bft)
24.05.2022 18:34 13,8 C 15,6 C 64 % 1011,0 hPa 0,0 l/m 13,3 km/h (3 Bft) SW 217 2 min 1,6 UV-I 375 W/m 7,1 C 10,4 C 17,7 km/h (3 Bft)
24.05.2022 18:36 13,9 C 15,6 C 64 % 1011,0 hPa 0,0 l/m 11,2 km/h (2 Bft) S 188 0 min 1,4 UV-I 324 W/m 7,2 C 11,3 C 17,7 km/h (3 Bft)
24.05.2022 18:38 13,9 C 15,6 C 65 % 1011,1 hPa 0,0 l/m 10,1 km/h (2 Bft) S 187 0 min 1,3 UV-I 296 W/m 7,4 C 11,9 C 14,5 km/h (3 Bft)
24.05.2022 18:40 13,8 C 15,6 C 65 % 1011,1 hPa 0,0 l/m 14,9 km/h (3 Bft) S-SW 205 2 min 1,4 UV-I 354 W/m 7,3 C 9,8 C 20,9 km/h (4 Bft)
24.05.2022 18:42 13,8 C 15,6 C 64 % 1011,1 hPa 0,0 l/m 14,0 km/h (3 Bft) S 186 2 min 1,5 UV-I 426 W/m 7,1 C 10,1 C 22,5 km/h (4 Bft)
24.05.2022 18:44 14,1 C 16,1 C 65 % 1011,1 hPa 0,0 l/m 8,9 km/h (2 Bft) SW 224 2 min 1,5 UV-I 394 W/m 7,6 C 12,7 C 14,5 km/h (3 Bft)
24.05.2022 18:46 14,0 C 15,6 C 65 % 1011,1 hPa 0,0 l/m 10,7 km/h (2 Bft) S 184 0 min 1,2 UV-I 284 W/m 7,5 C 11,7 C 16,1 km/h (3 Bft)
24.05.2022 18:48 13,8 C 15,0 C 64 % 1011,1 hPa 0,0 l/m 12,4 km/h (3 Bft) S-SW 209 0 min 0,9 UV-I 175 W/m 7,1 C 10,7 C 17,7 km/h (3 Bft)
24.05.2022 18:50 13,6 C 14,4 C 65 % 1011,2 hPa 0,0 l/m 9,7 km/h (2 Bft) S-SW 211 0 min 0,9 UV-I 128 W/m 7,1 C 11,7 C 14,5 km/h (3 Bft)
24.05.2022 18:52 13,4 C 13,9 C 65 % 1011,1 hPa 0,0 l/m 9,7 km/h (2 Bft) S-SW 194 0 min 0,8 UV-I 123 W/m 7,0 C 11,5 C 17,7 km/h (3 Bft)
24.05.2022 18:54 13,3 C 13,9 C 66 % 1011,1 hPa 0,0 l/m 10,4 km/h (2 Bft) S-SW 203 0 min 0,8 UV-I 122 W/m 7,1 C 11,0 C 16,1 km/h (3 Bft)
24.05.2022 18:56 13,2 C 13,9 C 67 % 1011,2 hPa 0,0 l/m 7,6 km/h (2 Bft) S-SW 202 0 min 0,8 UV-I 120 W/m 7,2 C 12,5 C 12,9 km/h (3 Bft)
24.05.2022 18:58 13,1 C 13,3 C 67 % 1011,2 hPa 0,0 l/m 10,4 km/h (2 Bft) S-SW 212 0 min 0,7 UV-I 119 W/m 7,1 C 10,8 C 16,1 km/h (3 Bft)
24.05.2022 19:00 13,1 C 13,3 C 67 % 1011,2 hPa 0,0 l/m 7,7 km/h (2 Bft) W-SW 248 0 min 0,7 UV-I 118 W/m 7,1 C 12,3 C 14,5 km/h (3 Bft)
24.05.2022 19:02 13,1 C 13,3 C 68 % 1011,2 hPa 0,0 l/m 5,4 km/h (1 Bft) SW 235 0 min 0,7 UV-I 120 W/m 7,3 C 13,1 C 9,7 km/h (2 Bft)
24.05.2022 19:04 13,1 C 13,9 C 67 % 1011,2 hPa 0,0 l/m 7,9 km/h (2 Bft) S-SW 210 0 min 0,7 UV-I 127 W/m 7,1 C 12,2 C 14,5 km/h (3 Bft)
24.05.2022 19:06 13,1 C 13,9 C 68 % 1011,2 hPa 0,0 l/m 6,4 km/h (2 Bft) W 259 0 min 0,7 UV-I 133 W/m 7,3 C 13,1 C 14,5 km/h (3 Bft)
24.05.2022 19:08 13,2 C 13,9 C 68 % 1011,2 hPa 0,0 l/m 6,4 km/h (2 Bft) SW 231 0 min 0,7 UV-I 127 W/m 7,4 C 13,2 C 12,9 km/h (3 Bft)
24.05.2022 19:10 13,2 C 13,9 C 68 % 1011,4 hPa 0,0 l/m 4,3 km/h (1 Bft) SW 230 0 min 0,7 UV-I 126 W/m 7,4 C 13,2 C 6,4 km/h (2 Bft)
24.05.2022 19:12 13,2 C 13,9 C 68 % 1011,3 hPa 0,0 l/m 5,6 km/h (1 Bft) SW 223 0 min 0,6 UV-I 128 W/m 7,4 C 13,2 C 8,0 km/h (2 Bft)
24.05.2022 19:14 13,2 C 13,9 C 68 % 1011,3 hPa 0,0 l/m 8,0 km/h (2 Bft) SW 215 0 min 0,7 UV-I 134 W/m 7,4 C 12,2 C 12,9 km/h (3 Bft)
24.05.2022 19:16 13,2 C 13,9 C 68 % 1011,4 hPa 0,0 l/m 6,7 km/h (2 Bft) S-SW 211 0 min 0,7 UV-I 132 W/m 7,4 C 13,0 C 11,3 km/h (2 Bft)
24.05.2022 19:18 13,2 C 13,9 C 69 % 1011,3 hPa 0,0 l/m 5,5 km/h (1 Bft) SW 217 0 min 0,6 UV-I 128 W/m 7,6 C 13,2 C 9,7 km/h (2 Bft)
24.05.2022 19:20 13,2 C 13,9 C 69 % 1011,3 hPa 0,0 l/m 4,2 km/h (1 Bft) SW 231 0 min 0,6 UV-I 119 W/m 7,6 C 13,2 C 8,0 km/h (2 Bft)
24.05.2022 19:22 13,3 C 13,9 C 69 % 1011,3 hPa 0,0 l/m 6,2 km/h (2 Bft) W 270 0 min 0,6 UV-I 107 W/m 7,7 C 13,3 C 12,9 km/h (3 Bft)
24.05.2022 19:24 13,2 C 13,3 C 69 % 1011,4 hPa 0,0 l/m 5,0 km/h (1 Bft) SW 235 0 min 0,5 UV-I 99 W/m 7,6 C 13,2 C 9,7 km/h (2 Bft)
24.05.2022 19:26 13,2 C 13,3 C 69 % 1011,4 hPa 0,0 l/m 6,4 km/h (2 Bft) SW 220 0 min 0,5 UV-I 97 W/m 7,6 C 13,2 C 11,3 km/h (2 Bft)
24.05.2022 19:28 13,1 C 13,3 C 69 % 1011,4 hPa 0,0 l/m 7,8 km/h (2 Bft) W-SW 240 0 min 0,5 UV-I 97 W/m 7,5 C 12,2 C 16,1 km/h (3 Bft)
24.05.2022 19:30 13,2 C 13,3 C 70 % 1011,4 hPa 0,0 l/m 6,2 km/h (2 Bft) SW 226 0 min 0,5 UV-I 91 W/m 7,9 C 13,2 C 12,9 km/h (3 Bft)
24.05.2022 19:32 13,1 C 13,3 C 69 % 1011,4 hPa 0,0 l/m 5,4 km/h (1 Bft) W-SW 237 0 min 0,1 UV-I 84 W/m 7,5 C 13,1 C 11,3 km/h (2 Bft)
24.05.2022 19:34 13,1 C 13,3 C 70 % 1011,4 hPa 0,0 l/m 5,8 km/h (2 Bft) W-SW 250 0 min 0,0 UV-I 77 W/m 7,8 C 13,1 C 11,3 km/h (2 Bft)
24.05.2022 19:36 13,1 C 13,3 C 70 % 1011,5 hPa 0,0 l/m 6,3 km/h (2 Bft) SW 232 0 min 0,0 UV-I 72 W/m 7,8 C 13,1 C 12,9 km/h (3 Bft)
24.05.2022 19:38 13,1 C 13,3 C 70 % 1011,7 hPa 0,0 l/m 6,1 km/h (2 Bft) W-SW 242 0 min 0,0 UV-I 66 W/m 7,8 C 13,1 C 11,3 km/h (2 Bft)
24.05.2022 19:40 13,0 C 12,8 C 70 % 1011,7 hPa 0,0 l/m 9,0 km/h (2 Bft) SW 231 0 min 0,0 UV-I 48 W/m 7,7 C 11,4 C 17,7 km/h (3 Bft)
24.05.2022 19:42 12,9 C 12,8 C 71 % 1011,8 hPa 0,0 l/m 8,7 km/h (2 Bft) W 261 0 min 0,0 UV-I 27 W/m 7,8 C 11,5 C 16,1 km/h (3 Bft)
24.05.2022 19:44 12,8 C 11,7 C 71 % 1011,8 hPa 0,0 l/m 16,9 km/h (3 Bft) W 265 0 min 0,0 UV-I 25 W/m 7,7 C 7,9 C 32,2 km/h (5 Bft)
24.05.2022 19:46 12,1 C 8,9 C 70 % 1011,9 hPa 0,4 l/m 19,2 km/h (3 Bft) W-SW 250 0 min 0,0 UV-I 33 W/m 6,8 C 6,2 C 27,4 km/h (4 Bft)
24.05.2022 19:48 11,3 C 8,3 C 74 % 1011,9 hPa 0,0 l/m 15,4 km/h (3 Bft) W 274 0 min 0,0 UV-I 33 W/m 6,8 C 6,6 C 22,5 km/h (4 Bft)
24.05.2022 19:50 10,8 C 8,3 C 76 % 1011,9 hPa 0,0 l/m 13,5 km/h (3 Bft) W 259 0 min 0,0 UV-I 32 W/m 6,7 C 6,7 C 19,3 km/h (3 Bft)
24.05.2022 19:52 10,4 C 8,3 C 77 % 1011,9 hPa 0,2 l/m 12,0 km/h (2 Bft) W-SW 257 0 min 0,0 UV-I 33 W/m 6,5 C 7,0 C 16,1 km/h (3 Bft)
24.05.2022 19:54 10,2 C 8,3 C 79 % 1011,8 hPa 0,0 l/m 10,4 km/h (2 Bft) W 261 0 min 0,0 UV-I 39 W/m 6,7 C 7,6 C 14,5 km/h (3 Bft)
24.05.2022 19:56 10,1 C 8,3 C 80 % 1011,9 hPa 0,0 l/m 8,4 km/h (2 Bft) W-SW 251 0 min 0,0 UV-I 47 W/m 6,8 C 8,7 C 12,9 km/h (3 Bft)
24.05.2022 19:58 10,1 C 8,3 C 80 % 1011,9 hPa 0,0 l/m 9,3 km/h (2 Bft) W 275 0 min 0,0 UV-I 53 W/m 6,8 C 8,1 C 14,5 km/h (3 Bft)
24.05.2022 20:00 10,0 C 8,3 C 80 % 1012,0 hPa 0,0 l/m 8,9 km/h (2 Bft) W-SW 257 0 min 0,0 UV-I 56 W/m 6,7 C 8,3 C 12,9 km/h (3 Bft)
24.05.2022 20:02 10,1 C 8,9 C 81 % 1012,0 hPa 0,0 l/m 4,5 km/h (1 Bft) W-SW 252 0 min 0,0 UV-I 53 W/m 7,0 C 10,1 C 6,4 km/h (2 Bft)
24.05.2022 20:04 10,0 C 8,9 C 81 % 1011,9 hPa 0,0 l/m 5,7 km/h (1 Bft) W 261 0 min 0,0 UV-I 56 W/m 6,9 C 10,0 C 11,3 km/h (2 Bft)
24.05.2022 20:06 9,9 C 8,9 C 81 % 1011,9 hPa 0,0 l/m 3,4 km/h (1 Bft) W 262 0 min 0,0 UV-I 60 W/m 6,8 C 9,9 C 6,4 km/h (2 Bft)
24.05.2022 20:08 9,9 C 8,9 C 81 % 1012,0 hPa 0,0 l/m 2,9 km/h (1 Bft) W 262 0 min 0,0 UV-I 65 W/m 6,8 C 9,9 C 4,8 km/h (1 Bft)
24.05.2022 20:10 9,9 C 8,9 C 81 % 1012,1 hPa 0,0 l/m 3,1 km/h (1 Bft) W 263 0 min 0,0 UV-I 72 W/m 6,8 C 9,9 C 6,4 km/h (2 Bft)
24.05.2022 20:12 9,9 C 8,9 C 81 % 1012,0 hPa 0,0 l/m 4,6 km/h (1 Bft) W-SW 250 0 min 0,0 UV-I 78 W/m 6,8 C 9,9 C 9,7 km/h (2 Bft)
24.05.2022 20:14 10,0 C 8,9 C 81 % 1012,0 hPa 0,0 l/m 4,6 km/h (1 Bft) W-NW 282 0 min 0,0 UV-I 83 W/m 6,9 C 10,0 C 11,3 km/h (2 Bft)
24.05.2022 20:16 10,0 C 8,9 C 81 % 1012,1 hPa 0,0 l/m 2,8 km/h (1 Bft) W-NW 282 0 min 0,0 UV-I 82 W/m 6,9 C 10,0 C 4,8 km/h (1 Bft)
24.05.2022 20:18 10,0 C 8,9 C 81 % 1012,0 hPa 0,0 l/m 3,3 km/h (1 Bft) W-NW 282 0 min 0,0 UV-I 78 W/m 6,9 C 10,0 C 4,8 km/h (1 Bft)
24.05.2022 20:20 10,0 C 8,9 C 81 % 1012,1 hPa 0,0 l/m 2,5 km/h (1 Bft) W-NW 282 0 min 0,0 UV-I 70 W/m 6,9 C 10,0 C 4,8 km/h (1 Bft)
24.05.2022 20:22 10,0 C 8,9 C 81 % 1012,1 hPa 0,0 l/m 1,5 km/h (1 Bft) W-NW 282 0 min 0,0 UV-I 64 W/m 6,9 C 10,0 C 3,2 km/h (1 Bft)
24.05.2022 20:24 10,1 C 8,9 C 82 % 1012,0 hPa 0,0 l/m 2,4 km/h (1 Bft) W-NW 282 0 min 0,0 UV-I 58 W/m 7,2 C 10,1 C 3,2 km/h (1 Bft)
24.05.2022 20:26 10,1 C 9,4 C 82 % 1012,1 hPa 0,0 l/m 1,3 km/h (1 Bft) W-NW 282 0 min 0,0 UV-I 53 W/m 7,2 C 10,1 C 3,2 km/h (1 Bft)
24.05.2022 20:28 9,9 C 9,4 C 83 % 1012,0 hPa 0,0 l/m 1,2 km/h (1 Bft) W-NW 282 0 min 0,0 UV-I 50 W/m 7,2 C 9,9 C 3,2 km/h (1 Bft)
24.05.2022 20:30 9,9 C 9,4 C 83 % 1012,2 hPa 0,0 l/m 2,5 km/h (1 Bft) W-NW 282 0 min 0,0 UV-I 49 W/m 7,2 C 9,9 C 4,8 km/h (1 Bft)
24.05.2022 20:32 9,9 C 8,9 C 83 % 1012,2 hPa 0,0 l/m 1,8 km/h (1 Bft) W-NW 282 0 min 0,0 UV-I 49 W/m 7,2 C 9,9 C 3,2 km/h (1 Bft)
24.05.2022 20:34 9,9 C 8,9 C 82 % 1012,1 hPa 0,0 l/m 2,3 km/h (1 Bft) W-NW 282 0 min 0,0 UV-I 48 W/m 7,0 C 9,9 C 3,2 km/h (1 Bft)
24.05.2022 20:36 9,9 C 8,9 C 82 % 1012,2 hPa 0,0 l/m 1,9 km/h (1 Bft) W-NW 282 0 min 0,0 UV-I 46 W/m 7,0 C 9,9 C 3,2 km/h (1 Bft)
24.05.2022 20:38 9,9 C 8,9 C 83 % 1012,2 hPa 0,0 l/m 1,7 km/h (1 Bft) W-NW 282 0 min 0,0 UV-I 41 W/m 7,2 C 9,9 C 3,2 km/h (1 Bft)
24.05.2022 20:40 9,8 C 8,9 C 83 % 1012,2 hPa 0,0 l/m 2,4 km/h (1 Bft) W-NW 282 0 min 0,0 UV-I 35 W/m 7,1 C 9,8 C 3,2 km/h (1 Bft)
24.05.2022 20:42 9,8 C 8,9 C 84 % 1012,2 hPa 0,0 l/m 1,9 km/h (1 Bft) W-NW 282 0 min 0,0 UV-I 27 W/m 7,2 C 9,8 C 3,2 km/h (1 Bft)
24.05.2022 20:44 9,8 C 8,9 C 84 % 1012,2 hPa 0,0 l/m 3,0 km/h (1 Bft) W-NW 282 0 min 0,0 UV-I 19 W/m 7,2 C 9,8 C 4,8 km/h (1 Bft)
24.05.2022 20:46 9,7 C 8,9 C 84 % 1012,3 hPa 0,0 l/m 3,3 km/h (1 Bft) W-SW 243 0 min 0,0 UV-I 14 W/m 7,1 C 9,7 C 6,4 km/h (2 Bft)
24.05.2022 20:48 9,7 C 8,3 C 84 % 1012,3 hPa 0,0 l/m 1,7 km/h (1 Bft) W-SW 243 0 min 0,0 UV-I 12 W/m 7,1 C 9,7 C 4,8 km/h (1 Bft)
24.05.2022 20:50 9,7 C 8,3 C 84 % 1012,3 hPa 0,0 l/m 1,7 km/h (1 Bft) W-SW 243 0 min 0,0 UV-I 12 W/m 7,1 C 9,7 C 3,2 km/h (1 Bft)
24.05.2022 20:52 9,6 C 8,3 C 84 % 1012,3 hPa 0,0 l/m 3,7 km/h (1 Bft) S-SW 207 0 min 0,0 UV-I 11 W/m 7,0 C 9,6 C 8,0 km/h (2 Bft)
24.05.2022 20:54 9,6 C 8,3 C 84 % 1012,3 hPa 0,0 l/m 3,3 km/h (1 Bft) S-SW 207 0 min 0,0 UV-I 9 W/m 7,0 C 9,6 C 6,4 km/h (2 Bft)
24.05.2022 20:56 9,6 C 8,3 C 84 % 1012,4 hPa 0,0 l/m 1,9 km/h (1 Bft) S-SW 207 0 min 0,0 UV-I 9 W/m 7,0 C 9,6 C 3,2 km/h (1 Bft)
24.05.2022 20:58 9,6 C 8,3 C 84 % 1012,3 hPa 0,0 l/m 3,1 km/h (1 Bft) S-SW 207 0 min 0,0 UV-I 7 W/m 7,0 C 9,6 C 4,8 km/h (1 Bft)
24.05.2022 21:00 9,5 C 8,3 C 84 % 1012,3 hPa 0,0 l/m 2,1 km/h (1 Bft) S-SW 207 0 min 0,0 UV-I 7 W/m 6,9 C 9,5 C 3,2 km/h (1 Bft)
24.05.2022 21:02 9,4 C 8,3 C 84 % 1012,3 hPa 0,0 l/m 2,3 km/h (1 Bft) S-SW 207 0 min 0,0 UV-I 7 W/m 6,8 C 9,4 C 3,2 km/h (1 Bft)
24.05.2022 21:04 9,4 C 8,3 C 84 % 1012,3 hPa 0,0 l/m 1,9 km/h (1 Bft) S-SW 207 0 min 0,0 UV-I 7 W/m 6,8 C 9,4 C 3,2 km/h (1 Bft)
24.05.2022 21:06 9,4 C 7,8 C 84 % 1012,3 hPa 0,0 l/m 2,0 km/h (1 Bft) S-SW 207 0 min 0,0 UV-I 7 W/m 6,8 C 9,4 C 3,2 km/h (1 Bft)
24.05.2022 21:08 9,4 C 8,3 C 85 % 1012,3 hPa 0,0 l/m 2,2 km/h (1 Bft) S-SW 207 0 min 0,0 UV-I 7 W/m 7,0 C 9,4 C 3,2 km/h (1 Bft)
24.05.2022 21:10 9,3 C 7,8 C 85 % 1012,3 hPa 0,0 l/m 1,1 km/h (1 Bft) S-SW 207 0 min 0,0 UV-I 6 W/m 6,9 C 9,3 C 3,2 km/h (1 Bft)
24.05.2022 21:12 9,3 C 7,8 C 85 % 1012,5 hPa 0,0 l/m 2,2 km/h (1 Bft) S-SW 207 0 min 0,0 UV-I 5 W/m 6,9 C 9,3 C 3,2 km/h (1 Bft)
24.05.2022 21:14 9,2 C 7,8 C 85 % 1012,5 hPa 0,0 l/m 2,3 km/h (1 Bft) S-SW 207 0 min 0,0 UV-I 5 W/m 6,8 C 9,2 C 4,8 km/h (1 Bft)
24.05.2022 21:16 9,2 C 7,8 C 85 % 1012,5 hPa 0,0 l/m 2,2 km/h (1 Bft) S-SW 207 0 min 0,0 UV-I 5 W/m 6,8 C 9,2 C 4,8 km/h (1 Bft)
24.05.2022 21:18 9,2 C 7,8 C 85 % 1012,6 hPa 0,0 l/m 2,7 km/h (1 Bft) S-SW 207 0 min 0,0 UV-I 5 W/m 6,8 C 9,2 C 4,8 km/h (1 Bft)
24.05.2022 21:20 9,1 C 7,8 C 85 % 1012,6 hPa 0,0 l/m 2,4 km/h (1 Bft) S-SW 207 0 min 0,0 UV-I 5 W/m 6,7 C 9,1 C 4,8 km/h (1 Bft)
24.05.2022 21:22 9,1 C 7,8 C 85 % 1012,7 hPa 0,0 l/m 2,6 km/h (1 Bft) S-SW 207 0 min 0,0 UV-I 5 W/m 6,7 C 9,1 C 4,8 km/h (1 Bft)
24.05.2022 21:24 9,0 C 7,8 C 85 % 1012,8 hPa 0,0 l/m 2,2 km/h (1 Bft) S-SW 207 0 min 0,0 UV-I 2 W/m 6,6 C 9,0 C 3,2 km/h (1 Bft)
24.05.2022 21:26 8,9 C 7,8 C 86 % 1012,8 hPa 0,0 l/m 3,1 km/h (1 Bft) S-SW 207 0 min 0,0 UV-I 0 W/m 6,7 C 8,9 C 4,8 km/h (1 Bft)
24.05.2022 21:28 8,9 C 7,8 C 86 % 1012,9 hPa 0,0 l/m 3,5 km/h (1 Bft) S-SW 207 0 min 0,0 UV-I 0 W/m 6,7 C 8,9 C 4,8 km/h (1 Bft)
24.05.2022 21:30 8,9 C 7,8 C 86 % 1012,9 hPa 0,0 l/m 3,6 km/h (1 Bft) S-SW 207 0 min 0,0 UV-I 0 W/m 6,7 C 8,9 C 4,8 km/h (1 Bft)
24.05.2022 21:32 8,9 C 7,2 C 86 % 1012,8 hPa 0,0 l/m 3,8 km/h (1 Bft) S-SW 207 0 min 0,0 UV-I 0 W/m 6,7 C 8,9 C 4,8 km/h (1 Bft)
24.05.2022 21:34 8,9 C 7,8 C 86 % 1012,9 hPa 0,0 l/m 4,2 km/h (1 Bft) S-SW 207 0 min 0,0 UV-I 0 W/m 6,7 C 8,9 C 6,4 km/h (2 Bft)
24.05.2022 21:36 8,9 C 7,8 C 86 % 1012,8 hPa 0,0 l/m 5,4 km/h (1 Bft) SW 215 0 min 0,0 UV-I 0 W/m 6,7 C 8,9 C 9,7 km/h (2 Bft)
24.05.2022 21:38 8,9 C 7,8 C 86 % 1012,9 hPa 0,0 l/m 4,5 km/h (1 Bft) S-SW 213 0 min 0,0 UV-I 0 W/m 6,7 C 8,9 C 6,4 km/h (2 Bft)
24.05.2022 21:40 8,9 C 7,8 C 86 % 1012,9 hPa 0,0 l/m 3,7 km/h (1 Bft) SW 215 0 min 0,0 UV-I 0 W/m 6,7 C 8,9 C 6,4 km/h (2 Bft)
24.05.2022 21:42 9,0 C 7,8 C 85 % 1012,9 hPa 0,0 l/m 3,6 km/h (1 Bft) SW 215 0 min 0,0 UV-I 0 W/m 6,6 C 9,0 C 4,8 km/h (1 Bft)
24.05.2022 21:44 9,0 C 7,8 C 85 % 1012,9 hPa 0,0 l/m 4,4 km/h (1 Bft) SW 217 0 min 0,0 UV-I 0 W/m 6,6 C 9,0 C 6,4 km/h (2 Bft)
24.05.2022 21:46 9,0 C 7,8 C 85 % 1012,9 hPa 0,0 l/m 3,4 km/h (1 Bft) SW 219 0 min 0,0 UV-I 0 W/m 6,6 C 9,0 C 6,4 km/h (2 Bft)
24.05.2022 21:48 9,0 C 7,2 C 85 % 1012,9 hPa 0,0 l/m 3,2 km/h (1 Bft) SW 219 0 min 0,0 UV-I 0 W/m 6,6 C 9,0 C 6,4 km/h (2 Bft)
24.05.2022 21:50 9,0 C 7,2 C 85 % 1013,0 hPa 0,0 l/m 3,0 km/h (1 Bft) SW 219 0 min 0,0 UV-I 0 W/m 6,6 C 9,0 C 4,8 km/h (1 Bft)
24.05.2022 21:52 8,9 C 7,2 C 85 % 1013,0 hPa 0,0 l/m 2,3 km/h (1 Bft) SW 219 0 min 0,0 UV-I 0 W/m 6,5 C 8,9 C 4,8 km/h (1 Bft)
24.05.2022 21:54 8,9 C 7,2 C 86 % 1013,1 hPa 0,0 l/m 3,5 km/h (1 Bft) SW 219 0 min 0,0 UV-I 0 W/m 6,7 C 8,9 C 4,8 km/h (1 Bft)
24.05.2022 21:56 8,8 C 7,2 C 86 % 1013,1 hPa 0,0 l/m 3,6 km/h (1 Bft) SW 219 0 min 0,0 UV-I 0 W/m 6,6 C 8,8 C 6,4 km/h (2 Bft)
24.05.2022 21:58 8,8 C 7,2 C 86 % 1013,1 hPa 0,0 l/m 2,5 km/h (1 Bft) SW 219 0 min 0,0 UV-I 0 W/m 6,6 C 8,8 C 4,8 km/h (1 Bft)
24.05.2022 22:00 8,7 C 6,7 C 86 % 1013,2 hPa 0,0 l/m 2,5 km/h (1 Bft) SW 219 0 min 0,0 UV-I 0 W/m 6,5 C 8,7 C 4,8 km/h (1 Bft)
24.05.2022 22:02 8,7 C 6,7 C 86 % 1013,3 hPa 0,0 l/m 2,0 km/h (1 Bft) SW 219 0 min 0,0 UV-I 0 W/m 6,5 C 8,7 C 3,2 km/h (1 Bft)
24.05.2022 22:04 8,7 C 6,7 C 86 % 1013,2 hPa 0,0 l/m 2,6 km/h (1 Bft) SW 219 0 min 0,0 UV-I 0 W/m 6,5 C 8,7 C 3,2 km/h (1 Bft)
24.05.2022 22:06 8,7 C 7,2 C 86 % 1013,2 hPa 0,0 l/m 3,2 km/h (1 Bft) SW 219 0 min 0,0 UV-I 0 W/m 6,5 C 8,7 C 4,8 km/h (1 Bft)
24.05.2022 22:08 8,7 C 7,2 C 86 % 1013,2 hPa 0,0 l/m 3,4 km/h (1 Bft) SW 219 0 min 0,0 UV-I 0 W/m 6,5 C 8,7 C 4,8 km/h (1 Bft)
24.05.2022 22:10 8,7 C 7,2 C 86 % 1013,2 hPa 0,0 l/m 3,4 km/h (1 Bft) SW 219 0 min 0,0 UV-I 0 W/m 6,5 C 8,7 C 4,8 km/h (1 Bft)
24.05.2022 22:12 8,7 C 7,2 C 86 % 1013,2 hPa 0,0 l/m 2,6 km/h (1 Bft) SW 219 0 min 0,0 UV-I 0 W/m 6,5 C 8,7 C 4,8 km/h (1 Bft)
24.05.2022 22:14 8,7 C 7,2 C 86 % 1013,2 hPa 0,0 l/m 2,9 km/h (1 Bft) SW 219 0 min 0,0 UV-I 0 W/m 6,5 C 8,7 C 4,8 km/h (1 Bft)
24.05.2022 22:16 8,8 C 7,2 C 86 % 1013,1 hPa 0,0 l/m 2,7 km/h (1 Bft) SW 219 0 min 0,0 UV-I 0 W/m 6,6 C 8,8 C 4,8 km/h (1 Bft)
24.05.2022 22:18 8,8 C 7,2 C 86 % 1013,2 hPa 0,0 l/m 2,4 km/h (1 Bft) SW 219 0 min 0,0 UV-I 0 W/m 6,6 C 8,8 C 3,2 km/h (1 Bft)
24.05.2022 22:20 8,8 C 7,2 C 85 % 1013,3 hPa 0,0 l/m 1,4 km/h (1 Bft) SW 219 0 min 0,0 UV-I 0 W/m 6,4 C 8,8 C 3,2 km/h (1 Bft)
24.05.2022 22:22 8,7 C 6,7 C 85 % 1013,3 hPa 0,0 l/m 0,5 km/h (0 Bft) SW 219 0 min 0,0 UV-I 0 W/m 6,3 C 8,7 C 3,2 km/h (1 Bft)
24.05.2022 22:24 8,7 C 6,7 C 85 % 1013,3 hPa 0,0 l/m 1,0 km/h (0 Bft) SW 219 0 min 0,0 UV-I 0 W/m 6,3 C 8,7 C 3,2 km/h (1 Bft)
24.05.2022 22:26 8,6 C 6,7 C 86 % 1013,3 hPa 0,0 l/m 2,0 km/h (1 Bft) SW 219 0 min 0,0 UV-I 0 W/m 6,4 C 8,6 C 3,2 km/h (1 Bft)
24.05.2022 22:28 8,4 C 6,7 C 86 % 1013,4 hPa 0,0 l/m 1,9 km/h (1 Bft) SW 219 0 min 0,0 UV-I 0 W/m 6,2 C 8,4 C 3,2 km/h (1 Bft)
24.05.2022 22:30 8,3 C 6,7 C 87 % 1013,3 hPa 0,0 l/m 1,7 km/h (1 Bft) SW 219 0 min 0,0 UV-I 0 W/m 6,3 C 8,3 C 3,2 km/h (1 Bft)
24.05.2022 22:32 8,2 C 6,7 C 87 % 1013,4 hPa 0,0 l/m 1,3 km/h (1 Bft) SW 219 0 min 0,0 UV-I 0 W/m 6,2 C 8,2 C 3,2 km/h (1 Bft)
24.05.2022 22:34 8,2 C 6,7 C 88 % 1013,4 hPa 0,0 l/m 1,7 km/h (1 Bft) SW 219 0 min 0,0 UV-I 0 W/m 6,3 C 8,2 C 3,2 km/h (1 Bft)
24.05.2022 22:36 8,2 C 6,7 C 88 % 1013,3 hPa 0,0 l/m 2,2 km/h (1 Bft) SW 219 0 min 0,0 UV-I 0 W/m 6,3 C 8,2 C 3,2 km/h (1 Bft)
24.05.2022 22:38 8,3 C 6,7 C 88 % 1013,4 hPa 0,0 l/m 2,6 km/h (1 Bft) SW 219 0 min 0,0 UV-I 0 W/m 6,4 C 8,3 C 3,2 km/h (1 Bft)
24.05.2022 22:40 8,3 C 6,7 C 87 % 1013,5 hPa 0,0 l/m 2,6 km/h (1 Bft) SW 219 0 min 0,0 UV-I 0 W/m 6,3 C 8,3 C 4,8 km/h (1 Bft)
24.05.2022 22:42 8,3 C 6,7 C 87 % 1013,4 hPa 0,0 l/m 2,5 km/h (1 Bft) SW 219 0 min 0,0 UV-I 0 W/m 6,3 C 8,3 C 3,2 km/h (1 Bft)
24.05.2022 22:44 8,2 C 6,7 C 88 % 1013,5 hPa 0,0 l/m 2,9 km/h (1 Bft) SW 219 0 min 0,0 UV-I 0 W/m 6,3 C 8,2 C 4,8 km/h (1 Bft)
24.05.2022 22:46 8,3 C 6,7 C 88 % 1013,5 hPa 0,0 l/m 3,3 km/h (1 Bft) SW 219 0 min 0,0 UV-I 0 W/m 6,4 C 8,3 C 4,8 km/h (1 Bft)
24.05.2022 22:48 8,3 C 6,7 C 88 % 1013,6 hPa 0,0 l/m 3,9 km/h (1 Bft) SW 219 0 min 0,0 UV-I 0 W/m 6,4 C 8,3 C 6,4 km/h (2 Bft)
24.05.2022 22:50 8,3 C 7,2 C 88 % 1013,5 hPa 0,0 l/m 3,6 km/h (1 Bft) SW 219 0 min 0,0 UV-I 0 W/m 6,4 C 8,3 C 4,8 km/h (1 Bft)
24.05.2022 22:52 8,4 C 7,2 C 87 % 1013,6 hPa 0,0 l/m 3,4 km/h (1 Bft) SW 219 0 min 0,0 UV-I 0 W/m 6,4 C 8,4 C 4,8 km/h (1 Bft)
24.05.2022 22:54 8,4 C 6,7 C 87 % 1013,5 hPa 0,0 l/m 2,8 km/h (1 Bft) SW 219 0 min 0,0 UV-I 0 W/m 6,4 C 8,4 C 4,8 km/h (1 Bft)
24.05.2022 22:56 8,3 C 6,7 C 87 % 1013,5 hPa 0,0 l/m 3,4 km/h (1 Bft) SW 219 0 min 0,0 UV-I 0 W/m 6,3 C 8,3 C 6,4 km/h (2 Bft)
24.05.2022 22:58 8,3 C 6,7 C 87 % 1013,5 hPa 0,0 l/m 3,9 km/h (1 Bft) SW 219 0 min 0,0 UV-I 0 W/m 6,3 C 8,3 C 4,8 km/h (1 Bft)
24.05.2022 23:00 8,3 C 6,7 C 87 % 1013,6 hPa 0,0 l/m 4,0 km/h (1 Bft) SW 219 0 min 0,0 UV-I 0 W/m 6,3 C 8,3 C 6,4 km/h (2 Bft)
24.05.2022 23:02 8,3 C 6,7 C 87 % 1013,5 hPa 0,0 l/m 1,8 km/h (1 Bft) SW 219 0 min 0,0 UV-I 0 W/m 6,3 C 8,3 C 3,2 km/h (1 Bft)
24.05.2022 23:04 8,4 C 6,7 C 87 % 1013,6 hPa 0,0 l/m 3,4 km/h (1 Bft) SW 219 0 min 0,0 UV-I 0 W/m 6,4 C 8,4 C 4,8 km/h (1 Bft)
24.05.2022 23:06 8,4 C 6,7 C 87 % 1013,6 hPa 0,0 l/m 1,3 km/h (1 Bft) SW 219 0 min 0,0 UV-I 0 W/m 6,4 C 8,4 C 3,2 km/h (1 Bft)
24.05.2022 23:08 8,4 C 6,7 C 87 % 1013,7 hPa 0,0 l/m 1,1 km/h (1 Bft) SW 219 0 min 0,0 UV-I 0 W/m 6,4 C 8,4 C 3,2 km/h (1 Bft)
24.05.2022 23:10 8,4 C 6,7 C 87 % 1013,7 hPa 0,0 l/m 0,1 km/h (0 Bft) SW 219 0 min 0,0 UV-I 0 W/m 6,4 C 8,4 C 1,6 km/h (1 Bft)
24.05.2022 23:12 8,4 C 6,7 C 87 % 1013,7 hPa 0,0 l/m 0,3 km/h (0 Bft) SW 219 0 min 0,0 UV-I 0 W/m 6,4 C 8,4 C 1,6 km/h (1 Bft)
24.05.2022 23:14 8,4 C 6,7 C 87 % 1013,7 hPa 0,0 l/m 0,2 km/h (0 Bft) SW 219 0 min 0,0 UV-I 0 W/m 6,4 C 8,4 C 1,6 km/h (1 Bft)
24.05.2022 23:16 8,4 C 6,7 C 87 % 1013,8 hPa 0,0 l/m 0,4 km/h (0 Bft) SW 219 0 min 0,0 UV-I 0 W/m 6,4 C 8,4 C 1,6 km/h (1 Bft)
24.05.2022 23:18 8,3 C 6,7 C 87 % 1013,8 hPa 0,0 l/m 1,0 km/h (0 Bft) SW 219 0 min 0,0 UV-I 0 W/m 6,3 C 8,3 C 3,2 km/h (1 Bft)
24.05.2022 23:20 8,1 C 6,7 C 87 % 1013,7 hPa 0,0 l/m 0,8 km/h (0 Bft) SW 219 0 min 0,0 UV-I 0 W/m 6,1 C 8,1 C 3,2 km/h (1 Bft)
24.05.2022 23:22 8,1 C 6,7 C 87 % 1013,8 hPa 0,0 l/m 0,7 km/h (0 Bft) SW 219 0 min 0,0 UV-I 0 W/m 6,1 C 8,1 C 1,6 km/h (1 Bft)
24.05.2022 23:24 8,0 C 6,7 C 87 % 1013,8 hPa 0,0 l/m 0,5 km/h (0 Bft) SW 219 0 min 0,0 UV-I 0 W/m 6,0 C 8,0 C 3,2 km/h (1 Bft)
24.05.2022 23:26 7,9 C 6,7 C 88 % 1013,8 hPa 0,0 l/m 1,4 km/h (1 Bft) SW 219 0 min 0,0 UV-I 0 W/m 6,0 C 7,9 C 3,2 km/h (1 Bft)
24.05.2022 23:28 7,9 C 6,7 C 88 % 1013,9 hPa 0,0 l/m 1,5 km/h (1 Bft) SW 219 0 min 0,0 UV-I 0 W/m 6,0 C 7,9 C 3,2 km/h (1 Bft)
24.05.2022 23:30 7,8 C 6,7 C 88 % 1013,7 hPa 0,0 l/m 0,1 km/h (0 Bft) SW 219 0 min 0,0 UV-I 0 W/m 5,9 C 7,8 C 1,6 km/h (1 Bft)
24.05.2022 23:32 7,8 C 6,7 C 88 % 1013,9 hPa 0,0 l/m 0,0 km/h (0 Bft) SW 219 0 min 0,0 UV-I 0 W/m 5,9 C 7,8 C 0,0 km/h (0 Bft)
24.05.2022 23:34 7,8 C 6,7 C 88 % 1013,9 hPa 0,0 l/m 0,0 km/h (0 Bft) SW 219 0 min 0,0 UV-I 0 W/m 5,9 C 7,8 C 0,0 km/h (0 Bft)
24.05.2022 23:36 7,7 C 6,7 C 88 % 1013,9 hPa 0,0 l/m 0,4 km/h (0 Bft) SW 219 0 min 0,0 UV-I 0 W/m 5,8 C 7,7 C 1,6 km/h (1 Bft)
24.05.2022 23:38 7,7 C 6,1 C 89 % 1013,9 hPa 0,0 l/m 1,3 km/h (1 Bft) SW 219 0 min 0,0 UV-I 0 W/m 6,0 C 7,7 C 3,2 km/h (1 Bft)
24.05.2022 23:40 7,7 C 6,1 C 89 % 1013,9 hPa 0,0 l/m 1,4 km/h (1 Bft) SW 219 0 min 0,0 UV-I 0 W/m 6,0 C 7,7 C 3,2 km/h (1 Bft)
24.05.2022 23:42 7,7 C 6,1 C 89 % 1013,8 hPa 0,0 l/m 0,4 km/h (0 Bft) SW 219 0 min 0,0 UV-I 0 W/m 6,0 C 7,7 C 1,6 km/h (1 Bft)
24.05.2022 23:44 7,7 C 6,1 C 89 % 1014,0 hPa 0,0 l/m 0,6 km/h (0 Bft) SW 219 0 min 0,0 UV-I 0 W/m 6,0 C 7,7 C 1,6 km/h (1 Bft)
24.05.2022 23:46 7,7 C 6,1 C 89 % 1014,0 hPa 0,0 l/m 0,4 km/h (0 Bft) SW 219 0 min 0,0 UV-I 0 W/m 6,0 C 7,7 C 1,6 km/h (1 Bft)
24.05.2022 23:48 7,6 C 6,1 C 89 % 1013,9 hPa 0,0 l/m 1,3 km/h (1 Bft) SW 219 0 min 0,0 UV-I 0 W/m 5,9 C 7,6 C 3,2 km/h (1 Bft)
24.05.2022 23:50 7,5 C 6,1 C 89 % 1014,0 hPa 0,0 l/m 1,0 km/h (0 Bft) SW 219 0 min 0,0 UV-I 0 W/m 5,8 C 7,5 C 1,6 km/h (1 Bft)
24.05.2022 23:52 7,4 C 6,1 C 89 % 1014,0 hPa 0,0 l/m 1,0 km/h (0 Bft) SW 219 0 min 0,0 UV-I 0 W/m 5,7 C 7,4 C 1,6 km/h (1 Bft)
24.05.2022 23:54 7,4 C 6,1 C 89 % 1014,0 hPa 0,0 l/m 1,1 km/h (1 Bft) SW 219 0 min 0,0 UV-I 0 W/m 5,7 C 7,4 C 3,2 km/h (1 Bft)
24.05.2022 23:56 7,3 C 6,1 C 89 % 1014,2 hPa 0,0 l/m 2,2 km/h (1 Bft) SW 219 0 min 0,0 UV-I 0 W/m 5,6 C 7,3 C 3,2 km/h (1 Bft)
24.05.2022 23:58 7,3 C 6,1 C 89 % 1014,0 hPa 0,0 l/m 2,1 km/h (1 Bft) SW 219 0 min 0,0 UV-I 0 W/m 5,6 C 7,3 C 3,2 km/h (1 Bft)
24.05.2022 23:59 7,3 C 6,1 C 90 % 1014,1 hPa 0,0 l/m 3,2 km/h (1 Bft) SW 225 0 min 0,0 UV-I 0 W/m 5,8 C 7,3 C 4,8 km/h (1 Bft)
_ Min-Zeit 23:56 23:38 17:10 04:36 - 23:32 - - - - - 23:56 07:19 23:32
Minimum _ 7,3 C 6,1 C 58 % 1003,1 hPa - 0,0 km/h (0 Bft) - - - - - 5,6 C 1,8 C 0,0 km/h (0 Bft)
_ Max-Zeit 15:06 16:48 00:32 23:56 19:46 16:00 - - 09:58 13:32 13:34 03:34 16:50 17:10
Maximum _ 14,8 C 22,2 C 92 % 1014,2 hPa 0,4 l/m 25,3 km/h
SW (4 Bft)
- - 2 min 6,9 UV-I 1157 W/m 10,4 C 13,8 C 41,8 km/h
W-SW (6 Bft)
Durchschnitt _ 11,1 C 11,6 C 82 % 1008,0 hPa #6,0 l/m 10,3 km/h (2 Bft) S-SW - #5:00 h 2,3 UV-I 286 W/m 8,0 C 8,6 C 16,2 km/h (3 Bft)